Detalle de ayer:

30/9/23
Time         Wind Dir  Wind Gust   Humidity       Temp   Tot Rain Wind Chill Heat Index  Dew Point   Barom SL Temp Out H Temp Out L  DailyRain   HourRain   24HrRain   RainRate   Wind Run   Deg Heat   Deg Cool  MonthRain
                          km/hr          %         C         mm         C         C         C         mb         C         C         mm         mm         mm      mm/hr         km         C         C         mm
0:00              248        0.0         52       24.9      160.8       24.9       25.4       14.4     1018.2       24.9       24.9        0.0        0.0        0.0       0.00        0.0       0.00       6.09       60.2
0:02              248        0.0         53       24.8      160.8       24.8       25.4       14.6     1018.2       24.9       24.8        0.0        0.0        0.0       0.00        0.0       0.00       0.03       60.2
0:03              248        0.0         53       24.8      160.8       24.8       25.4       14.6     1018.2       24.9       24.8        0.0        0.0        0.0       0.00        0.0       0.00       0.03       60.2
0:06              248        0.0         54       24.7      160.8       24.7       25.4       14.8     1018.1       24.9       24.7        0.0        0.0        0.0       0.00        0.0       0.00       0.03       60.2
0:08              248        0.0         54       24.7      160.8       24.7       25.3       14.7     1018.2       24.9       24.7        0.0        0.0        0.0       0.00        0.0       0.00       0.03       60.2
0:10              248        0.0         54       24.6      160.8       24.6       25.3       14.7     1018.2       24.9       24.6        0.0        0.0        0.0       0.00        0.0       0.00       0.03       60.2
0:12              248        0.0         53       24.5      160.8       24.5       25.1       14.3     1018.2       24.9       24.5        0.0        0.0        0.0       0.00        0.0       0.00       0.03       60.2
0:14              248        0.0         53       24.4      160.8       24.4       25.1       14.3     1018.2       24.9       24.4        0.0        0.0        0.0       0.00        0.0       0.00       0.03       60.2
0:16              248        0.0         54       24.4      160.8       24.4       25.0       14.5     1018.2       24.9       24.4        0.0        0.0        0.0       0.00        0.0       0.00       0.05       60.2
0:18              248        0.0         54       24.3      160.8       24.3       25.0       14.4     1018.1       24.9       24.3        0.0        0.0        0.0       0.00        0.0       0.00       0.05       60.2
0:20              248        0.0         54       24.3      160.8       24.3       24.9       14.4     1018.1       24.9       24.3        0.0        0.0        0.0       0.00        0.0       0.00       0.05       60.2
0:22              248        0.0         54       24.2      160.8       24.2       24.9       14.3     1018.2       24.9       24.2        0.0        0.0        0.0       0.00        0.0       0.00       0.05       60.2
0:24              248        0.0         54       24.2      160.8       24.2       24.8       14.3     1018.1       24.9       24.2        0.0        0.0        0.0       0.00        0.0       0.00       0.05       60.2
0:26              248        0.0         54       24.2      160.8       24.2       24.8       14.3     1018.0       24.9       24.1        0.0        0.0        0.0       0.00        0.0       0.00       0.05       60.2
0:28              248        0.0         55       24.1      160.8       24.1       24.8       14.5     1018.2       24.9       24.1        0.0        0.0        0.0       0.00        0.0       0.00       0.05       60.2
0:30              248        0.0         55       24.1      160.8       24.1       24.8       14.5     1018.1       24.9       24.1        0.0        0.0        0.0       0.00        0.0       0.00       0.05       60.2
0:32              248        0.0         54       24.1      160.8       24.1       24.7       14.2     1018.2       24.9       24.1        0.0        0.0        0.0       0.00        0.0       0.00       0.08       60.2
0:34              248        0.0         54       24.0      160.8       24.0       24.7       14.1     1018.2       24.9       24.0        0.0        0.0        0.0       0.00        0.0       0.00       0.08       60.2
0:36              248        0.0         54       24.0      160.8       24.0       24.7       14.1     1018.2       24.9       24.0        0.0        0.0        0.0       0.00        0.0       0.00       0.08       60.2
0:38              248        0.0         55       24.0      160.8       24.0       24.7       14.4     1018.2       24.9       24.0        0.0        0.0        0.0       0.00        0.0       0.00       0.08       60.2
0:40              248        0.0         55       23.9      160.8       23.9       24.7       14.4     1018.2       24.9       23.9        0.0        0.0        0.0       0.00        0.0       0.00       0.08       60.2
0:42              248        0.0         55       23.9      160.8       23.9       24.7       14.4     1018.2       24.9       23.9        0.0        0.0        0.0       0.00        0.0       0.00       0.08       60.2
0:44              248        0.0         55       23.9      160.8       23.9       24.6       14.3     1018.2       24.9       23.9        0.0        0.0        0.0       0.00        0.0       0.00       0.08       60.2
0:46              248        0.0         56       23.9      160.8       23.9       24.7       14.6     1018.2       24.9       23.9        0.0        0.0        0.0       0.00        0.0       0.00       0.10       60.2
0:48              248        0.0         56       23.8      160.8       23.8       24.6       14.5     1018.2       24.9       23.8        0.0        0.0        0.0       0.00        0.0       0.00       0.10       60.2
0:50              248        0.0         57       23.8      160.8       23.8       24.7       14.8     1018.2       24.9       23.8        0.0        0.0        0.0       0.00        0.0       0.00       0.10       60.2
0:52              248        0.0         56       23.8      160.8       23.8       24.6       14.5     1018.2       24.9       23.8        0.0        0.0        0.0       0.00        0.0       0.00       0.10       60.2
0:54              248        0.0         56       23.8      160.8       23.8       24.6       14.5     1018.1       24.9       23.8        0.0        0.0        0.0       0.00        0.0       0.00       0.10       60.2
0:56              248        0.0         56       23.7      160.8       23.7       24.5       14.4     1018.2       24.9       23.7        0.0        0.0        0.0       0.00        0.0       0.00       0.10       60.2
0:58              248        0.0         57       23.7      160.8       23.7       24.6       14.7     1018.1       24.9       23.7        0.0        0.0        0.0       0.00        0.0       0.00       0.10       60.2
1:00              248        0.0         57       23.7      160.8       23.7       24.6       14.7     1018.1       24.9       23.7        0.0        0.0        0.0       0.00        0.0       0.00       0.10       60.2
1:02              248        0.0         56       23.7      160.8       23.7       24.4       14.4     1018.1       24.9       23.7        0.0        0.0        0.0       0.00        0.0       0.00       0.11       60.2
1:04              248        0.0         57       23.6      160.8       23.6       24.4       14.6     1018.1       24.9       23.6        0.0        0.0        0.0       0.00        0.0       0.00       0.11       60.2
1:06              248        0.0         57       23.6      160.8       23.6       24.4       14.6     1018.1       24.9       23.6        0.0        0.0        0.0       0.00        0.0       0.00       0.11       60.2
1:08              248        0.0         56       23.6      160.8       23.6       24.3       14.3     1018.1       24.9       23.6        0.0        0.0        0.0       0.00        0.0       0.00       0.11       60.2
1:10              248        0.0         56       23.6      160.8       23.6       24.3       14.3     1018.1       24.9       23.6        0.0        0.0        0.0       0.00        0.0       0.00       0.11       60.2
1:12              248        0.0         56       23.5      160.8       23.5       24.3       14.2     1018.1       24.9       23.5        0.0        0.0        0.0       0.00        0.0       0.00       0.11       60.2
1:14              248        0.0         56       23.5      160.8       23.5       24.3       14.2     1018.1       24.9       23.5        0.0        0.0        0.0       0.00        0.0       0.00       0.11       60.2
1:16              248        0.0         54       23.4      160.8       23.4       24.1       13.6     1018.0       24.9       23.4        0.0        0.0        0.0       0.00        0.0       0.00       0.13       60.2
1:18              248        0.0         54       23.4      160.8       23.4       24.1       13.6     1018.1       24.9       23.4        0.0        0.0        0.0       0.00        0.0       0.00       0.13       60.2
1:20              248        0.0         54       23.4      160.8       23.4       24.1       13.6     1018.0       24.9       23.4        0.0        0.0        0.0       0.00        0.0       0.00       0.13       60.2
1:22              248        0.0         53       23.4      160.8       23.4       24.0       13.3     1018.1       24.9       23.4        0.0        0.0        0.0       0.00        0.0       0.00       0.13       60.2
1:24              248        0.0         53       23.4      160.8       23.4       24.0       13.3     1018.1       24.9       23.4        0.0        0.0        0.0       0.00        0.0       0.00       0.13       60.2
1:26              248        0.0         53       23.4      160.8       23.4       24.0       13.3     1018.1       24.9       23.4        0.0        0.0        0.0       0.00        0.0       0.00       0.13       60.2
1:28              248        0.0         53       23.4      160.8       23.4       24.0       13.3     1018.1       24.9       23.3        0.0        0.0        0.0       0.00        0.0       0.00       0.13       60.2
1:30              248        0.0         53       23.3      160.8       23.3       23.9       13.2     1018.1       24.9       23.3        0.0        0.0        0.0       0.00        0.0       0.00       0.13       60.2
1:32              248        0.0         53       23.3      160.8       23.3       23.9       13.2     1018.0       24.9       23.3        0.0        0.0        0.0       0.00        0.0       0.00       0.14       60.2
1:34              248        0.0         53       23.3      160.8       23.3       23.9       13.2     1018.1       24.9       23.3        0.0        0.0        0.0       0.00        0.0       0.00       0.14       60.2
1:36              248        0.0         53       23.3      160.8       23.3       23.9       13.2     1018.0       24.9       23.3        0.0        0.0        0.0       0.00        0.0       0.00       0.14       60.2
1:38              248        0.0         52       23.3      160.8       23.3       23.9       12.9     1018.0       24.9       23.3        0.0        0.0        0.0       0.00        0.0       0.00       0.14       60.2
1:40              248        0.0         52       23.3      160.8       23.3       23.8       12.9     1018.1       24.9       23.3        0.0        0.0        0.0       0.00        0.0       0.00       0.14       60.2
1:42              248        0.0         53       23.3      160.8       23.3       23.9       13.2     1017.9       24.9       23.3        0.0        0.0        0.0       0.00        0.0       0.00       0.14       60.2
1:44              248        0.0         53       23.3      160.8       23.3       23.9       13.2     1018.0       24.9       23.3        0.0        0.0        0.0       0.00        0.0       0.00       0.14       60.2
1:46              248        0.0         53       23.2      160.8       23.2       23.8       13.1     1017.9       24.9       23.2        0.0        0.0        0.0       0.00        0.0       0.00       0.16       60.2
1:48              248        0.0         53       23.2      160.8       23.2       23.8       13.1     1018.1       24.9       23.2        0.0        0.0        0.0       0.00        0.0       0.00       0.16       60.2
1:50              248        0.0         53       23.2      160.8       23.2       23.8       13.1     1017.9       24.9       23.2        0.0        0.0        0.0       0.00        0.0       0.00       0.16       60.2
1:52              248        0.0         53       23.2      160.8       23.2       23.8       13.1     1018.0       24.9       23.2        0.0        0.0        0.0       0.00        0.0       0.00       0.16       60.2
1:54              248        0.0         53       23.1      160.8       23.1       23.7       13.0     1018.0       24.9       23.1        0.0        0.0        0.0       0.00        0.0       0.00       0.16       60.2
1:56              248        0.0         53       23.1      160.8       23.1       23.7       13.0     1018.0       24.9       23.1        0.0        0.0        0.0       0.00        0.0       0.00       0.16       60.2
1:58              248        0.0         53       23.1      160.8       23.1       23.7       13.0     1018.0       24.9       23.1        0.0        0.0        0.0       0.00        0.0       0.00       0.16       60.2
2:00              248        0.0         53       23.1      160.8       23.1       23.7       13.0     1018.0       24.9       23.1        0.0        0.0        0.0       0.00        0.0       0.00       0.16       60.2
2:02              248        0.0         53       23.0      160.8       23.0       23.6       12.9     1018.0       24.9       23.0        0.0        0.0        0.0       0.00        0.0       0.00       0.17       60.2
2:04              248        0.0         53       23.0      160.8       23.0       23.6       12.9     1018.0       24.9       23.0        0.0        0.0        0.0       0.00        0.0       0.00       0.17       60.2
2:06              248        0.0         53       22.9      160.8       22.9       23.6       12.9     1018.0       24.9       22.9        0.0        0.0        0.0       0.00        0.0       0.00       0.17       60.2
2:08              248        0.0         54       22.9      160.8       22.9       23.6       13.1     1017.9       24.9       22.9        0.0        0.0        0.0       0.00        0.0       0.00       0.17       60.2
2:10              248        0.0         54       22.9      160.8       22.9       23.5       13.1     1017.9       24.9       22.9        0.0        0.0        0.0       0.00        0.0       0.00       0.17       60.2
2:12              248        0.0         54       22.9      160.8       22.9       23.5       13.1     1018.0       24.9       22.9        0.0        0.0        0.0       0.00        0.0       0.00       0.17       60.2
2:14              248        0.0         55       22.9      160.8       22.9       23.6       13.4     1017.9       24.9       22.9        0.0        0.0        0.0       0.00        0.0       0.00       0.17       60.2
2:16              248        0.0         55       22.9      160.8       22.9       23.6       13.4     1018.0       24.9       22.9        0.0        0.0        0.0       0.00        0.0       0.00       0.18       60.2
2:18              248        0.0         55       22.9      160.8       22.9       23.6       13.4     1017.9       24.9       22.9        0.0        0.0        0.0       0.00        0.0       0.00       0.18       60.2
2:20              263        0.0         54       22.9      160.8       22.9       23.6       13.1     1017.9       24.9       22.9        0.0        0.0        0.0       0.00        0.0       0.00       0.18       60.2
2:22              267        0.0         55       23.0      160.8       23.0       23.7       13.5     1018.0       24.9       22.9        0.0        0.0        0.0       0.00        0.0       0.00       0.18       60.2
2:24              267        0.0         55       23.1      160.8       23.1       23.8       13.5     1018.0       24.9       22.9        0.0        0.0        0.0       0.00        0.0       0.00       0.18       60.2
2:26              268        0.0         55       23.1      160.8       23.1       23.8       13.6     1017.9       24.9       22.9        0.0        0.0        0.0       0.00        0.0       0.00       0.18       60.2
2:28              268        0.0         54       23.2      160.8       23.2       23.8       13.4     1017.9       24.9       22.9        0.0        0.0        0.0       0.00        0.0       0.00       0.18       60.2
2:30              268        0.0         54       23.2      160.8       23.2       23.8       13.4     1017.9       24.9       22.9        0.0        0.0        0.0       0.00        0.0       0.00       0.18       60.2
2:32              271        0.0         54       23.2      160.8       23.2       23.9       13.4     1017.9       24.9       22.9        0.0        0.0        0.0       0.00        0.0       0.00       0.19       60.2
2:34              271        0.0         54       23.2      160.8       23.2       23.9       13.4     1017.9       24.9       22.9        0.0        0.0        0.0       0.00        0.0       0.00       0.19       60.2
2:36              271        0.0         54       23.2      160.8       23.2       23.9       13.4     1017.9       24.9       22.9        0.0        0.0        0.0       0.00        0.0       0.00       0.19       60.2
2:38              273        0.0         54       23.2      160.8       23.2       23.8       13.4     1017.9       24.9       22.9        0.0        0.0        0.0       0.00        0.0       0.00       0.19       60.2
2:40              273        0.0         54       23.2      160.8       23.2       23.8       13.4     1017.9       24.9       22.9        0.0        0.0        0.0       0.00        0.0       0.00       0.19       60.2
2:42              275        0.0         54       23.2      160.8       23.2       23.8       13.4     1017.9       24.9       22.9        0.0        0.0        0.0       0.00        0.0       0.00       0.19       60.2
2:44              277        0.0         54       23.2      160.8       23.2       23.8       13.4     1017.9       24.9       22.9        0.0        0.0        0.0       0.00        0.0       0.00       0.19       60.2
2:46              277        0.0         54       23.2      160.8       23.2       23.8       13.4     1017.9       24.9       22.9        0.0        0.0        0.0       0.00        0.0       0.00       0.20       60.2
2:47              278        0.0         54       23.2      160.8       23.2       23.8       13.4     1017.8       24.9       22.9        0.0        0.0        0.0       0.00        0.0       0.00       0.20       60.2
2:49              278        0.0         54       23.2      160.8       23.2       23.8       13.4     1017.8       24.9       22.9        0.0        0.0        0.0       0.00        0.0       0.00       0.20       60.2
2:52              281        0.0         54       23.1      160.8       23.1       23.8       13.3     1017.9       24.9       22.9        0.0        0.0        0.0       0.00        0.0       0.00       0.20       60.2
2:54              293        0.0         54       23.1      160.8       23.1       23.7       13.3     1017.9       24.9       22.9        0.0        0.0        0.0       0.00        0.0       0.00       0.20       60.2
2:56              294        0.0         54       23.0      160.8       23.0       23.7       13.2     1017.9       24.9       22.9        0.0        0.0        0.0       0.00        0.0       0.00       0.20       60.2
2:58              344        0.0         54       23.0      160.8       23.0       23.7       13.2     1017.9       24.9       22.9        0.0        0.0        0.0       0.00        0.0       0.00       0.20       60.2
3:00               15        0.0         54       22.9      160.8       22.9       23.6       13.1     1017.8       24.9       22.9        0.0        0.0        0.0       0.00        0.0       0.00       0.20       60.2
3:02               17        0.0         54       22.9      160.8       22.9       23.5       13.1     1017.9       24.9       22.9        0.0        0.0        0.0       0.00        0.0       0.00       0.21       60.2
3:04               17        0.0         55       22.8      160.8       22.8       23.5       13.3     1017.9       24.9       22.8        0.0        0.0        0.0       0.00        0.0       0.00       0.21       60.2
3:06               16        0.0         55       22.8      160.8       22.8       23.5       13.3     1017.9       24.9       22.8        0.0        0.0        0.0       0.00        0.0       0.00       0.21       60.2
3:07               17        0.0         55       22.8      160.8       22.8       23.5       13.3     1018.0       24.9       22.8        0.0        0.0        0.0       0.00        0.0       0.00       0.21       60.2
3:10               17        0.0         55       22.7      160.8       22.7       23.4       13.2     1017.9       24.9       22.7        0.0        0.0        0.0       0.00        0.0       0.00       0.21       60.2
3:11               19        0.0         55       22.7      160.8       22.7       23.4       13.2     1017.9       24.9       22.7        0.0        0.0        0.0       0.00        0.0       0.00       0.21       60.2
3:14               17        0.0         55       22.7      160.8       22.7       23.4       13.2     1017.9       24.9       22.7        0.0        0.0        0.0       0.00        0.0       0.00       0.21       60.2
3:16                5        0.0         55       22.6      160.8       22.6       23.3       13.1     1017.9       24.9       22.6        0.0        0.0        0.0       0.00        0.0       0.00       0.22       60.2
3:18                5        0.0         56       22.5      160.8       22.5       23.3       13.3     1017.9       24.9       22.5        0.0        0.0        0.0       0.00        0.0       0.00       0.22       60.2
3:20               29        0.0         56       22.4      160.8       22.4       23.2       13.2     1017.9       24.9       22.4        0.0        0.0        0.0       0.00        0.0       0.00       0.22       60.2
3:21                5        0.0         56       22.4      160.8       22.4       23.2       13.2     1017.9       24.9       22.4        0.0        0.0        0.0       0.00        0.0       0.00       0.22       60.2
3:24               15        0.0         56       22.4      160.8       22.4       23.2       13.2     1017.9       24.9       22.4        0.0        0.0        0.0       0.00        0.0       0.00       0.22       60.2
3:26               14        0.0         56       22.4      160.8       22.4       23.2       13.2     1017.8       24.9       22.4        0.0        0.0        0.0       0.00        0.0       0.00       0.22       60.2
3:27               20        0.0         57       22.3      160.8       22.3       23.2       13.4     1017.9       24.9       22.3        0.0        0.0        0.0       0.00        0.0       0.00       0.22       60.2
3:30               14        0.0         57       22.3      160.8       22.3       23.2       13.4     1017.9       24.9       22.3        0.0        0.0        0.0       0.00        0.0       0.00       0.22       60.2
3:32               15        0.0         57       22.3      160.8       22.3       23.1       13.4     1017.9       24.9       22.3        0.0        0.0        0.0       0.00        0.0       0.00       0.22       60.2
3:33              351        0.0         57       22.3      160.8       22.3       23.1       13.4     1017.9       24.9       22.3        0.0        0.0        0.0       0.00        0.0       0.00       0.22       60.2
3:35              355        0.0         57       22.2      160.8       22.2       23.1       13.3     1017.9       24.9       22.2        0.0        0.0        0.0       0.00        0.0       0.00       0.22       60.2
3:38               29        0.0         57       22.2      160.8       22.2       23.0       13.3     1017.9       24.9       22.2        0.0        0.0        0.0       0.00        0.0       0.00       0.22       60.2
3:39               19        0.0         57       22.1      160.8       22.1       22.9       13.2     1017.9       24.9       22.1        0.0        0.0        0.0       0.00        0.0       0.00       0.22       60.2
3:42              346        0.0         57       22.1      160.8       22.1       22.9       13.2     1017.9       24.9       22.1        0.0        0.0        0.0       0.00        0.0       0.00       0.22       60.2
3:44                9        0.0         58       22.0      160.8       22.0       22.9       13.4     1017.9       24.9       22.0        0.0        0.0        0.0       0.00        0.0       0.00       0.22       60.2
3:46               15        0.0         58       21.9      160.8       21.9       22.8       13.3     1017.9       24.9       21.9        0.0        0.0        0.0       0.00        0.0       0.00       0.22       60.2
3:48              355        0.0         59       21.9      160.8       21.9       22.8       13.5     1017.9       24.9       21.9        0.0        0.0        0.0       0.00        0.0       0.00       0.22       60.2
3:49              360        0.0         59       21.8      160.8       21.8       22.8       13.5     1017.9       24.9       21.8        0.0        0.0        0.0       0.00        0.0       0.00       0.22       60.2
3:52              360        0.0         59       21.8      160.8       21.8       22.7       13.4     1018.0       24.9       21.8        0.0        0.0        0.0       0.00        0.0       0.00       0.22       60.2
3:54                5        0.0         59       21.7      160.8       21.7       22.7       13.4     1018.0       24.9       21.7        0.0        0.0        0.0       0.00        0.0       0.00       0.22       60.2
3:55                5        0.0         59       21.7      160.8       21.7       22.7       13.4     1018.0       24.9       21.7        0.0        0.0        0.0       0.00        0.0       0.00       0.22       60.2
3:58                5        0.0         60       21.7      160.8       21.7       22.7       13.6     1017.9       24.9       21.7        0.0        0.0        0.0       0.00        0.0       0.00       0.22       60.2
4:00                5        0.0         60       21.6      160.8       21.6       22.6       13.5     1018.0       24.9       21.6        0.0        0.0        0.0       0.00        0.0       0.00       0.22       60.2
4:02               13        0.0         60       21.6      160.8       21.6       22.6       13.5     1017.9       24.9       21.6        0.0        0.0        0.0       0.00        0.0       0.00       0.22       60.2
4:04               15        0.0         60       21.6      160.8       21.6       22.6       13.5     1017.9       24.9       21.6        0.0        0.0        0.0       0.00        0.0       0.00       0.22       60.2
4:06               15        0.0         60       21.6      160.8       21.6       22.6       13.5     1018.0       24.9       21.6        0.0        0.0        0.0       0.00        0.0       0.00       0.22       60.2
4:08               20        0.0         60       21.6      160.8       21.6       22.6       13.5     1017.9       24.9       21.6        0.0        0.0        0.0       0.00        0.0       0.00       0.22       60.2
4:10              350        0.0         61       21.6      160.8       21.6       22.6       13.7     1017.9       24.9       21.6        0.0        0.0        0.0       0.00        0.0       0.00       0.22       60.2
4:12              350        0.0         61       21.6      160.8       21.6       22.7       13.8     1017.9       24.9       21.6        0.0        0.0        0.0       0.00        0.0       0.00       0.22       60.2
4:14              355        0.0         61       21.6      160.8       21.6       22.6       13.7     1017.9       24.9       21.6        0.0        0.0        0.0       0.00        0.0       0.00       0.22       60.2
4:16              355        0.0         61       21.6      160.8       21.6       22.6       13.7     1017.9       24.9       21.6        0.0        0.0        0.0       0.00        0.0       0.00       0.22       60.2
4:18               12        0.0         61       21.6      160.8       21.6       22.6       13.7     1017.9       24.9       21.6        0.0        0.0        0.0       0.00        0.0       0.00       0.22       60.2
4:20               16        0.0         61       21.5      160.8       21.5       22.6       13.7     1018.0       24.9       21.5        0.0        0.0        0.0       0.00        0.0       0.00       0.22       60.2
4:22               11        0.0         62       21.5      160.8       21.5       22.6       13.9     1017.9       24.9       21.5        0.0        0.0        0.0       0.00        0.0       0.00       0.22       60.2
4:23               27        0.0         62       21.5      160.8       21.5       22.6       13.9     1017.9       24.9       21.5        0.0        0.0        0.0       0.00        0.0       0.00       0.22       60.2
4:25              328        0.0         62       21.5      160.8       21.5       22.6       13.9     1017.8       24.9       21.5        0.0        0.0        0.0       0.00        0.0       0.00       0.22       60.2
4:28              331        0.0         62       21.4      160.8       21.4       22.6       13.9     1017.8       24.9       21.4        0.0        0.0        0.0       0.00        0.0       0.00       0.22       60.2
4:30              331        0.0         62       21.4      160.8       21.4       22.6       13.9     1017.8       24.9       21.4        0.0        0.0        0.0       0.00        0.0       0.00       0.22       60.2
4:31              331        0.0         63       21.4      160.8       21.4       22.6       14.1     1017.9       24.9       21.4        0.0        0.0        0.0       0.00        0.0       0.00       0.22       60.2
4:34              331        0.0         63       21.4      160.8       21.4       22.6       14.1     1017.8       24.9       21.4        0.0        0.0        0.0       0.00        0.0       0.00       0.22       60.2
4:36              331        0.0         63       21.4      160.8       21.4       22.6       14.1     1017.8       24.9       21.4        0.0        0.0        0.0       0.00        0.0       0.00       0.22       60.2
4:38              331        0.0         63       21.4      160.8       21.4       22.6       14.1     1017.8       24.9       21.4        0.0        0.0        0.0       0.00        0.0       0.00       0.22       60.2
4:40              331        0.0         63       21.4      160.8       21.4       22.6       14.1     1017.9       24.9       21.4        0.0        0.0        0.0       0.00        0.0       0.00       0.22       60.2
4:42              331        0.0         63       21.4      160.8       21.4       22.6       14.1     1017.9       24.9       21.4        0.0        0.0        0.0       0.00        0.0       0.00       0.22       60.2
4:43              331        0.0         64       21.4      160.8       21.4       22.7       14.4     1017.9       24.9       21.4        0.0        0.0        0.0       0.00        0.0       0.00       0.22       60.2
4:46              331        0.0         63       21.4      160.8       21.4       22.6       14.1     1017.9       24.9       21.4        0.0        0.0        0.0       0.00        0.0       0.00       0.22       60.2
4:48              331        0.0         64       21.4      160.8       21.4       22.7       14.4     1017.9       24.9       21.4        0.0        0.0        0.0       0.00        0.0       0.00       0.22       60.2
4:50              331        0.0         64       21.4      160.8       21.4       22.7       14.4     1017.9       24.9       21.4        0.0        0.0        0.0       0.00        0.0       0.00       0.22       60.2
4:52              331        0.0         64       21.4      160.8       21.4       22.6       14.3     1018.0       24.9       21.4        0.0        0.0        0.0       0.00        0.0       0.00       0.22       60.2
4:54              331        0.0         64       21.4      160.8       21.4       22.6       14.3     1017.9       24.9       21.4        0.0        0.0        0.0       0.00        0.0       0.00       0.22       60.2
4:55              333        0.0         64       21.4      160.8       21.4       22.6       14.3     1018.0       24.9       21.4        0.0        0.0        0.0       0.00        0.0       0.00       0.22       60.2
4:58              333        0.0         64       21.4      160.8       21.4       22.6       14.3     1018.0       24.9       21.4        0.0        0.0        0.0       0.00        0.0       0.00       0.22       60.2
5:00              333        0.0         64       21.3      160.8       21.3       22.6       14.3     1018.0       24.9       21.3        0.0        0.0        0.0       0.00        0.0       0.00       0.22       60.2
5:02              333        0.0         64       21.3      160.8       21.3       22.6       14.3     1017.9       24.9       21.3        0.0        0.0        0.0       0.00        0.0       0.00       0.22       60.2
5:04              333        0.0         64       21.3      160.8       21.3       22.6       14.3     1018.0       24.9       21.3        0.0        0.0        0.0       0.00        0.0       0.00       0.22       60.2
5:06              333        0.0         65       21.3      160.8       21.3       22.6       14.4     1018.0       24.9       21.3        0.0        0.0        0.0       0.00        0.0       0.00       0.22       60.2
5:08              338        0.0         65       21.2      160.8       21.2       22.5       14.4     1017.9       24.9       21.2        0.0        0.0        0.0       0.00        0.0       0.00       0.22       60.2
5:10              338        0.0         65       21.2      160.8       21.2       22.5       14.4     1018.0       24.9       21.2        0.0        0.0        0.0       0.00        0.0       0.00       0.22       60.2
5:11              338        0.0         65       21.2      160.8       21.2       22.5       14.4     1018.0       24.9       21.2        0.0        0.0        0.0       0.00        0.0       0.00       0.22       60.2
5:14              338        0.0         65       21.2      160.8       21.2       22.5       14.4     1017.9       24.9       21.2        0.0        0.0        0.0       0.00        0.0       0.00       0.22       60.2
5:16              338        0.0         65       21.2      160.8       21.2       22.5       14.4     1018.1       24.9       21.2        0.0        0.0        0.0       0.00        0.0       0.00       0.22       60.2
5:18              338        0.0         65       21.2      160.8       21.2       22.5       14.4     1018.0       24.9       21.2        0.0        0.0        0.0       0.00        0.0       0.00       0.22       60.2
5:20              338        0.0         66       21.2      160.8       21.2       22.6       14.6     1018.1       24.9       21.2        0.0        0.0        0.0       0.00        0.0       0.00       0.22       60.2
5:21              338        0.0         66       21.2      160.8       21.2       22.6       14.6     1018.0       24.9       21.2        0.0        0.0        0.0       0.00        0.0       0.00       0.22       60.2
5:24              339        0.0         66       21.2      160.8       21.2       22.6       14.6     1018.0       24.9       21.2        0.0        0.0        0.0       0.00        0.0       0.00       0.22       60.2
5:26              340        0.0         66       21.2      160.8       21.2       22.6       14.6     1018.0       24.9       21.2        0.0        0.0        0.0       0.00        0.0       0.00       0.22       60.2
5:28              340        0.0         66       21.2      160.8       21.2       22.6       14.6     1018.1       24.9       21.2        0.0        0.0        0.0       0.00        0.0       0.00       0.22       60.2
5:30              340        0.0         66       21.2      160.8       21.2       22.6       14.6     1018.0       24.9       21.2        0.0        0.0        0.0       0.00        0.0       0.00       0.22       60.2
5:32                9        0.0         66       21.2      160.8       21.2       22.6       14.6     1018.1       24.9       21.2        0.0        0.0        0.0       0.00        0.0       0.00       0.22       60.2
5:33               33        0.0         66       21.2      160.8       21.2       22.5       14.6     1018.1       24.9       21.2        0.0        0.0        0.0       0.00        0.0       0.00       0.22       60.2
5:36               16        0.0         66       21.2      160.8       21.2       22.5       14.6     1018.1       24.9       21.2        0.0        0.0        0.0       0.00        0.0       0.00       0.22       60.2
5:38               30        0.0         66       21.1      160.8       21.1       22.5       14.5     1018.2       24.9       21.1        0.0        0.0        0.0       0.00        0.0       0.00       0.22       60.2
5:40               19        0.0         66       21.1      160.8       21.1       22.5       14.5     1018.1       24.9       21.1        0.0        0.0        0.0       0.00        0.0       0.00       0.22       60.2
5:42               17        0.0         66       21.1      160.8       21.1       22.5       14.5     1018.1       24.9       21.1        0.0        0.0        0.0       0.00        0.0       0.00       0.22       60.2
5:44               22        0.0         66       21.1      160.8       21.1       22.5       14.5     1018.1       24.9       21.1        0.0        0.0        0.0       0.00        0.0       0.00       0.22       60.2
5:45               14        0.0         66       21.1      160.8       21.1       22.5       14.5     1018.1       24.9       21.1        0.0        0.0        0.0       0.00        0.0       0.00       0.22       60.2
5:48               14        0.0         67       21.1      160.8       21.1       22.6       14.8     1018.1       24.9       21.1        0.0        0.0        0.0       0.00        0.0       0.00       0.22       60.2
5:50               14        0.0         67       21.1      160.8       21.1       22.5       14.7     1018.1       24.9       21.1        0.0        0.0        0.0       0.00        0.0       0.00       0.22       60.2
5:52               17        0.0         67       21.1      160.8       21.1       22.5       14.7     1018.1       24.9       21.1        0.0        0.0        0.0       0.00        0.0       0.00       0.22       60.2
5:53               19        0.0         67       21.1      160.8       21.1       22.5       14.7     1018.1       24.9       21.1        0.0        0.0        0.0       0.00        0.0       0.00       0.22       60.2
5:56               30        0.0         67       21.1      160.8       21.1       22.5       14.7     1018.1       24.9       21.1        0.0        0.0        0.0       0.00        0.0       0.00       0.22       60.2
5:58               22        0.0         67       21.1      160.8       21.1       22.5       14.7     1018.1       24.9       21.1        0.0        0.0        0.0       0.00        0.0       0.00       0.22       60.2
6:00               15        0.0         67       21.1      160.8       21.1       22.5       14.7     1018.1       24.9       21.1        0.0        0.0        0.0       0.00        0.0       0.00       0.22       60.2
6:02               25        0.0         67       21.1      160.8       21.1       22.6       14.8     1018.2       24.9       21.1        0.0        0.0        0.0       0.00        0.0       0.00       0.22       60.2
6:04               26        0.0         67       21.1      160.8       21.1       22.6       14.8     1018.1       24.9       21.1        0.0        0.0        0.0       0.00        0.0       0.00       0.22       60.2
6:06               26        0.0         67       21.1      160.8       21.1       22.6       14.8     1018.1       24.9       21.1        0.0        0.0        0.0       0.00        0.0       0.00       0.22       60.2
6:07               19        0.0         67       21.1      160.8       21.1       22.6       14.8     1018.3       24.9       21.1        0.0        0.0        0.0       0.00        0.0       0.00       0.22       60.2
6:10               19        0.0         67       21.1      160.8       21.1       22.6       14.8     1018.3       24.9       21.1        0.0        0.0        0.0       0.00        0.0       0.00       0.22       60.2
6:12               19        0.0         67       21.1      160.8       21.1       22.6       14.8     1018.2       24.9       21.1        0.0        0.0        0.0       0.00        0.0       0.00       0.22       60.2
6:14               19        0.0         67       21.1      160.8       21.1       22.5       14.7     1018.2       24.9       21.1        0.0        0.0        0.0       0.00        0.0       0.00       0.22       60.2
6:15               19        0.0         67       21.1      160.8       21.1       22.5       14.7     1018.3       24.9       21.1        0.0        0.0        0.0       0.00        0.0       0.00       0.22       60.2
6:17               17        0.0         67       21.0      160.8       21.0       22.4       14.6     1018.3       24.9       21.0        0.0        0.0        0.0       0.00        0.0       0.00       0.22       60.2
6:20               17        0.0         67       21.0      160.8       21.0       22.4       14.6     1018.3       24.9       21.0        0.0        0.0        0.0       0.00        0.0       0.00       0.22       60.2
6:22               17        0.0         67       20.9      160.8       20.9       22.4       14.6     1018.4       24.9       20.9        0.0        0.0        0.0       0.00        0.0       0.00       0.22       60.2
6:23               17        0.0         67       20.9      160.8       20.9       22.3       14.5     1018.4       24.9       20.9        0.0        0.0        0.0       0.00        0.0       0.00       0.22       60.2
6:25               16        0.0         67       20.9      160.8       20.9       22.3       14.5     1018.4       24.9       20.9        0.0        0.0        0.0       0.00        0.0       0.00       0.22       60.2
6:28               16        0.0         68       20.8      160.8       20.8       22.3       14.7     1018.4       24.9       20.8        0.0        0.0        0.0       0.00        0.0       0.00       0.22       60.2
6:30               17        0.0         68       20.8      160.8       20.8       22.3       14.7     1018.5       24.9       20.8        0.0        0.0        0.0       0.00        0.0       0.00       0.22       60.2
6:31               17        0.0         68       20.8      160.8       20.8       22.3       14.7     1018.5       24.9       20.8        0.0        0.0        0.0       0.00        0.0       0.00       0.22       60.2
6:34               19        0.0         68       20.8      160.8       20.8       22.3       14.7     1018.5       24.9       20.8        0.0        0.0        0.0       0.00        0.0       0.00       0.22       60.2
6:36               18        0.0         68       20.8      160.8       20.8       22.3       14.7     1018.4       24.9       20.8        0.0        0.0        0.0       0.00        0.0       0.00       0.22       60.2
6:38               10        0.0         68       20.8      160.8       20.8       22.3       14.7     1018.5       24.9       20.8        0.0        0.0        0.0       0.00        0.0       0.00       0.22       60.2
6:40               11        0.0         68       20.8      160.8       20.8       22.3       14.7     1018.7       24.9       20.8        0.0        0.0        0.0       0.00        0.0       0.00       0.22       60.2
6:42               25        0.0         69       20.8      160.8       20.8       22.4       14.9     1018.6       24.9       20.8        0.0        0.0        0.0       0.00        0.0       0.00       0.22       60.2
6:44               27        0.0         69       20.8      160.8       20.8       22.4       14.9     1018.7       24.9       20.8        0.0        0.0        0.0       0.00        0.0       0.00       0.22       60.2
6:46               28        0.0         69       20.8      160.8       20.8       22.4       14.9     1018.8       24.9       20.8        0.0        0.0        0.0       0.00        0.0       0.00       0.22       60.2
6:48               27        0.0         69       20.8      160.8       20.8       22.4       14.9     1018.7       24.9       20.8        0.0        0.0        0.0       0.00        0.0       0.00       0.22       60.2
6:50               26        0.0         69       20.8      160.8       20.8       22.4       14.9     1018.7       24.9       20.8        0.0        0.0        0.0       0.00        0.0       0.00       0.22       60.2
6:52               24        0.0         69       20.8      160.8       20.8       22.4       14.9     1018.8       24.9       20.8        0.0        0.0        0.0       0.00        0.0       0.00       0.22       60.2
6:54               23        0.0         69       20.8      160.8       20.8       22.4       14.9     1018.8       24.9       20.8        0.0        0.0        0.0       0.00        0.0       0.00       0.22       60.2
6:55               17        0.0         70       20.8      160.8       20.8       22.4       15.1     1018.8       24.9       20.8        0.0        0.0        0.0       0.00        0.0       0.00       0.22       60.2
6:58               17        0.0         70       20.7      160.8       20.7       22.4       15.1     1018.8       24.9       20.7        0.0        0.0        0.0       0.00        0.0       0.00       0.22       60.2
7:00               13        0.0         70       20.7      160.8       20.7       22.4       15.1     1018.8       24.9       20.7        0.0        0.0        0.0       0.00        0.0       0.00       0.22       60.2
7:02               17        0.0         70       20.7      160.8       20.7       22.4       15.1     1018.9       24.9       20.7        0.0        0.0        0.0       0.00        0.0       0.00       0.22       60.2
7:04               15        0.0         70       20.7      160.8       20.7       22.4       15.1     1018.8       24.9       20.7        0.0        0.0        0.0       0.00        0.0       0.00       0.22       60.2
7:06               18        0.0         70       20.7      160.8       20.7       22.4       15.1     1018.8       24.9       20.7        0.0        0.0        0.0       0.00        0.0       0.00       0.22       60.2
7:07               15        0.0         70       20.8      160.8       20.8       22.4       15.1     1018.9       24.9       20.7        0.0        0.0        0.0       0.00        0.0       0.00       0.22       60.2
7:09               11        0.0         70       20.8      160.8       20.8       22.4       15.1     1018.9       24.9       20.7        0.0        0.0        0.0       0.00        0.0       0.00       0.22       60.2
7:12               11        0.0         70       20.8      160.8       20.8       22.5       15.2     1018.9       24.9       20.7        0.0        0.0        0.0       0.00        0.0       0.00       0.22       60.2
7:14               13        0.0         70       20.9      160.8       20.9       22.5       15.2     1018.9       24.9       20.7        0.0        0.0        0.0       0.00        0.0       0.00       0.22       60.2
7:15               18        0.0         70       20.9      160.8       20.9       22.6       15.3     1019.0       24.9       20.7        0.0        0.0        0.0       0.00        0.0       0.00       0.22       60.2
7:18               15        0.0         69       21.0      160.8       21.0       22.6       15.1     1018.9       24.9       20.7        0.0        0.0        0.0       0.00        0.0       0.00       0.22       60.2
7:20               15        0.0         69       21.1      160.8       21.1       22.6       15.2     1018.9       24.9       20.7        0.0        0.0        0.0       0.00        0.0       0.00       0.22       60.2
7:22               20        0.0         69       21.1      160.8       21.1       22.7       15.2     1018.9       24.9       20.7        0.0        0.0        0.0       0.00        0.0       0.00       0.22       60.2
7:23               15        0.0         69       21.2      160.8       21.2       22.7       15.3     1019.0       24.9       20.7        0.0        0.0        0.0       0.00        0.0       0.00       0.22       60.2
7:26               25        0.0         69       21.2      160.8       21.2       22.7       15.3     1019.0       24.9       20.7        0.0        0.0        0.0       0.00        0.0       0.00       0.22       60.2
7:28                9        0.0         69       21.2      160.8       21.2       22.7       15.3     1019.1       24.9       20.7        0.0        0.0        0.0       0.00        0.0       0.00       0.22       60.2
7:30               12        0.0         68       21.2      160.8       21.2       22.7       15.0     1019.0       24.9       20.7        0.0        0.0        0.0       0.00        0.0       0.00       0.22       60.2
7:32                5        0.0         68       21.2      160.8       21.2       22.7       15.0     1019.1       24.9       20.7        0.0        0.0        0.0       0.00        0.0       0.00       0.22       60.2
7:34               15        0.0         68       21.2      160.8       21.2       22.7       15.0     1019.1       24.9       20.7        0.0        0.0        0.0       0.00        0.0       0.00       0.22       60.2
7:36               17        0.0         68       21.1      160.8       21.1       22.6       15.0     1019.1       24.9       20.7        0.0        0.0        0.0       0.00        0.0       0.00       0.22       60.2
7:38               15        0.0         68       21.1      160.8       21.1       22.6       15.0     1019.1       24.9       20.7        0.0        0.0        0.0       0.00        0.0       0.00       0.22       60.2
7:40               29        0.0         68       21.1      160.8       21.1       22.6       15.0     1019.1       24.9       20.7        0.0        0.0        0.0       0.00        0.0       0.00       0.22       60.2
7:42              360        0.0         68       21.2      160.8       21.2       22.7       15.0     1019.0       24.9       20.7        0.0        0.0        0.0       0.00        0.0       0.00       0.22       60.2
7:44               40        0.0         69       21.2      160.8       21.2       22.7       15.3     1019.1       24.9       20.7        0.0        0.0        0.0       0.00        0.0       0.00       0.22       60.2
7:46              360        0.0         69       21.2      160.8       21.2       22.8       15.3     1019.1       24.9       20.7        0.0        0.0        0.0       0.00        0.0       0.00       0.22       60.2
7:48                5        0.0         69       21.2      160.8       21.2       22.8       15.3     1019.1       24.9       20.7        0.0        0.0        0.0       0.00        0.0       0.00       0.22       60.2
7:50               28        0.0         69       21.3      160.8       21.3       22.9       15.4     1019.2       24.9       20.7        0.0        0.0        0.0       0.00        0.0       0.00       0.22       60.2
7:52               24        0.0         68       21.3      160.8       21.3       22.8       15.2     1019.2       24.9       20.7        0.0        0.0        0.0       0.00        0.0       0.00       0.22       60.2
7:54               20        0.0         68       21.3      160.8       21.3       22.8       15.2     1019.2       24.9       20.7        0.0        0.0        0.0       0.00        0.0       0.00       0.22       60.2
7:56               19        0.0         68       21.4      160.8       21.4       22.9       15.2     1019.2       24.9       20.7        0.0        0.0        0.0       0.00        0.0       0.00       0.22       60.2
7:57               23        0.0         68       21.4      160.8       21.4       23.0       15.3     1019.2       24.9       20.7        0.0        0.0        0.0       0.00        0.0       0.00       0.22       60.2
8:00              360        0.0         68       21.5      160.8       21.5       23.0       15.4     1019.3       24.9       20.7        0.0        0.0        0.0       0.00        0.0       0.00       0.22       60.2
8:02               13        0.0         68       21.6      160.8       21.6       23.1       15.4     1019.3       24.9       20.7        0.0        0.0        0.0       0.00        0.0       0.00       0.22       60.2
8:03               36        0.0         68       21.6      160.8       21.6       23.1       15.5     1019.3       24.9       20.7        0.0        0.0        0.0       0.00        0.0       0.00       0.22       60.2
8:06               17        0.0         68       21.7      160.8       21.7       23.2       15.6     1019.3       24.9       20.7        0.0        0.0        0.0       0.00        0.0       0.00       0.22       60.2
8:08               28        0.0         68       21.8      160.8       21.8       23.3       15.6     1019.4       24.9       20.7        0.0        0.0        0.0       0.00        0.0       0.00       0.22       60.2
8:09               16        0.0         68       21.8      160.8       21.8       23.3       15.7     1019.3       24.9       20.7        0.0        0.0        0.0       0.00        0.0       0.00       0.22       60.2
8:12               18        0.0         68       21.9      160.8       21.9       23.5       15.8     1019.4       24.9       20.7        0.0        0.0        0.0       0.00        0.0       0.00       0.22       60.2
8:14               22        0.0         68       22.1      160.8       22.1       23.6       15.9     1019.4       24.9       20.7        0.0        0.0        0.0       0.00        0.0       0.00       0.22       60.2
8:15               38        0.0         67       22.2      160.8       22.2       23.6       15.8     1019.6       24.9       20.7        0.0        0.0        0.0       0.00        0.0       0.00       0.22       60.2
8:17               27        0.0         67       22.3      160.8       22.3       23.7       15.9     1019.5       24.9       20.7        0.0        0.0        0.0       0.00        0.0       0.00       0.22       60.2
8:20               19        0.0         67       22.4      160.8       22.4       23.8       16.0     1019.5       24.9       20.7        0.0        0.0        0.0       0.00        0.0       0.00       0.22       60.2
8:22               25        0.0         67       22.5      160.8       22.5       23.9       16.1     1019.5       24.9       20.7        0.0        0.0        0.0       0.00        0.0       0.00       0.22       60.2
8:23               11        0.0         66       22.6      160.8       22.6       24.0       15.9     1019.5       24.9       20.7        0.0        0.0        0.0       0.00        0.0       0.00       0.22       60.2
8:26               30        0.0         66       22.7      160.8       22.7       24.1       16.0     1019.6       24.9       20.7        0.0        0.0        0.0       0.00        0.0       0.00       0.22       60.2
8:28               26        0.0         66       22.8      160.8       22.8       24.2       16.2     1019.6       24.9       20.7        0.0        0.0        0.0       0.00        0.0       0.00       0.22       60.2
8:30               24        0.0         65       22.9      160.8       22.9       24.3       16.0     1019.7       24.9       20.7        0.0        0.0        0.0       0.00        0.0       0.00       0.22       60.2
8:32               29        0.0         65       23.1      160.8       23.1       24.4       16.1     1019.7       24.9       20.7        0.0        0.0        0.0       0.00        0.0       0.00       0.23       60.2
8:34               21        0.0         65       23.2      160.8       23.2       24.5       16.2     1019.8       24.9       20.7        0.0        0.0        0.0       0.00        0.0       0.00       0.23       60.2
8:36               24        0.0         64       23.3      160.8       23.3       24.5       16.1     1019.7       24.9       20.7        0.0        0.0        0.0       0.00        0.0       0.00       0.23       60.2
8:38               49        0.0         64       23.4      160.8       23.4       24.6       16.2     1019.7       24.9       20.7        0.0        0.0        0.0       0.00        0.0       0.00       0.23       60.2
8:40                5        0.0         64       23.5      160.8       23.5       24.8       16.3     1019.7       24.9       20.7        0.0        0.0        0.0       0.00        0.0       0.00       0.23       60.2
8:41               22        0.0         64       23.6      160.8       23.6       24.8       16.4     1019.8       24.9       20.7        0.0        0.0        0.0       0.00        0.0       0.00       0.23       60.2
8:44               38        0.0         63       23.7      160.8       23.7       24.9       16.3     1019.7       24.9       20.7        0.0        0.0        0.0       0.00        0.0       0.00       0.23       60.2
8:46               40        0.0         62       23.8      160.8       23.8       25.0       16.1     1019.7       24.9       20.7        0.0        0.0        0.0       0.00        0.0       0.00       0.25       60.2
8:47               49        0.0         62       23.9      160.8       23.9       25.1       16.2     1019.7       24.9       20.7        0.0        0.0        0.0       0.00        0.0       0.00       0.25       60.2
8:50               32        0.0         61       24.1      160.8       24.1       25.1       16.1     1019.8       24.9       20.7        0.0        0.0        0.0       0.00        0.0       0.00       0.25       60.2
8:52               42        0.0         61       24.2      160.8       24.2       25.3       16.2     1019.8       24.9       20.7        0.0        0.0        0.0       0.00        0.0       0.00       0.25       60.2
8:54               30        0.0         61       24.3      160.8       24.3       25.3       16.3     1019.7       24.9       20.7        0.0        0.0        0.0       0.00        0.0       0.00       0.25       60.2
8:56               36        0.0         60       24.4      160.8       24.4       25.4       16.1     1019.8       24.9       20.7        0.0        0.0        0.0       0.00        0.0       0.00       0.25       60.2
8:58               35        0.0         61       24.6      160.8       24.6       25.6       16.5     1019.8       24.9       20.7        0.0        0.0        0.0       0.00        0.0       0.00       0.25       60.2
9:00               45        0.0         60       24.6      160.8       24.6       25.6       16.3     1019.8       24.9       20.7        0.0        0.0        0.0       0.00        0.0       0.00       0.25       60.2
9:02               36        0.0         59       24.8      160.8       24.8       25.7       16.2     1019.8       24.9       20.7        0.0        0.0        0.0       0.00        0.0       0.00       0.28       60.2
9:03               24        0.0         58       24.9      160.8       24.9       25.8       16.1     1019.8       24.9       20.7        0.0        0.0        0.0       0.00        0.0       0.00       0.28       60.2
9:06               24        0.0         58       25.1      160.8       25.1       25.9       16.2     1019.8       25.1       20.7        0.0        0.0        0.0       0.00        0.0       0.00       0.28       60.2
9:08               24        0.0         58       25.1      160.8       25.1       26.0       16.3     1019.8       25.1       20.7        0.0        0.0        0.0       0.00        0.0       0.00       0.28       60.2
9:10               24        0.0         57       25.3      160.8       25.3       26.1       16.2     1019.8       25.3       20.7        0.0        0.0        0.0       0.00        0.0       0.00       0.28       60.2
9:11               25        0.0         57       25.4      160.8       25.4       26.2       16.3     1019.8       25.4       20.7        0.0        0.0        0.0       0.00        0.0       0.00       0.28       60.2
9:13               25        0.0         56       25.5      160.8       25.5       26.3       16.1     1019.8       25.5       20.7        0.0        0.0        0.0       0.00        0.0       0.00       0.28       60.2
9:16               26        0.0         56       25.6      160.8       25.6       26.4       16.2     1019.8       25.6       20.7        0.0        0.0        0.0       0.00        0.0       0.00       0.31       60.2
9:18               45        0.0         55       25.7      160.8       25.7       26.4       16.0     1019.9       25.7       20.7        0.0        0.0        0.0       0.00        0.0       0.00       0.31       60.2
9:19               61        0.0         55       25.9      160.8       25.9       26.6       16.2     1019.8       25.9       20.7        0.0        0.0        0.0       0.00        0.0       0.00       0.31       60.2
9:22               61        0.0         54       26.0      160.8       26.0       26.7       16.0     1019.9       26.0       20.7        0.0        0.0        0.0       0.00        0.0       0.00       0.31       60.2
9:23               64        0.0         54       26.2      160.8       26.2       26.8       16.1     1019.8       26.2       20.7        0.0        0.0        0.0       0.00        0.0       0.00       0.31       60.2
9:26               75        0.0         51       26.4      160.8       26.4       26.9       15.4     1019.8       26.4       20.7        0.0        0.0        0.0       0.00        0.0       0.00       0.31       60.2
9:28               67        0.0         50       26.5      160.8       26.5       26.9       15.2     1019.8       26.5       20.7        0.0        0.0        0.0       0.00        0.0       0.00       0.31       60.2
9:30               96        0.0         49       26.7      160.8       26.7       27.1       15.1     1019.9       26.7       20.7        0.0        0.0        0.0       0.00        0.0       0.00       0.31       60.2
9:31               87        0.0         49       26.9      160.8       26.9       27.3       15.3     1019.8       26.9       20.7        0.0        0.0        0.0       0.00        0.0       0.00       0.36       60.2
9:34               71        0.0         48       27.1      160.8       27.1       27.4       15.2     1019.8       27.1       20.7        0.0        0.0        0.0       0.00        0.0       0.00       0.36       60.2
9:35              105        0.0         47       27.3      160.8       27.3       27.5       15.0     1019.9       27.3       20.7        0.0        0.0        0.0       0.00        0.0       0.00       0.36       60.2
9:37               79        0.0         47       27.4      160.8       27.4       27.6       15.1     1019.9       27.4       20.7        0.0        0.0        0.0       0.00        0.0       0.00       0.36       60.2
9:39               88        0.0         47       27.6      160.8       27.6       27.7       15.2     1019.9       27.6       20.7        0.0        0.0        0.0       0.00        0.0       0.00       0.36       60.2
9:42               79        0.0         47       27.7      160.8       27.7       27.9       15.4     1019.9       27.7       20.7        0.0        0.0        0.0       0.00        0.0       0.00       0.36       60.2
9:43               76        0.0         46       27.9      160.8       27.9       28.0       15.2     1019.9       27.9       20.7        0.0        0.0        0.0       0.00        0.0       0.00       0.36       60.2
9:46               76        0.0         46       28.0      160.8       28.0       28.1       15.3     1019.9       28.0       20.7        0.0        0.0        0.0       0.00        0.0       0.00       0.43       60.2
9:48               64        0.0         45       28.1      160.8       28.1       28.1       15.1     1020.0       28.1       20.7        0.0        0.0        0.0       0.00        0.0       0.00       0.43       60.2
9:49               86        0.0         45       28.2      160.8       28.2       28.3       15.2     1019.9       28.2       20.7        0.0        0.0        0.0       0.00        0.0       0.00       0.43       60.2
9:52               55        0.0         44       28.2      160.8       28.2       28.2       14.8     1019.8       28.2       20.7        0.0        0.0        0.0       0.00        0.0       0.00       0.43       60.2
9:54               77        0.0         44       28.3      160.8       28.3       28.2       14.9     1019.9       28.3       20.7        0.0        0.0        0.0       0.00        0.0       0.00       0.43       60.2
9:56               59        0.0         44       28.3      160.8       28.3       28.3       14.9     1019.9       28.3       20.7        0.0        0.0        0.0       0.00        0.0       0.00       0.43       60.2
9:58               81        0.0         44       28.3      160.8       28.3       28.3       14.9     1020.0       28.3       20.7        0.0        0.0        0.0       0.00        0.0       0.00       0.43       60.2
10:00              49        0.0         44       28.4      160.8       28.4       28.4       15.0     1020.0       28.4       20.7        0.0        0.0        0.0       0.00        0.0       0.00       0.43       60.2
10:02              81        0.0         44       28.5      160.8       28.5       28.5       15.1     1019.9       28.5       20.7        0.0        0.0        0.0       0.00        0.0       0.00       0.49       60.2
10:04              72        0.0         43       28.6      160.8       28.6       28.5       14.8     1019.9       28.6       20.7        0.0        0.0        0.0       0.00        0.0       0.00       0.49       60.2
10:06              68        0.0         42       28.7      160.8       28.7       28.5       14.6     1020.0       28.7       20.7        0.0        0.0        0.0       0.00        0.0       0.00       0.49       60.2
10:07              66        0.0         42       28.8      160.8       28.8       28.6       14.6     1019.9       28.8       20.7        0.0        0.0        0.0       0.00        0.0       0.00       0.49       60.2
10:10              77        0.0         42       28.8      160.8       28.8       28.6       14.7     1019.7       28.8       20.7        0.0        0.0        0.0       0.00        0.0       0.00       0.49       60.2
10:12              74        0.0         42       28.9      160.8       28.9       28.7       14.8     1020.0       28.9       20.7        0.0        0.0        0.0       0.00        0.0       0.00       0.49       60.2
10:13             115        0.0         42       29.1      160.8       29.1       28.9       14.9     1019.9       29.1       20.7        0.0        0.0        0.0       0.00        0.0       0.00       0.49       60.2
10:16             104        0.0         41       29.2      160.8       29.2       28.9       14.6     1019.8       29.2       20.7        0.0        0.0        0.0       0.00        0.0       0.00       0.57       60.2
10:18              73        0.0         40       29.3      160.8       29.3       28.9       14.3     1019.7       29.3       20.7        0.0        0.0        0.0       0.00        0.0       0.00       0.57       60.2
10:20              86        0.0         40       29.4      160.8       29.4       29.0       14.4     1019.7       29.4       20.7        0.0        0.0        0.0       0.00        0.0       0.00       0.57       60.2
10:22              80        0.0         40       29.4      160.8       29.4       29.1       14.4     1019.7       29.4       20.7        0.0        0.0        0.0       0.00        0.0       0.00       0.57       60.2
10:24              71        0.0         38       29.5      160.8       29.5       28.9       13.7     1019.6       29.5       20.7        0.0        0.0        0.0       0.00        0.0       0.00       0.57       60.2
10:26              56        0.0         39       29.6      160.8       29.6       29.1       14.2     1019.6       29.6       20.7        0.0        0.0        0.0       0.00        0.0       0.00       0.57       60.2
10:27              56        0.0         37       29.6      160.8       29.6       29.0       13.4     1019.7       29.6       20.7        0.0        0.0        0.0       0.00        0.0       0.00       0.57       60.2
10:29              44        0.0         38       29.6      160.8       29.6       29.0       13.8     1019.5       29.6       20.7        0.0        0.0        0.0       0.00        0.0       0.00       0.57       60.2
10:32              47        0.0         38       29.7      160.8       29.7       29.1       13.9     1019.6       29.7       20.7        0.0        0.0        0.0       0.00        0.0       0.00       0.65       60.2
10:34              49        0.0         38       29.7      160.8       29.7       29.2       13.9     1019.5       29.7       20.7        0.0        0.0        0.0       0.00        0.0       0.00       0.65       60.2
10:36              69        0.0         38       29.8      160.8       29.8       29.2       13.9     1019.6       29.8       20.7        0.0        0.0        0.0       0.00        0.0       0.00       0.65       60.2
10:37              67        0.0         37       29.9      160.8       29.9       29.2       13.6     1019.5       29.9       20.7        0.0        0.0        0.0       0.00        0.0       0.00       0.65       60.2
10:40              57        0.0         37       30.0      160.8       30.0       29.4       13.7     1019.5       30.0       20.7        0.0        0.0        0.0       0.00        0.0       0.00       0.65       60.2
10:42              90        0.0         36       30.1      160.8       30.1       29.4       13.4     1019.6       30.1       20.7        0.0        0.0        0.0       0.00        0.0       0.00       0.65       60.2
10:43              69        0.0         36       30.2      160.8       30.2       29.4       13.5     1019.6       30.2       20.7        0.0        0.0        0.0       0.00        0.0       0.00       0.65       60.2
10:45              84        0.0         36       30.2      160.8       30.2       29.5       13.5     1019.6       30.2       20.7        0.0        0.0        0.0       0.00        0.0       0.00       0.73       60.2
10:48              91        0.0         36       30.3      160.8       30.3       29.6       13.6     1019.6       30.3       20.7        0.0        0.0        0.0       0.00        0.0       0.00       0.73       60.2
10:50              60        0.0         36       30.4      160.8       30.4       29.7       13.7     1019.6       30.4       20.7        0.0        0.0        0.0       0.00        0.0       0.00       0.73       60.2
10:52              55        0.0         36       30.5      160.8       30.5       29.8       13.8     1019.6       30.5       20.7        0.0        0.0        0.0       0.00        0.0       0.00       0.73       60.2
10:53              80        0.0         35       30.6      160.8       30.6       29.8       13.4     1019.6       30.6       20.7        0.0        0.0        0.0       0.00        0.0       0.00       0.73       60.2
10:56              86        0.0         36       30.7      160.8       30.7       30.1       14.0     1019.6       30.7       20.7        0.0        0.0        0.0       0.00        0.0       0.00       0.73       60.2
10:58              50        0.0         35       30.8      160.8       30.8       30.0       13.6     1019.6       30.8       20.7        0.0        0.0        0.0       0.00        0.0       0.00       0.73       60.2
11:00              70        0.0         35       30.9      160.8       30.9       30.1       13.7     1019.5       30.9       20.7        0.0        0.0        0.0       0.00        0.0       0.00       0.73       60.2
11:02              34        0.0         35       30.9      160.8       30.9       30.2       13.7     1019.5       30.9       20.7        0.0        0.0        0.0       0.00        0.0       0.00       0.82       60.2
11:04              72        0.0         35       31.0      160.8       31.0       30.3       13.8     1019.5       31.0       20.7        0.0        0.0        0.0       0.00        0.0       0.00       0.82       60.2
11:06              78        0.0         35       31.1      160.8       31.1       30.3       13.8     1019.6       31.1       20.7        0.0        0.0        0.0       0.00        0.0       0.00       0.82       60.2
11:08              90        0.0         35       31.1      160.8       31.1       30.4       13.9     1019.5       31.1       20.7        0.0        0.0        0.0       0.00        0.0       0.00       0.82       60.2
11:10              13        0.0         35       31.2      160.8       31.2       30.5       13.9     1019.5       31.2       20.7        0.0        0.0        0.0       0.00        0.0       0.00       0.82       60.2
11:12              47        0.0         35       31.2      160.8       31.2       30.5       13.9     1019.4       31.2       20.7        0.0        0.0        0.0       0.00        0.0       0.00       0.82       60.2
11:13              72        0.0         35       31.2      160.8       31.2       30.5       13.9     1019.5       31.2       20.7        0.0        0.0        0.0       0.00        0.0       0.00       0.82       60.2
11:15              63        0.0         35       31.2      160.8       31.2       30.5       14.0     1019.5       31.2       20.7        0.0        0.0        0.0       0.00        0.0       0.00       0.92       60.2
11:17              52        0.0         35       31.2      160.8       31.2       30.5       14.0     1019.4       31.2       20.7        0.0        0.0        0.0       0.00        0.0       0.00       0.92       60.2
11:20              39        0.0         35       31.3      160.8       31.3       30.6       14.0     1019.4       31.3       20.7        0.0        0.0        0.0       0.00        0.0       0.00       0.92       60.2
11:21              39        0.0         35       31.3      160.8       31.3       30.6       14.0     1019.3       31.3       20.7        0.0        0.0        0.0       0.00        0.0       0.00       0.92       60.2
11:23              38        0.0         35       31.3      160.8       31.3       30.6       14.1     1019.4       31.3       20.7        0.0        0.0        0.0       0.00        0.0       0.00       0.92       60.2
11:26              66        0.0         34       31.3      160.8       31.3       30.5       13.6     1019.3       31.3       20.7        0.0        0.0        0.0       0.00        0.0       0.00       0.92       60.2
11:27              61        0.0         34       31.4      160.8       31.4       30.6       13.7     1019.3       31.4       20.7        0.0        0.0        0.0       0.00        0.0       0.00       0.92       60.2
11:30              58        0.0         34       31.5      160.8       31.5       30.7       13.8     1019.3       31.5       20.7        0.0        0.0        0.0       0.00        0.0       0.00       0.92       60.2
11:32              78        0.0         34       31.6      160.8       31.6       30.8       13.8     1019.4       31.6       20.7        0.0        0.0        0.0       0.00        0.0       0.00       1.02       60.2
11:33             103        0.0         33       31.7      160.8       31.7       30.8       13.4     1019.3       31.7       20.7        0.0        0.0        0.0       0.00        0.0       0.00       1.02       60.2
11:35              94        0.0         34       31.8      160.8       31.8       31.1       14.0     1019.4       31.8       20.7        0.0        0.0        0.0       0.00        0.0       0.00       1.02       60.2
11:38              94        0.0         33       31.9      160.8       31.9       31.1       13.6     1019.3       31.9       20.7        0.0        0.0        0.0       0.00        0.0       0.00       1.02       60.2
11:40              73        0.0         33       32.0      160.8       32.0       31.2       13.7     1019.3       32.0       20.7        0.0        0.0        0.0       0.00        0.0       0.00       1.02       60.2
11:41              89        0.0         32       32.1      160.8       32.1       31.2       13.4     1019.3       32.1       20.7        0.0        0.0        0.0       0.00        0.0       0.00       1.02       60.2
11:44             105        0.0         32       32.2      160.8       32.2       31.3       13.5     1019.2       32.2       20.7        0.0        0.0        0.0       0.00        0.0       0.00       1.02       60.2
11:46             112        0.0         32       32.3      160.8       32.3       31.4       13.5     1019.2       32.3       20.7        0.0        0.0        0.0       0.00        0.0       0.00       1.12       60.2
11:48              63        0.0         32       32.4      160.8       32.4       31.5       13.6     1019.1       32.4       20.7        0.0        0.0        0.0       0.00        0.0       0.00       1.12       60.2
11:49              40        0.0         32       32.5      160.8       32.5       31.7       13.7     1019.1       32.5       20.7        0.0        0.0        0.0       0.00        0.0       0.00       1.12       60.2
11:52              40        0.0         31       32.5      160.8       32.5       31.5       13.2     1019.1       32.5       20.7        0.0        0.0        0.0       0.00        0.0       0.00       1.12       60.2
11:54              40        0.0         32       32.5      160.8       32.5       31.7       13.7     1019.1       32.5       20.7        0.0        0.0        0.0       0.00        0.0       0.00       1.12       60.2
11:56              10        0.0         31       32.4      160.8       32.4       31.5       13.2     1019.1       32.5       20.7        0.0        0.0        0.0       0.00        0.0       0.00       1.12       60.2
11:58              32        0.0         33       32.4      160.8       32.4       31.7       14.1     1019.0       32.5       20.7        0.0        0.0        0.0       0.00        0.0       0.00       1.12       60.2
12:00              47        0.0         32       32.4      160.8       32.4       31.6       13.6     1019.0       32.5       20.7        0.0        0.0        0.0       0.00        0.0       0.00       1.12       60.2
12:02              59        0.0         31       32.4      160.8       32.4       31.5       13.2     1018.9       32.5       20.7        0.0        0.0        0.0       0.00        0.0       0.00       1.23       60.2
12:04              41        0.0         32       32.6      160.8       32.6       31.7       13.7     1018.9       32.6       20.7        0.0        0.0        0.0       0.00        0.0       0.00       1.23       60.2
12:06              16        0.0         31       32.6      160.8       32.6       31.6       13.3     1018.9       32.6       20.7        0.0        0.0        0.0       0.00        0.0       0.00       1.23       60.2
12:07              32        0.0         31       32.6      160.8       32.6       31.7       13.3     1018.8       32.6       20.7        0.0        0.0        0.0       0.00        0.0       0.00       1.23       60.2
12:10              32        0.0         30       32.6      160.8       32.6       31.5       12.8     1018.8       32.6       20.7        0.0        0.0        0.0       0.00        0.0       0.00       1.23       60.2
12:12              31        0.0         30       32.6      160.8       32.6       31.5       12.8     1018.7       32.7       20.7        0.0        0.0        0.0       0.00        0.0       0.00       1.23       60.2
12:14              31        0.0         30       32.7      160.8       32.7       31.7       12.9     1018.7       32.7       20.7        0.0        0.0        0.0       0.00        0.0       0.00       1.23       60.2
12:16              32        0.0         30       32.8      160.8       32.8       31.8       13.0     1018.6       32.8       20.7        0.0        0.0        0.0       0.00        0.0       0.00       1.34       60.2
12:18             355        0.0         31       32.9      160.8       32.9       32.0       13.5     1018.6       32.9       20.7        0.0        0.0        0.0       0.00        0.0       0.00       1.34       60.2
12:19              51        0.0         31       32.9      160.8       32.9       32.0       13.5     1018.5       32.9       20.7        0.0        0.0        0.0       0.00        0.0       0.00       1.34       60.2
12:22              40        0.0         29       32.9      160.8       32.9       31.8       12.6     1018.5       32.9       20.7        0.0        0.0        0.0       0.00        0.0       0.00       1.34       60.2
12:23              29        0.0         29       33.0      160.8       33.0       31.9       12.6     1018.5       33.0       20.7        0.0        0.0        0.0       0.00        0.0       0.00       1.34       60.2
12:26              30        0.0         29       33.1      160.8       33.1       31.9       12.7     1018.4       33.1       20.7        0.0        0.0        0.0       0.00        0.0       0.00       1.34       60.2
12:28              65        0.0         29       33.2      160.8       33.2       32.1       12.8     1018.4       33.2       20.7        0.0        0.0        0.0       0.00        0.0       0.00       1.34       60.2
12:30              96        0.0         29       33.3      160.8       33.3       32.3       12.9     1018.3       33.3       20.7        0.0        0.0        0.0       0.00        0.0       0.00       1.34       60.2
12:32              97        0.0         29       33.5      160.8       33.5       32.5       13.0     1018.4       33.5       20.7        0.0        0.0        0.0       0.00        0.0       0.00       1.46       60.2
12:34              97        0.0         30       33.7      160.8       33.7       32.8       13.7     1018.3       33.7       20.7        0.0        0.0        0.0       0.00        0.0       0.00       1.46       60.2
12:36              97        0.0         29       33.8      160.8       33.8       32.9       13.3     1018.3       33.8       20.7        0.0        0.0        0.0       0.00        0.0       0.00       1.46       60.2
12:38              96        0.0         29       33.9      160.8       33.9       33.0       13.4     1018.3       33.9       20.7        0.0        0.0        0.0       0.00        0.0       0.00       1.46       60.2
12:40               5        0.0         29       34.0      160.8       34.0       33.1       13.5     1018.2       34.0       20.7        0.0        0.0        0.0       0.00        0.0       0.00       1.46       60.2
12:42              17        0.0         29       34.0      160.8       34.0       33.1       13.5     1018.1       34.0       20.7        0.0        0.0        0.0       0.00        0.0       0.00       1.46       60.2
12:44              17        0.0         29       33.9      160.8       33.9       33.0       13.4     1018.1       34.0       20.7        0.0        0.0        0.0       0.00        0.0       0.00       1.46       60.2
12:46              17        0.0         29       33.9      160.8       33.9       33.0       13.4     1018.0       34.0       20.7        0.0        0.0        0.0       0.00        0.0       0.00       1.59       60.2
12:48              19        0.0         28       33.9      160.8       33.9       32.8       12.8     1018.0       34.0       20.7        0.0        0.0        0.0       0.00        0.0       0.00       1.59       60.2
12:50               5        0.0         29       33.9      160.8       33.9       33.0       13.4     1018.0       34.0       20.7        0.0        0.0        0.0       0.00        0.0       0.00       1.59       60.2
12:52               5        0.0         30       33.9      160.8       33.9       33.1       13.9     1018.0       34.0       20.7        0.0        0.0        0.0       0.00        0.0       0.00       1.59       60.2
12:54               5        0.0         29       33.8      160.8       33.8       32.9       13.3     1018.0       34.0       20.7        0.0        0.0        0.0       0.00        0.0       0.00       1.59       60.2
12:55               5        0.0         28       33.8      160.8       33.8       32.7       12.8     1018.0       34.0       20.7        0.0        0.0        0.0       0.00        0.0       0.00       1.59       60.2
12:57               5        0.0         29       33.8      160.8       33.8       32.9       13.3     1017.9       34.0       20.7        0.0        0.0        0.0       0.00        0.0       0.00       1.59       60.2
13:00              50        0.0         28       33.9      160.8       33.9       32.9       12.9     1017.9       34.0       20.7        0.0        0.0        0.0       0.00        0.0       0.00       1.59       60.2
13:01              67        0.0         27       34.1      160.8       34.1       32.9       12.4     1017.9       34.1       20.7        0.0        0.0        0.0       0.00        0.0       0.00       1.71       60.2
13:03             103        0.0         27       34.2      160.8       34.2       33.1       12.6     1017.8       34.2       20.7        0.0        0.0        0.0       0.00        0.0       0.00       1.71       60.2
13:06             175        0.0         26       34.4      160.8       34.4       33.1       12.1     1017.9       34.4       20.7        0.0        0.0        0.0       0.00        0.0       0.00       1.71       60.2
13:08             173        0.0         26       34.6      160.8       34.6       33.4       12.3     1017.9       34.6       20.7        0.0        0.0        0.0       0.00        0.0       0.00       1.71       60.2
13:10             174        0.0         25       34.8      160.8       34.8       33.5       11.9     1017.8       34.8       20.7        0.0        0.0        0.0       0.00        0.0       0.00       1.71       60.2
13:12             173        0.0         26       35.1      160.8       35.1       34.0       12.7     1017.8       35.1       20.7        0.0        0.0        0.0       0.00        0.0       0.00       1.71       60.2
13:14              85        0.0         25       35.2      160.8       35.2       34.0       12.2     1017.9       35.2       20.7        0.0        0.0        0.0       0.00        0.0       0.00       1.71       60.2
13:15              69        0.0         26       35.3      160.8       35.3       34.3       12.9     1017.8       35.3       20.7        0.0        0.0        0.0       0.00        0.0       0.00       1.85       60.2
13:18              70        0.0         25       35.4      160.8       35.4       34.3       12.4     1017.9       35.4       20.7        0.0        0.0        0.0       0.00        0.0       0.00       1.85       60.2
13:19              70        0.0         25       35.6      160.8       35.6       34.5       12.5     1017.8       35.6       20.7        0.0        0.0        0.0       0.00        0.0       0.00       1.85       60.2
13:22              70        0.0         25       35.6      160.8       35.6       34.5       12.6     1017.7       35.6       20.7        0.0        0.0        0.0       0.00        0.0       0.00       1.85       60.2
13:24              86        0.0         25       35.7      160.8       35.7       34.6       12.6     1017.6       35.7       20.7        0.0        0.0        0.0       0.00        0.0       0.00       1.85       60.2
13:26             166        0.0         25       35.8      160.8       35.8       34.8       12.7     1017.6       35.8       20.7        0.0        0.0        0.0       0.00        0.0       0.00       1.85       60.2
13:27             157        0.0         25       35.8      160.8       35.8       34.8       12.8     1017.6       35.8       20.7        0.0        0.0        0.0       0.00        0.0       0.00       1.85       60.2
13:30             169        0.0         25       35.8      160.8       35.8       34.8       12.8     1017.6       35.8       20.7        0.0        0.0        0.0       0.00        0.0       0.00       1.85       60.2
13:32             169        0.0         25       35.9      160.8       35.9       34.9       12.8     1017.6       35.9       20.7        0.0        0.0        0.0       0.00        0.0       0.00       1.99       60.2
13:33             119        0.0         24       35.9      160.8       35.9       34.8       12.2     1017.7       35.9       20.7        0.0        0.0        0.0       0.00        0.0       0.00       1.99       60.2
13:35             119        0.0         24       36.0      160.8       36.0       34.9       12.3     1017.7       36.0       20.7        0.0        0.0        0.0       0.00        0.0       0.00       1.99       60.2
13:38             119        0.0         25       36.1      160.8       36.1       35.1       12.9     1017.6       36.1       20.7        0.0        0.0        0.0       0.00        0.0       0.00       1.99       60.2
13:40             119        0.0         25       36.1      160.8       36.1       35.2       13.0     1017.6       36.1       20.7        0.0        0.0        0.0       0.00        0.0       0.00       1.99       60.2
13:41             170        0.0         23       36.2      160.8       36.2       35.0       11.8     1017.7       36.2       20.7        0.0        0.0        0.0       0.00        0.0       0.00       1.99       60.2
13:44             142        0.0         23       36.2      160.8       36.2       35.0       11.8     1017.6       36.2       20.7        0.0        0.0        0.0       0.00        0.0       0.00       1.99       60.2
13:45             146        0.0         23       36.2      160.8       36.2       35.0       11.8     1017.6       36.3       20.7        0.0        0.0        0.0       0.00        0.0       0.00       2.14       60.2
13:48             134        0.0         23       36.3      160.8       36.3       35.0       11.9     1017.5       36.3       20.7        0.0        0.0        0.0       0.00        0.0       0.00       2.14       60.2
13:50             133        0.0         24       36.3      160.8       36.3       35.2       12.5     1017.5       36.3       20.7        0.0        0.0        0.0       0.00        0.0       0.00       2.14       60.2
13:51              96        0.0         24       36.3      160.8       36.3       35.2       12.5     1017.4       36.3       20.7        0.0        0.0        0.0       0.00        0.0       0.00       2.14       60.2
13:54              96        0.0         24       36.3      160.8       36.3       35.3       12.6     1017.5       36.3       20.7        0.0        0.0        0.0       0.00        0.0       0.00       2.14       60.2
13:56              97        0.0         23       36.3      160.8       36.3       35.1       11.9     1017.4       36.3       20.7        0.0        0.0        0.0       0.00        0.0       0.00       2.14       60.2
13:58              99        0.0         23       36.4      160.8       36.4       35.2       12.0     1017.4       36.4       20.7        0.0        0.0        0.0       0.00        0.0       0.00       2.14       60.2
14:00             190        0.0         23       36.5      160.8       36.5       35.3       12.0     1017.3       36.5       20.7        0.0        0.0        0.0       0.00        0.0       0.00       2.14       60.2
14:02             171        0.0         23       36.5      160.8       36.5       35.3       12.0     1017.3       36.5       20.7        0.0        0.0        0.0       0.00        0.0       0.00       2.29       60.2
14:04             180        0.0         23       36.6      160.8       36.6       35.4       12.1     1017.3       36.6       20.7        0.0        0.0        0.0       0.00        0.0       0.00       2.29       60.2
14:06             186        0.0         23       36.6      160.8       36.6       35.4       12.1     1017.2       36.6       20.7        0.0        0.0        0.0       0.00        0.0       0.00       2.29       60.2
14:08             184        0.0         24       36.5      160.8       36.5       35.5       12.7     1017.1       36.6       20.7        0.0        0.0        0.0       0.00        0.0       0.00       2.29       60.2
14:10             184        0.0         25       36.4      160.8       36.4       35.7       13.3     1017.0       36.6       20.7        0.0        0.0        0.0       0.00        0.0       0.00       2.29       60.2
14:11             184        0.0         23       36.4      160.8       36.4       35.2       12.0     1017.0       36.6       20.7        0.0        0.0        0.0       0.00        0.0       0.00       2.29       60.2
14:14             184        0.0         25       36.4      160.8       36.4       35.7       13.3     1017.1       36.6       20.7        0.0        0.0        0.0       0.00        0.0       0.00       2.29       60.2
14:16             180        0.0         23       36.4      160.8       36.4       35.2       12.0     1017.1       36.6       20.7        0.0        0.0        0.0       0.00        0.0       0.00       2.44       60.2
14:18             180        0.0         24       36.5      160.8       36.5       35.5       12.7     1017.0       36.6       20.7        0.0        0.0        0.0       0.00        0.0       0.00       2.44       60.2
14:20             178        0.0         23       36.6      160.8       36.6       35.4       12.1     1017.0       36.6       20.7        0.0        0.0        0.0       0.00        0.0       0.00       2.44       60.2
14:22             184        0.0         23       36.6      160.8       36.6       35.5       12.1     1017.0       36.6       20.7        0.0        0.0        0.0       0.00        0.0       0.00       2.44       60.2
14:24             186        0.0         23       36.7      160.8       36.7       35.5       12.2     1017.1       36.7       20.7        0.0        0.0        0.0       0.00        0.0       0.00       2.44       60.2
14:25             186        0.0         23       36.7      160.8       36.7       35.6       12.2     1017.0       36.7       20.7        0.0        0.0        0.0       0.00        0.0       0.00       2.44       60.2
14:28             186        0.0         23       36.6      160.8       36.6       35.5       12.1     1017.0       36.7       20.7        0.0        0.0        0.0       0.00        0.0       0.00       2.44       60.2
14:30             186        0.0         24       36.6      160.8       36.6       35.6       12.7     1017.1       36.7       20.7        0.0        0.0        0.0       0.00        0.0       0.00       2.44       60.2
14:32             186        0.0         23       36.4      160.8       36.4       35.2       12.0     1017.0       36.7       20.7        0.0        0.0        0.0       0.00        0.0       0.00       2.60       60.2
14:34             186        0.0         23       36.4      160.8       36.4       35.2       12.0     1017.0       36.7       20.7        0.0        0.0        0.0       0.00        0.0       0.00       2.60       60.2
14:35             186        0.0         23       36.4      160.8       36.4       35.2       12.0     1017.0       36.7       20.7        0.0        0.0        0.0       0.00        0.0       0.00       2.60       60.2
14:38             187        0.0         23       36.5      160.8       36.5       35.3       12.0     1017.0       36.7       20.7        0.0        0.0        0.0       0.00        0.0       0.00       2.60       60.2
14:40             187        0.0         23       36.6      160.8       36.6       35.5       12.1     1016.9       36.7       20.7        0.0        0.0        0.0       0.00        0.0       0.00       2.60       60.2
14:41             187        0.0         23       36.6      160.8       36.6       35.5       12.1     1016.9       36.7       20.7        0.0        0.0        0.0       0.00        0.0       0.00       2.60       60.2
14:44             187        0.0         23       36.7      160.8       36.7       35.6       12.2     1016.9       36.7       20.7        0.0        0.0        0.0       0.00        0.0       0.00       2.60       60.2
14:46             187        0.0         24       36.7      160.8       36.7       35.8       12.9     1016.9       36.7       20.7        0.0        0.0        0.0       0.00        0.0       0.00       2.75       60.2
14:47             187        0.0         24       36.7      160.8       36.7       35.8       12.9     1016.9       36.7       20.7        0.0        0.0        0.0       0.00        0.0       0.00       2.75       60.2
14:49             187        0.0         24       36.6      160.8       36.6       35.6       12.7     1016.9       36.7       20.7        0.0        0.0        0.0       0.00        0.0       0.00       2.75       60.2
14:52             187        0.0         24       36.4      160.8       36.4       35.4       12.6     1016.8       36.7       20.7        0.0        0.0        0.0       0.00        0.0       0.00       2.75       60.2
14:54             187        0.0         24       36.4      160.8       36.4       35.4       12.6     1016.9       36.7       20.7        0.0        0.0        0.0       0.00        0.0       0.00       2.75       60.2
14:56             187        0.0         24       36.4      160.8       36.4       35.4       12.6     1016.9       36.7       20.7        0.0        0.0        0.0       0.00        0.0       0.00       2.75       60.2
14:57             187        0.0         24       36.5      160.8       36.5       35.5       12.7     1016.9       36.7       20.7        0.0        0.0        0.0       0.00        0.0       0.00       2.75       60.2
15:00             187        0.0         24       36.6      160.8       36.6       35.6       12.7     1016.9       36.7       20.7        0.0        0.0        0.0       0.00        0.0       0.00       2.75       60.2
15:02             187        0.0         23       36.7      160.8       36.7       35.5       12.2     1016.7       36.7       20.7        0.0        0.0        0.0       0.00        0.0       0.00       2.90       60.2
15:03             187        0.0         23       36.7      160.8       36.7       35.6       12.2     1016.7       36.7       20.7        0.0        0.0        0.0       0.00        0.0       0.00       2.90       60.2
15:06             187        0.0         24       36.8      160.8       36.8       35.9       12.9     1016.8       36.8       20.7        0.0        0.0        0.0       0.00        0.0       0.00       2.90       60.2
15:08             187        0.0         23       36.8      160.8       36.8       35.7       12.3     1016.8       36.8       20.7        0.0        0.0        0.0       0.00        0.0       0.00       2.90       60.2
15:10             196        0.0         24       36.8      160.8       36.8       35.9       12.9     1016.8       36.8       20.7        0.0        0.0        0.0       0.00        0.0       0.00       2.90       60.2
15:12             180        0.0         23       36.8      160.8       36.8       35.7       12.3     1016.8       36.8       20.7        0.0        0.0        0.0       0.00        0.0       0.00       2.90       60.2
15:13             180        0.0         23       36.8      160.8       36.8       35.7       12.3     1016.7       36.8       20.7        0.0        0.0        0.0       0.00        0.0       0.00       2.90       60.2
15:15             170        0.0         23       36.8      160.8       36.8       35.8       12.3     1016.8       36.8       20.7        0.0        0.0        0.0       0.00        0.0       0.00       3.06       60.2
15:18             170        0.0         23       36.9      160.8       36.9       35.8       12.4     1016.8       36.9       20.7        0.0        0.0        0.0       0.00        0.0       0.00       3.06       60.2
15:20             170        0.0         23       37.0      160.8       37.0       36.0       12.5     1016.7       37.0       20.7        0.0        0.0        0.0       0.00        0.0       0.00       3.06       60.2
15:21             169        0.0         23       37.1      160.8       37.1       36.1       12.6     1016.8       37.1       20.7        0.0        0.0        0.0       0.00        0.0       0.00       3.06       60.2
15:24             167        0.0         24       37.2      160.8       37.2       36.4       13.2     1016.7       37.2       20.7        0.0        0.0        0.0       0.00        0.0       0.00       3.06       60.2
15:26             302        0.0         23       37.3      160.8       37.3       36.4       12.7     1016.8       37.3       20.7        0.0        0.0        0.0       0.00        0.0       0.00       3.06       60.2
15:27             302        0.0         23       37.3      160.8       37.3       36.4       12.7     1016.7       37.3       20.7        0.0        0.0        0.0       0.00        0.0       0.00       3.06       60.2
15:30             302        0.0         23       37.4      160.8       37.4       36.5       12.8     1016.7       37.4       20.7        0.0        0.0        0.0       0.00        0.0       0.00       3.06       60.2
15:32             302        0.0         23       37.4      160.8       37.4       36.5       12.8     1016.7       37.4       20.7        0.0        0.0        0.0       0.00        0.0       0.00       3.22       60.2
15:34             302        0.0         23       37.3      160.8       37.3       36.4       12.7     1016.7       37.4       20.7        0.0        0.0        0.0       0.00        0.0       0.00       3.22       60.2
15:35             302        0.0         23       37.3      160.8       37.3       36.4       12.7     1016.7       37.4       20.7        0.0        0.0        0.0       0.00        0.0       0.00       3.22       60.2
15:38             302        0.0         23       37.2      160.8       37.2       36.3       12.6     1016.7       37.4       20.7        0.0        0.0        0.0       0.00        0.0       0.00       3.22       60.2
15:40             302        0.0         23       37.2      160.8       37.2       36.3       12.6     1016.7       37.4       20.7        0.0        0.0        0.0       0.00        0.0       0.00       3.22       60.2
15:42             302        0.0         23       37.3      160.8       37.3       36.4       12.7     1016.7       37.4       20.7        0.0        0.0        0.0       0.00        0.0       0.00       3.22       60.2
15:43             302        0.0         23       37.3      160.8       37.3       36.4       12.7     1016.6       37.4       20.7        0.0        0.0        0.0       0.00        0.0       0.00       3.22       60.2
15:46             302        0.0         23       37.2      160.8       37.2       36.3       12.6     1016.6       37.4       20.7        0.0        0.0        0.0       0.00        0.0       0.00       3.38       60.2
15:47             302        0.0         23       37.2      160.8       37.2       36.3       12.6     1016.6       37.4       20.7        0.0        0.0        0.0       0.00        0.0       0.00       3.38       60.2
15:50             302        0.0         23       37.3      160.8       37.3       36.4       12.7     1016.6       37.4       20.7        0.0        0.0        0.0       0.00        0.0       0.00       3.38       60.2
15:51             302        0.0         23       37.4      160.8       37.4       36.5       12.8     1016.6       37.4       20.7        0.0        0.0        0.0       0.00        0.0       0.00       3.38       60.2
15:54             302        0.0         22       37.4      160.8       37.4       36.4       12.2     1016.6       37.4       20.7        0.0        0.0        0.0       0.00        0.0       0.00       3.38       60.2
15:56             292        0.0         23       37.6      160.8       37.6       36.7       12.9     1016.6       37.6       20.7        0.0        0.0        0.0       0.00        0.0       0.00       3.38       60.2
15:57             292        0.0         24       37.5      160.8       37.5       36.9       13.5     1016.5       37.6       20.7        0.0        0.0        0.0       0.00        0.0       0.00       3.38       60.2
16:00             292        0.0         23       37.4      160.8       37.4       36.5       12.8     1016.5       37.6       20.7        0.0        0.0        0.0       0.00        0.0       0.00       3.38       60.2
16:02             292        0.0         23       37.4      160.8       37.4       36.5       12.8     1016.6       37.6       20.7        0.0        0.0        0.0       0.00        0.0       0.00       3.54       60.2
16:04             291        0.0         23       37.4      160.8       37.4       36.5       12.8     1016.5       37.6       20.7        0.0        0.0        0.0       0.00        0.0       0.00       3.54       60.2
16:05             292        0.0         23       37.4      160.8       37.4       36.6       12.8     1016.5       37.6       20.7        0.0        0.0        0.0       0.00        0.0       0.00       3.54       60.2
16:08             279        0.0         23       37.6      160.8       37.6       36.7       12.9     1016.5       37.6       20.7        0.0        0.0        0.0       0.00        0.0       0.00       3.54       60.2
16:09             276        0.0         23       37.6      160.8       37.6       36.8       13.0     1016.5       37.6       20.7        0.0        0.0        0.0       0.00        0.0       0.00       3.54       60.2
16:11             261        0.0         22       37.6      160.8       37.6       36.6       12.3     1016.6       37.6       20.7        0.0        0.0        0.0       0.00        0.0       0.00       3.54       60.2
16:14             261        0.0         22       37.6      160.8       37.6       36.5       12.2     1016.6       37.6       20.7        0.0        0.0        0.0       0.00        0.0       0.00       3.54       60.2
16:16             261        0.0         22       37.5      160.8       37.5       36.4       12.2     1016.6       37.6       20.7        0.0        0.0        0.0       0.00        0.0       0.00       3.70       60.2
16:18             261        0.0         22       37.5      160.8       37.5       36.4       12.2     1016.6       37.6       20.7        0.0        0.0        0.0       0.00        0.0       0.00       3.70       60.2
16:20             261        0.0         22       37.5      160.8       37.5       36.4       12.2     1016.6       37.6       20.7        0.0        0.0        0.0       0.00        0.0       0.00       3.70       60.2
16:21             261        0.0         22       37.6      160.8       37.6       36.5       12.2     1016.6       37.6       20.7        0.0        0.0        0.0       0.00        0.0       0.00       3.70       60.2
16:24             261        0.0         22       37.7      160.8       37.7       36.7       12.3     1016.6       37.7       20.7        0.0        0.0        0.0       0.00        0.0       0.00       3.70       60.2
16:25             261        0.0         22       37.7      160.8       37.7       36.7       12.4     1016.5       37.7       20.7        0.0        0.0        0.0       0.00        0.0       0.00       3.70       60.2
16:27             261        0.0         22       37.8      160.8       37.8       36.8       12.4     1016.6       37.8       20.7        0.0        0.0        0.0       0.00        0.0       0.00       3.70       60.2
16:30             261        0.0         22       37.8      160.8       37.8       36.8       12.4     1016.6       37.8       20.7        0.0        0.0        0.0       0.00        0.0       0.00       3.70       60.2
16:32             261        0.0         22       37.7      160.8       37.7       36.7       12.4     1016.6       37.8       20.7        0.0        0.0        0.0       0.00        0.0       0.00       3.86       60.2
16:33             261        0.0         23       37.6      160.8       37.6       36.8       13.0     1016.7       37.8       20.7        0.0        0.0        0.0       0.00        0.0       0.00       3.86       60.2
16:35             261        0.0         22       37.5      160.8       37.5       36.4       12.2     1016.6       37.8       20.7        0.0        0.0        0.0       0.00        0.0       0.00       3.86       60.2
16:38             261        0.0         23       37.3      160.8       37.3       36.4       12.7     1016.7       37.8       20.7        0.0        0.0        0.0       0.00        0.0       0.00       3.86       60.2
16:40             261        0.0         23       37.3      160.8       37.3       36.4       12.7     1016.6       37.8       20.7        0.0        0.0        0.0       0.00        0.0       0.00       3.86       60.2
16:41             261        0.0         24       37.2      160.8       37.2       36.5       13.3     1016.6       37.8       20.7        0.0        0.0        0.0       0.00        0.0       0.00       3.86       60.2
16:43             261        0.0         23       37.3      160.8       37.3       36.4       12.7     1016.6       37.8       20.7        0.0        0.0        0.0       0.00        0.0       0.00       3.86       60.2
16:46             261        0.0         23       37.3      160.8       37.3       36.4       12.7     1016.5       37.8       20.7        0.0        0.0        0.0       0.00        0.0       0.00       4.02       60.2
16:48             261        0.0         23       37.3      160.8       37.3       36.4       12.7     1016.6       37.8       20.7        0.0        0.0        0.0       0.00        0.0       0.00       4.02       60.2
16:49             259        0.0         23       37.3      160.8       37.3       36.4       12.7     1016.6       37.8       20.7        0.0        0.0        0.0       0.00        0.0       0.00       4.02       60.2
16:52             252        0.0         23       37.2      160.8       37.2       36.3       12.6     1016.6       37.8       20.7        0.0        0.0        0.0       0.00        0.0       0.00       4.02       60.2
16:54             252        0.0         23       37.1      160.8       37.1       36.1       12.6     1016.6       37.8       20.7        0.0        0.0        0.0       0.00        0.0       0.00       4.02       60.2
16:56             252        0.0         23       36.9      160.8       36.9       35.8       12.4     1016.7       37.8       20.7        0.0        0.0        0.0       0.00        0.0       0.00       4.02       60.2
16:58             252        0.0         24       36.6      160.8       36.6       35.7       12.8     1016.6       37.8       20.7        0.0        0.0        0.0       0.00        0.0       0.00       4.02       60.2
17:00             252        0.0         24       36.4      160.8       36.4       35.4       12.6     1016.6       37.8       20.7        0.0        0.0        0.0       0.00        0.0       0.00       4.02       60.2
17:01             252        0.0         24       36.3      160.8       36.3       35.2       12.5     1016.6       37.8       20.7        0.0        0.0        0.0       0.00        0.0       0.00       4.17       60.2
17:04             252        0.0         24       36.1      160.8       36.1       35.0       12.4     1016.6       37.8       20.7        0.0        0.0        0.0       0.00        0.0       0.00       4.17       60.2
17:06             252        0.0         24       36.0      160.8       36.0       34.9       12.3     1016.6       37.8       20.7        0.0        0.0        0.0       0.00        0.0       0.00       4.17       60.2
17:08             252        0.0         24       35.9      160.8       35.9       34.7       12.2     1016.6       37.8       20.7        0.0        0.0        0.0       0.00        0.0       0.00       4.17       60.2
17:10             252        0.0         25       35.9      160.8       35.9       34.9       12.8     1016.6       37.8       20.7        0.0        0.0        0.0       0.00        0.0       0.00       4.17       60.2
17:12             252        0.0         25       35.8      160.8       35.8       34.8       12.8     1016.6       37.8       20.7        0.0        0.0        0.0       0.00        0.0       0.00       4.17       60.2
17:14             252        0.0         25       35.9      160.8       35.9       34.9       12.8     1016.7       37.8       20.7        0.0        0.0        0.0       0.00        0.0       0.00       4.17       60.2
17:16             252        0.0         25       35.9      160.8       35.9       35.0       12.8     1016.7       37.8       20.7        0.0        0.0        0.0       0.00        0.0       0.00       4.32       60.2
17:18             252        0.0         25       35.9      160.8       35.9       35.0       12.8     1016.7       37.8       20.7        0.0        0.0        0.0       0.00        0.0       0.00       4.32       60.2
17:19             252        0.0         25       36.0      160.8       36.0       35.0       12.9     1016.7       37.8       20.7        0.0        0.0        0.0       0.00        0.0       0.00       4.32       60.2
17:22             252        0.0         25       35.9      160.8       35.9       35.0       12.8     1016.7       37.8       20.7        0.0        0.0        0.0       0.00        0.0       0.00       4.32       60.2
17:24             252        0.0         25       35.9      160.8       35.9       34.9       12.8     1016.7       37.8       20.7        0.0        0.0        0.0       0.00        0.0       0.00       4.32       60.2
17:26             252        0.0         25       35.8      160.8       35.8       34.8       12.8     1016.7       37.8       20.7        0.0        0.0        0.0       0.00        0.0       0.00       4.32       60.2
17:28             252        0.0         26       35.8      160.8       35.8       34.9       13.3     1016.7       37.8       20.7        0.0        0.0        0.0       0.00        0.0       0.00       4.32       60.2
17:30             252        0.0         26       35.7      160.8       35.7       34.8       13.2     1016.7       37.8       20.7        0.0        0.0        0.0       0.00        0.0       0.00       4.32       60.2
17:31             252        0.0         26       35.6      160.8       35.6       34.7       13.2     1016.7       37.8       20.7        0.0        0.0        0.0       0.00        0.0       0.00       4.46       60.2
17:34             252        0.0         25       35.5      160.8       35.5       34.4       12.5     1016.7       37.8       20.7        0.0        0.0        0.0       0.00        0.0       0.00       4.46       60.2
17:36             252        0.0         26       35.4      160.8       35.4       34.5       13.0     1016.7       37.8       20.7        0.0        0.0        0.0       0.00        0.0       0.00       4.46       60.2
17:37             252        0.0         25       35.4      160.8       35.4       34.2       12.4     1016.7       37.8       20.7        0.0        0.0        0.0       0.00        0.0       0.00       4.46       60.2
17:40             252        0.0         26       35.3      160.8       35.3       34.3       12.9     1016.7       37.8       20.7        0.0        0.0        0.0       0.00        0.0       0.00       4.46       60.2
17:42             252        0.0         26       35.2      160.8       35.2       34.2       12.8     1016.8       37.8       20.7        0.0        0.0        0.0       0.00        0.0       0.00       4.46       60.2
17:44             252        0.0         25       35.1      160.8       35.1       33.9       12.1     1016.7       37.8       20.7        0.0        0.0        0.0       0.00        0.0       0.00       4.46       60.2
17:46             252        0.0         26       35.0      160.8       35.0       33.9       12.7     1016.8       37.8       20.7        0.0        0.0        0.0       0.00        0.0       0.00       4.59       60.2
17:48             252        0.0         26       34.9      160.8       34.9       33.8       12.6     1016.8       37.8       20.7        0.0        0.0        0.0       0.00        0.0       0.00       4.59       60.2
17:50             252        0.0         26       34.9      160.8       34.9       33.8       12.6     1016.8       37.8       20.7        0.0        0.0        0.0       0.00        0.0       0.00       4.59       60.2
17:52             252        0.0         27       34.8      160.8       34.8       33.9       13.1     1016.8       37.8       20.7        0.0        0.0        0.0       0.00        0.0       0.00       4.59       60.2
17:53             252        0.0         27       34.7      160.8       34.7       33.7       13.0     1016.8       37.8       20.7        0.0        0.0        0.0       0.00        0.0       0.00       4.59       60.2
17:56             252        0.0         27       34.6      160.8       34.6       33.5       12.9     1016.8       37.8       20.7        0.0        0.0        0.0       0.00        0.0       0.00       4.59       60.2
17:57             252        0.0         27       34.4      160.8       34.4       33.3       12.7     1016.9       37.8       20.7        0.0        0.0        0.0       0.00        0.0       0.00       4.59       60.2
18:00             252        0.0         27       34.2      160.8       34.2       33.1       12.6     1016.8       37.8       20.7        0.0        0.0        0.0       0.00        0.0       0.00       4.59       60.2
18:02             252        0.0         27       34.1      160.8       34.1       32.9       12.4     1016.9       37.8       20.7        0.0        0.0        0.0       0.00        0.0       0.00       4.72       60.2
18:03             252        0.0         27       33.9      160.8       33.9       32.7       12.3     1016.9       37.8       20.7        0.0        0.0        0.0       0.00        0.0       0.00       4.72       60.2
18:06             252        0.0         28       33.7      160.8       33.7       32.5       12.6     1016.9       37.8       20.7        0.0        0.0        0.0       0.00        0.0       0.00       4.72       60.2
18:08             252        0.0         27       33.5      160.8       33.5       32.2       12.0     1016.9       37.8       20.7        0.0        0.0        0.0       0.00        0.0       0.00       4.72       60.2
18:10             252        0.0         27       33.3      160.8       33.3       32.0       11.8     1016.9       37.8       20.7        0.0        0.0        0.0       0.00        0.0       0.00       4.72       60.2
18:12             252        0.0         28       33.2      160.8       33.2       32.0       12.3     1016.9       37.8       20.7        0.0        0.0        0.0       0.00        0.0       0.00       4.72       60.2
18:14             252        0.0         28       33.1      160.8       33.1       31.9       12.2     1016.9       37.8       20.7        0.0        0.0        0.0       0.00        0.0       0.00       4.72       60.2
18:16             252        0.0         28       33.0      160.8       33.0       31.7       12.1     1016.9       37.8       20.7        0.0        0.0        0.0       0.00        0.0       0.00       4.84       60.2
18:18             252        0.0         28       32.9      160.8       32.9       31.6       12.0     1016.9       37.8       20.7        0.0        0.0        0.0       0.00        0.0       0.00       4.84       60.2
18:19             252        0.0         28       32.8      160.8       32.8       31.5       11.9     1016.9       37.8       20.7        0.0        0.0        0.0       0.00        0.0       0.00       4.84       60.2
18:22             238        0.0         29       32.7      160.8       32.7       31.5       12.4     1017.0       37.8       20.7        0.0        0.0        0.0       0.00        0.0       0.00       4.84       60.2
18:24             217        0.0         30       32.6      160.8       32.6       31.5       12.8     1016.9       37.8       20.7        0.0        0.0        0.0       0.00        0.0       0.00       4.84       60.2
18:26             217        0.0         31       32.4      160.8       32.4       31.5       13.2     1017.0       37.8       20.7        0.0        0.0        0.0       0.00        0.0       0.00       4.84       60.2
18:28             217        0.0         31       32.3      160.8       32.3       31.3       13.1     1016.9       37.8       20.7        0.0        0.0        0.0       0.00        0.0       0.00       4.84       60.2
18:30             217        0.0         31       32.2      160.8       32.2       31.1       12.9     1017.0       37.8       20.7        0.0        0.0        0.0       0.00        0.0       0.00       4.84       60.2
18:32             217        0.0         32       32.1      160.8       32.1       31.1       13.3     1017.2       37.8       20.7        0.0        0.0        0.0       0.00        0.0       0.00       4.94       60.2
18:34             217        0.0         32       31.9      160.8       31.9       31.0       13.2     1017.2       37.8       20.7        0.0        0.0        0.0       0.00        0.0       0.00       4.94       60.2
18:36             217        0.0         33       31.8      160.8       31.8       31.0       13.6     1017.2       37.8       20.7        0.0        0.0        0.0       0.00        0.0       0.00       4.94       60.2
18:38             217        0.0         33       31.7      160.8       31.7       30.8       13.4     1017.3       37.8       20.7        0.0        0.0        0.0       0.00        0.0       0.00       4.94       60.2
18:40             217        0.0         33       31.6      160.8       31.6       30.7       13.3     1017.3       37.8       20.7        0.0        0.0        0.0       0.00        0.0       0.00       4.94       60.2
18:42             217        0.0         34       31.4      160.8       31.4       30.6       13.7     1017.4       37.8       20.7        0.0        0.0        0.0       0.00        0.0       0.00       4.94       60.2
18:44             217        0.0         35       31.3      160.8       31.3       30.6       14.0     1017.4       37.8       20.7        0.0        0.0        0.0       0.00        0.0       0.00       4.94       60.2
18:46             217        0.0         35       31.1      160.8       31.1       30.4       13.9     1017.4       37.8       20.7        0.0        0.0        0.0       0.00        0.0       0.00       5.04       60.2
18:48             217        0.0         35       31.0      160.8       31.0       30.3       13.8     1017.5       37.8       20.7        0.0        0.0        0.0       0.00        0.0       0.00       5.04       60.2
18:50             217        0.0         36       30.8      160.8       30.8       30.2       14.0     1017.4       37.8       20.7        0.0        0.0        0.0       0.00        0.0       0.00       5.04       60.2
18:52             217        0.0         36       30.7      160.8       30.7       30.0       13.9     1017.5       37.8       20.7        0.0        0.0        0.0       0.00        0.0       0.00       5.04       60.2
18:54             217        0.0         36       30.6      160.8       30.6       29.9       13.8     1017.6       37.8       20.7        0.0        0.0        0.0       0.00        0.0       0.00       5.04       60.2
18:55             217        0.0         36       30.4      160.8       30.4       29.7       13.7     1017.6       37.8       20.7        0.0        0.0        0.0       0.00        0.0       0.00       5.04       60.2
18:57             218        0.0         36       30.3      160.8       30.3       29.6       13.6     1017.6       37.8       20.7        0.0        0.0        0.0       0.00        0.0       0.00       5.04       60.2
19:00             219        0.0         36       30.2      160.8       30.2       29.5       13.5     1017.6       37.8       20.7        0.0        0.0        0.0       0.00        0.0       0.00       5.04       60.2
19:02             221        0.0         36       30.1      160.8       30.1       29.4       13.4     1017.6       37.8       20.7        0.0        0.0        0.0       0.00        0.0       0.00       5.12       60.2
19:04             223        0.0         37       30.1      160.8       30.1       29.4       13.8     1017.6       37.8       20.7        0.0        0.0        0.0       0.00        0.0       0.00       5.12       60.2
19:06             223        0.0         37       29.9      160.8       29.9       29.3       13.7     1017.7       37.8       20.7        0.0        0.0        0.0       0.00        0.0       0.00       5.12       60.2
19:07             223        0.0         37       29.8      160.8       29.8       29.2       13.6     1017.6       37.8       20.7        0.0        0.0        0.0       0.00        0.0       0.00       5.12       60.2
19:10             225        0.0         37       29.7      160.8       29.7       29.1       13.5     1017.7       37.8       20.7        0.0        0.0        0.0       0.00        0.0       0.00       5.12       60.2
19:12             225        0.0         37       29.6      160.8       29.6       29.0       13.4     1017.9       37.8       20.7        0.0        0.0        0.0       0.00        0.0       0.00       5.12       60.2
19:14             226        0.0         37       29.5      160.8       29.5       28.8       13.3     1017.7       37.8       20.7        0.0        0.0        0.0       0.00        0.0       0.00       5.12       60.2
19:16             226        0.0         37       29.4      160.8       29.4       28.7       13.2     1017.8       37.8       20.7        0.0        0.0        0.0       0.00        0.0       0.00       5.20       60.2
19:18             226        0.0         37       29.3      160.8       29.3       28.7       13.1     1017.8       37.8       20.7        0.0        0.0        0.0       0.00        0.0       0.00       5.20       60.2
19:20             232        0.0         37       29.2      160.8       29.2       28.6       13.0     1017.9       37.8       20.7        0.0        0.0        0.0       0.00        0.0       0.00       5.20       60.2
19:22             232        0.0         37       29.2      160.8       29.2       28.5       13.0     1017.9       37.8       20.7        0.0        0.0        0.0       0.00        0.0       0.00       5.20       60.2
19:24             232        0.0         37       29.1      160.8       29.1       28.5       12.9     1017.9       37.8       20.7        0.0        0.0        0.0       0.00        0.0       0.00       5.20       60.2
19:26             232        0.0         37       29.0      160.8       29.0       28.4       12.9     1017.9       37.8       20.7        0.0        0.0        0.0       0.00        0.0       0.00       5.20       60.2
19:28             234        0.0         37       28.9      160.8       28.9       28.2       12.8     1017.9       37.8       20.7        0.0        0.0        0.0       0.00        0.0       0.00       5.20       60.2
19:30             230        0.0         37       28.8      160.8       28.8       28.2       12.7     1018.0       37.8       20.7        0.0        0.0        0.0       0.00        0.0       0.00       5.20       60.2
19:31             229        0.0         37       28.7      160.8       28.7       28.1       12.6     1018.0       37.8       20.7        0.0        0.0        0.0       0.00        0.0       0.00       5.27       60.2
19:34             232        0.0         37       28.6      160.8       28.6       28.0       12.5     1018.0       37.8       20.7        0.0        0.0        0.0       0.00        0.0       0.00       5.27       60.2
19:36             238        0.0         37       28.6      160.8       28.6       27.9       12.5     1018.0       37.8       20.7        0.0        0.0        0.0       0.00        0.0       0.00       5.27       60.2
19:38             241        0.0         37       28.5      160.8       28.5       27.9       12.4     1017.9       37.8       20.7        0.0        0.0        0.0       0.00        0.0       0.00       5.27       60.2
19:40             246        0.0         38       28.3      160.8       28.3       27.8       12.7     1018.0       37.8       20.7        0.0        0.0        0.0       0.00        0.0       0.00       5.27       60.2
19:42             246        0.0         38       28.3      160.8       28.3       27.8       12.6     1018.1       37.8       20.7        0.0        0.0        0.0       0.00        0.0       0.00       5.27       60.2
19:44             250        0.0         38       28.2      160.8       28.2       27.7       12.5     1018.0       37.8       20.7        0.0        0.0        0.0       0.00        0.0       0.00       5.27       60.2
19:46             248        0.0         38       28.1      160.8       28.1       27.6       12.5     1018.0       37.8       20.7        0.0        0.0        0.0       0.00        0.0       0.00       5.34       60.2
19:48             248        0.0         38       28.0      160.8       28.0       27.5       12.4     1018.0       37.8       20.7        0.0        0.0        0.0       0.00        0.0       0.00       5.34       60.2
19:50             243        0.0         38       27.9      160.8       27.9       27.5       12.3     1018.0       37.8       20.7        0.0        0.0        0.0       0.00        0.0       0.00       5.34       60.2
19:52             244        0.0         38       27.9      160.8       27.9       27.4       12.3     1018.1       37.8       20.7        0.0        0.0        0.0       0.00        0.0       0.00       5.34       60.2
19:54             242        0.0         38       27.8      160.8       27.8       27.4       12.2     1018.1       37.8       20.7        0.0        0.0        0.0       0.00        0.0       0.00       5.34       60.2
19:56             242        0.0         38       27.8      160.8       27.8       27.4       12.2     1018.1       37.8       20.7        0.0        0.0        0.0       0.00        0.0       0.00       5.34       60.2
19:58             242        0.0         38       27.7      160.8       27.7       27.3       12.1     1018.1       37.8       20.7        0.0        0.0        0.0       0.00        0.0       0.00       5.34       60.2
20:00             242        0.0         38       27.7      160.8       27.7       27.3       12.1     1018.0       37.8       20.7        0.0        0.0        0.0       0.00        0.0       0.00       5.34       60.2
20:02             242        0.0         38       27.7      160.8       27.7       27.3       12.1     1018.2       37.8       20.7        0.0        0.0        0.0       0.00        0.0       0.00       5.39       60.2
20:04             242        0.0         38       27.6      160.8       27.6       27.2       12.0     1018.1       37.8       20.7        0.0        0.0        0.0       0.00        0.0       0.00       5.39       60.2
20:06             242        0.0         38       27.6      160.8       27.6       27.2       12.0     1018.1       37.8       20.7        0.0        0.0        0.0       0.00        0.0       0.00       5.39       60.2
20:08             248        0.0         38       27.6      160.8       27.6       27.2       12.0     1018.1       37.8       20.7        0.0        0.0        0.0       0.00        0.0       0.00       5.39       60.2
20:10             252        0.0         38       27.6      160.8       27.6       27.2       12.0     1018.1       37.8       20.7        0.0        0.0        0.0       0.00        0.0       0.00       5.39       60.2
20:12             252        0.0         38       27.7      160.8       27.7       27.3       12.1     1018.1       37.8       20.7        0.0        0.0        0.0       0.00        0.0       0.00       5.39       60.2
20:14             253        0.0         38       27.6      160.8       27.6       27.2       12.0     1018.1       37.8       20.7        0.0        0.0        0.0       0.00        0.0       0.00       5.39       60.2
20:16             253        0.0         38       27.6      160.8       27.6       27.2       12.0     1018.1       37.8       20.7        0.0        0.0        0.0       0.00        0.0       0.00       5.45       60.2
20:18             248        0.0         38       27.6      160.8       27.6       27.2       12.0     1018.2       37.8       20.7        0.0        0.0        0.0       0.00        0.0       0.00       5.45       60.2
20:20             262        0.0         38       27.6      160.8       27.6       27.2       12.0     1018.1       37.8       20.7        0.0        0.0        0.0       0.00        0.0       0.00       5.45       60.2
20:22             243        0.0         38       27.6      160.8       27.6       27.2       12.0     1018.3       37.8       20.7        0.0        0.0        0.0       0.00        0.0       0.00       5.45       60.2
20:24             257        0.0         38       27.5      160.8       27.5       27.1       11.9     1018.2       37.8       20.7        0.0        0.0        0.0       0.00        0.0       0.00       5.45       60.2
20:26             257        0.0         38       27.5      160.8       27.5       27.1       11.9     1018.2       37.8       20.7        0.0        0.0        0.0       0.00        0.0       0.00       5.45       60.2
20:28             246        0.0         38       27.4      160.8       27.4       27.1       11.9     1018.3       37.8       20.7        0.0        0.0        0.0       0.00        0.0       0.00       5.45       60.2
20:30             250        0.0         39       27.4      160.8       27.4       27.1       12.2     1018.3       37.8       20.7        0.0        0.0        0.0       0.00        0.0       0.00       5.45       60.2
20:32             256        0.0         39       27.3      160.8       27.3       27.1       12.2     1018.3       37.8       20.7        0.0        0.0        0.0       0.00        0.0       0.00       5.51       60.2
20:34             252        0.0         39       27.3      160.8       27.3       27.0       12.1     1018.4       37.8       20.7        0.0        0.0        0.0       0.00        0.0       0.00       5.51       60.2
20:36             253        0.0         39       27.2      160.8       27.2       27.0       12.1     1018.4       37.8       20.7        0.0        0.0        0.0       0.00        0.0       0.00       5.51       60.2
20:38             247        0.0         39       27.2      160.8       27.2       26.9       12.0     1018.4       37.8       20.7        0.0        0.0        0.0       0.00        0.0       0.00       5.51       60.2
20:40             247        0.0         39       27.1      160.8       27.1       26.9       12.0     1018.4       37.8       20.7        0.0        0.0        0.0       0.00        0.0       0.00       5.51       60.2
20:42             247        0.0         40       27.1      160.8       27.1       26.9       12.3     1018.4       37.8       20.7        0.0        0.0        0.0       0.00        0.0       0.00       5.51       60.2
20:44             246        0.0         40       26.9      160.8       26.9       26.8       12.2     1018.5       37.8       20.7        0.0        0.0        0.0       0.00        0.0       0.00       5.51       60.2
20:46             246        0.0         40       26.9      160.8       26.9       26.8       12.2     1018.5       37.8       20.7        0.0        0.0        0.0       0.00        0.0       0.00       5.56       60.2
20:48             246        0.0         40       26.8      160.8       26.8       26.7       12.1     1018.4       37.8       20.7        0.0        0.0        0.0       0.00        0.0       0.00       5.56       60.2
20:50             246        0.0         40       26.8      160.8       26.8       26.7       12.1     1018.4       37.8       20.7        0.0        0.0        0.0       0.00        0.0       0.00       5.56       60.2
20:52             246        0.0         40       26.7      160.8       26.7       26.7       12.0     1018.4       37.8       20.7        0.0        0.0        0.0       0.00        0.0       0.00       5.56       60.2
20:54             245        0.0         40       26.7      160.8       26.7       26.6       12.0     1018.5       37.8       20.7        0.0        0.0        0.0       0.00        0.0       0.00       5.56       60.2
20:56             245        0.0         41       26.6      160.8       26.6       26.6       12.3     1018.4       37.8       20.7        0.0        0.0        0.0       0.00        0.0       0.00       5.56       60.2
20:58             244        0.0         41       26.6      160.8       26.6       26.6       12.2     1018.5       37.8       20.7        0.0        0.0        0.0       0.00        0.0       0.00       5.56       60.2
21:00             244        0.0         41       26.5      160.8       26.5       26.5       12.2     1018.5       37.8       20.7        0.0        0.0        0.0       0.00        0.0       0.00       5.56       60.2
21:02             243        0.0         41       26.4      160.8       26.4       26.4       12.1     1018.5       37.8       20.7        0.0        0.0        0.0       0.00        0.0       0.00       5.61       60.2
21:04             243        0.0         41       26.3      160.8       26.3       26.3       12.0     1018.5       37.8       20.7        0.0        0.0        0.0       0.00        0.0       0.00       5.61       60.2
21:06             243        0.0         41       26.3      160.8       26.3       26.3       12.0     1018.5       37.8       20.7        0.0        0.0        0.0       0.00        0.0       0.00       5.61       60.2
21:08             243        0.0         42       26.2      160.8       26.2       26.3       12.3     1018.5       37.8       20.7        0.0        0.0        0.0       0.00        0.0       0.00       5.61       60.2
21:09             243        0.0         42       26.2      160.8       26.2       26.2       12.3     1018.5       37.8       20.7        0.0        0.0        0.0       0.00        0.0       0.00       5.61       60.2
21:11             243        0.0         42       26.1      160.8       26.1       26.2       12.2     1018.6       37.8       20.7        0.0        0.0        0.0       0.00        0.0       0.00       5.61       60.2
21:14             243        0.0         42       26.1      160.8       26.1       26.1       12.2     1018.6       37.8       20.7        0.0        0.0        0.0       0.00        0.0       0.00       5.61       60.2
21:16             243        0.0         42       26.0      160.8       26.0       26.1       12.1     1018.5       37.8       20.7        0.0        0.0        0.0       0.00        0.0       0.00       5.65       60.2
21:18             243        0.0         42       26.0      160.8       26.0       26.1       12.1     1018.5       37.8       20.7        0.0        0.0        0.0       0.00        0.0       0.00       5.65       60.2
21:20             243        0.0         42       26.0      160.8       26.0       26.1       12.1     1018.5       37.8       20.7        0.0        0.0        0.0       0.00        0.0       0.00       5.65       60.2
21:22             243        0.0         42       25.9      160.8       25.9       26.0       12.1     1018.5       37.8       20.7        0.0        0.0        0.0       0.00        0.0       0.00       5.65       60.2
21:24             243        0.0         42       25.9      160.8       25.9       25.9       12.0     1018.6       37.8       20.7        0.0        0.0        0.0       0.00        0.0       0.00       5.65       60.2
21:26             243        0.0         42       25.9      160.8       25.9       25.9       12.0     1018.5       37.8       20.7        0.0        0.0        0.0       0.00        0.0       0.00       5.65       60.2
21:28             243        0.0         42       25.8      160.8       25.8       25.9       12.0     1018.5       37.8       20.7        0.0        0.0        0.0       0.00        0.0       0.00       5.65       60.2
21:30             243        0.0         42       25.8      160.8       25.8       25.9       12.0     1018.5       37.8       20.7        0.0        0.0        0.0       0.00        0.0       0.00       5.65       60.2
21:32             243        0.0         42       25.8      160.8       25.8       25.9       12.0     1018.5       37.8       20.7        0.0        0.0        0.0       0.00        0.0       0.00       5.69       60.2
21:34             243        0.0         42       25.8      160.8       25.8       25.8       11.9     1018.5       37.8       20.7        0.0        0.0        0.0       0.00        0.0       0.00       5.69       60.2
21:36             243        0.0         42       25.8      160.8       25.8       25.8       11.9     1018.5       37.8       20.7        0.0        0.0        0.0       0.00        0.0       0.00       5.69       60.2
21:38             243        0.0         42       25.8      160.8       25.8       25.8       11.9     1018.5       37.8       20.7        0.0        0.0        0.0       0.00        0.0       0.00       5.69       60.2
21:40             243        0.0         42       25.8      160.8       25.8       25.8       11.9     1018.5       37.8       20.7        0.0        0.0        0.0       0.00        0.0       0.00       5.69       60.2
21:42             243        0.0         42       25.7      160.8       25.7       25.8       11.9     1018.5       37.8       20.7        0.0        0.0        0.0       0.00        0.0       0.00       5.69       60.2
21:44             243        0.0         42       25.7      160.8       25.7       25.8       11.9     1018.5       37.8       20.7        0.0        0.0        0.0       0.00        0.0       0.00       5.69       60.2
21:46             243        0.0         42       25.7      160.8       25.7       25.8       11.9     1018.5       37.8       20.7        0.0        0.0        0.0       0.00        0.0       0.00       5.73       60.2
21:48             243        0.0         42       25.7      160.8       25.7       25.8       11.9     1018.5       37.8       20.7        0.0        0.0        0.0       0.00        0.0       0.00       5.73       60.2
21:50             243        0.0         42       25.7      160.8       25.7       25.8       11.9     1018.5       37.8       20.7        0.0        0.0        0.0       0.00        0.0       0.00       5.73       60.2
21:52             243        0.0         42       25.7      160.8       25.7       25.8       11.9     1018.5       37.8       20.7        0.0        0.0        0.0       0.00        0.0       0.00       5.73       60.2
21:54             243        0.0         42       25.7      160.8       25.7       25.8       11.9     1018.5       37.8       20.7        0.0        0.0        0.0       0.00        0.0       0.00       5.73       60.2
21:56             243        0.0         42       25.8      160.8       25.8       25.8       11.9     1018.5       37.8       20.7        0.0        0.0        0.0       0.00        0.0       0.00       5.73       60.2
21:58             243        0.0         42       25.8      160.8       25.8       25.8       11.9     1018.6       37.8       20.7        0.0        0.0        0.0       0.00        0.0       0.00       5.73       60.2
22:00             243        0.0         42       25.8      160.8       25.8       25.8       11.9     1018.5       37.8       20.7        0.0        0.0        0.0       0.00        0.0       0.00       5.73       60.2
22:02             243        0.0         42       25.8      160.8       25.8       25.8       11.9     1018.6       37.8       20.7        0.0        0.0        0.0       0.00        0.0       0.00       5.77       60.2
22:04             243        0.0         42       25.8      160.8       25.8       25.8       11.9     1018.6       37.8       20.7        0.0        0.0        0.0       0.00        0.0       0.00       5.77       60.2
22:06             243        0.0         42       25.8      160.8       25.8       25.8       11.9     1018.6       37.8       20.7        0.0        0.0        0.0       0.00        0.0       0.00       5.77       60.2
22:08             243        0.0         42       25.7      160.8       25.7       25.8       11.9     1018.7       37.8       20.7        0.0        0.0        0.0       0.00        0.0       0.00       5.77       60.2
22:10             243        0.0         42       25.7      160.8       25.7       25.8       11.9     1018.7       37.8       20.7        0.0        0.0        0.0       0.00        0.0       0.00       5.77       60.2
22:12             243        0.0         42       25.7      160.8       25.7       25.8       11.9     1018.7       37.8       20.7        0.0        0.0        0.0       0.00        0.0       0.00       5.77       60.2
22:14             243        0.0         42       25.7      160.8       25.7       25.7       11.8     1018.7       37.8       20.7        0.0        0.0        0.0       0.00        0.0       0.00       5.77       60.2
22:16             243        0.0         42       25.7      160.8       25.7       25.7       11.8     1018.7       37.8       20.7        0.0        0.0        0.0       0.00        0.0       0.00       5.81       60.2
22:18             243        0.0         42       25.6      160.8       25.6       25.7       11.8     1018.8       37.8       20.7        0.0        0.0        0.0       0.00        0.0       0.00       5.81       60.2
22:20             243        0.0         42       25.6      160.8       25.6       25.7       11.8     1018.9       37.8       20.7        0.0        0.0        0.0       0.00        0.0       0.00       5.81       60.2
22:22             243        0.0         42       25.6      160.8       25.6       25.7       11.8     1018.8       37.8       20.7        0.0        0.0        0.0       0.00        0.0       0.00       5.81       60.2
22:24             243        0.0         43       25.6      160.8       25.6       25.7       12.1     1018.8       37.8       20.7        0.0        0.0        0.0       0.00        0.0       0.00       5.81       60.2
22:26             243        0.0         44       25.5      160.8       25.5       25.6       12.4     1018.7       37.8       20.7        0.0        0.0        0.0       0.00        0.0       0.00       5.81       60.2
22:28             243        0.0         44       25.4      160.8       25.4       25.6       12.3     1018.7       37.8       20.7        0.0        0.0        0.0       0.00        0.0       0.00       5.81       60.2
22:30             243        0.0         43       25.4      160.8       25.4       25.5       11.9     1018.7       37.8       20.7        0.0        0.0        0.0       0.00        0.0       0.00       5.81       60.2
22:32             243        0.0         44       25.3      160.8       25.3       25.5       12.2     1018.7       37.8       20.7        0.0        0.0        0.0       0.00        0.0       0.00       5.84       60.2
22:34             243        0.0         44       25.3      160.8       25.3       25.4       12.2     1018.7       37.8       20.7        0.0        0.0        0.0       0.00        0.0       0.00       5.84       60.2
22:36             243        0.0         45       25.3      160.8       25.3       25.5       12.5     1018.7       37.8       20.7        0.0        0.0        0.0       0.00        0.0       0.00       5.84       60.2
22:38             243        0.0         45       25.2      160.8       25.2       25.4       12.5     1018.8       37.8       20.7        0.0        0.0        0.0       0.00        0.0       0.00       5.84       60.2
22:40             243        0.0         46       25.2      160.8       25.2       25.4       12.7     1018.7       37.8       20.7        0.0        0.0        0.0       0.00        0.0       0.00       5.84       60.2
22:42             243        0.0         46       25.1      160.8       25.1       25.4       12.7     1018.7       37.8       20.7        0.0        0.0        0.0       0.00        0.0       0.00       5.84       60.2
22:44             243        0.0         46       25.1      160.8       25.1       25.3       12.6     1018.7       37.8       20.7        0.0        0.0        0.0       0.00        0.0       0.00       5.84       60.2
22:46             243        0.0         46       25.0      160.8       25.0       25.2       12.6     1018.7       37.8       20.7        0.0        0.0        0.0       0.00        0.0       0.00       5.87       60.2
22:48             243        0.0         45       24.9      160.8       24.9       25.1       12.2     1018.7       37.8       20.7        0.0        0.0        0.0       0.00        0.0       0.00       5.87       60.2
22:50             243        0.0         46       24.8      160.8       24.8       25.1       12.4     1018.7       37.8       20.7        0.0        0.0        0.0       0.00        0.0       0.00       5.87       60.2
22:52             243        0.0         46       24.8      160.8       24.8       25.1       12.4     1018.7       37.8       20.7        0.0        0.0        0.0       0.00        0.0       0.00       5.87       60.2
22:54             243        0.0         46       24.8      160.8       24.8       25.0       12.4     1018.7       37.8       20.7        0.0        0.0        0.0       0.00        0.0       0.00       5.87       60.2
22:56             243        0.0         46       24.7      160.8       24.7       25.0       12.3     1018.6       37.8       20.7        0.0        0.0        0.0       0.00        0.0       0.00       5.87       60.2
22:58             243        0.0         46       24.7      160.8       24.7       24.9       12.3     1018.6       37.8       20.7        0.0        0.0        0.0       0.00        0.0       0.00       5.87       60.2
23:00             243        0.0         46       24.6      160.8       24.6       24.9       12.2     1018.6       37.8       20.7        0.0        0.0        0.0       0.00        0.0       0.00       5.87       60.2
23:02             243        0.0         47       24.6      160.8       24.6       24.9       12.6     1018.6       37.8       20.7        0.0        0.0        0.0       0.00        0.0       0.00       5.90       60.2
23:04             243        0.0         47       24.6      160.8       24.6       24.8       12.5     1018.6       37.8       20.7        0.0        0.0        0.0       0.00        0.0       0.00       5.90       60.2
23:06             243        0.0         47       24.6      160.8       24.6       24.8       12.5     1018.6       37.8       20.7        0.0        0.0        0.0       0.00        0.0       0.00       5.90       60.2
23:08             243        0.0         47       24.5      160.8       24.5       24.8       12.5     1018.6       37.8       20.7        0.0        0.0        0.0       0.00        0.0       0.00       5.90       60.2
23:10             243        0.0         47       24.5      160.8       24.5       24.8       12.5     1018.5       37.8       20.7        0.0        0.0        0.0       0.00        0.0       0.00       5.90       60.2
23:12             243        0.0         46       24.5      160.8       24.5       24.7       12.1     1018.6       37.8       20.7        0.0        0.0        0.0       0.00        0.0       0.00       5.90       60.2
23:14             243        0.0         46       24.5      160.8       24.5       24.7       12.1     1018.5       37.8       20.7        0.0        0.0        0.0       0.00        0.0       0.00       5.90       60.2
23:16             243        0.0         47       24.5      160.8       24.5       24.8       12.5     1018.5       37.8       20.7        0.0        0.0        0.0       0.00        0.0       0.00       5.93       60.2
23:18             243        0.0         47       24.5      160.8       24.5       24.8       12.5     1018.5       37.8       20.7        0.0        0.0        0.0       0.00        0.0       0.00       5.93       60.2
23:20             243        0.0         47       24.5      160.8       24.5       24.8       12.5     1018.5       37.8       20.7        0.0        0.0        0.0       0.00        0.0       0.00       5.93       60.2
23:22             243        0.0         47       24.5      160.8       24.5       24.8       12.5     1018.5       37.8       20.7        0.0        0.0        0.0       0.00        0.0       0.00       5.93       60.2
23:24             243        0.0         47       24.5      160.8       24.5       24.8       12.5     1018.5       37.8       20.7        0.0        0.0        0.0       0.00        0.0       0.00       5.93       60.2
23:26             243        0.0         47       24.5      160.8       24.5       24.8       12.5     1018.6       37.8       20.7        0.0        0.0        0.0       0.00        0.0       0.00       5.93       60.2
23:28             243        0.0         47       24.5      160.8       24.5       24.8       12.5     1018.6       37.8       20.7        0.0        0.0        0.0       0.00        0.0       0.00       5.93       60.2
23:30             243        0.0         47       24.5      160.8       24.5       24.8       12.5     1018.5       37.8       20.7        0.0        0.0        0.0       0.00        0.0       0.00       5.93       60.2
23:32             243        0.0         47       24.5      160.8       24.5       24.8       12.5     1018.5       37.8       20.7        0.0        0.0        0.0       0.00        0.0       0.00       5.95       60.2
23:34             243        0.0         47       24.5      160.8       24.5       24.8       12.5     1018.5       37.8       20.7        0.0        0.0        0.0       0.00        0.0       0.00       5.95       60.2
23:36             243        0.0         47       24.5      160.8       24.5       24.8       12.5     1018.5       37.8       20.7        0.0        0.0        0.0       0.00        0.0       0.00       5.95       60.2
23:38             243        0.0         47       24.5      160.8       24.5       24.8       12.5     1018.5       37.8       20.7        0.0        0.0        0.0       0.00        0.0       0.00       5.95       60.2
23:40             243        0.0         47       24.5      160.8       24.5       24.8       12.5     1018.5       37.8       20.7        0.0        0.0        0.0       0.00        0.0       0.00       5.95       60.2
23:42             243        0.0         47       24.5      160.8       24.5       24.8       12.5     1018.5       37.8       20.7        0.0        0.0        0.0       0.00        0.0       0.00       5.95       60.2
23:44             243        0.0         47       24.5      160.8       24.5       24.8       12.5     1018.5       37.8       20.7        0.0        0.0        0.0       0.00        0.0       0.00       5.95       60.2
23:46             243        0.0         47       24.5      160.8       24.5       24.8       12.5     1018.5       37.8       20.7        0.0        0.0        0.0       0.00        0.0       0.00       5.98       60.2
23:48             243        0.0         48       24.5      160.8       24.5       24.8       12.8     1018.6       37.8       20.7        0.0        0.0        0.0       0.00        0.0       0.00       5.98       60.2
23:50             243        0.0         48       24.4      160.8       24.4       24.8       12.7     1018.6       37.8       20.7        0.0        0.0        0.0       0.00        0.0       0.00       5.98       60.2
23:52             243        0.0         48       24.4      160.8       24.4       24.8       12.7     1018.5       37.8       20.7        0.0        0.0        0.0       0.00        0.0       0.00       5.98       60.2
23:54             243        0.0         48       24.4      160.8       24.4       24.7       12.7     1018.5       37.8       20.7        0.0        0.0        0.0       0.00        0.0       0.00       5.98       60.2
23:56             243        0.0         47       24.4      160.8       24.4       24.7       12.4     1018.6       37.8       20.7        0.0        0.0        0.0       0.00        0.0       0.00       5.98       60.2
23:58             243        0.0         48       24.3      160.8       24.3       24.7       12.6     1018.6       37.8       20.7        0.0        0.0        0.0       0.00        0.0       0.00       5.98       60.2


Detalle de hace 2 das:

29/9/23
Time         Wind Dir  Wind Gust   Humidity       Temp   Tot Rain Wind Chill Heat Index  Dew Point   Barom SL Temp Out H Temp Out L  DailyRain   HourRain   24HrRain   RainRate   Wind Run   Deg Heat   Deg Cool  MonthRain
                          km/hr          %         C         mm         C         C         C         mb         C         C         mm         mm         mm      mm/hr         km         C         C         mm
0:00              263        0.0         51       24.5      160.8       24.5       25.0       13.7     1016.2       24.5       24.5        0.0        0.0        0.0       0.00        0.0       0.00       5.14       60.2
0:02              263        0.0         51       24.5      160.8       24.5       25.0       13.7     1016.3       24.5       24.4        0.0        0.0        0.0       0.00        0.0       0.00       0.03       60.2
0:04              263        0.0         51       24.4      160.8       24.4       24.9       13.7     1016.2       24.5       24.4        0.0        0.0        0.0       0.00        0.0       0.00       0.03       60.2
0:05              263        0.0         51       24.4      160.8       24.4       24.9       13.7     1016.3       24.5       24.4        0.0        0.0        0.0       0.00        0.0       0.00       0.03       60.2
0:08              263        0.0         51       24.4      160.8       24.4       24.9       13.7     1016.3       24.5       24.4        0.0        0.0        0.0       0.00        0.0       0.00       0.03       60.2
0:10              263        0.0         51       24.4      160.8       24.4       24.9       13.7     1016.3       24.5       24.4        0.0        0.0        0.0       0.00        0.0       0.00       0.03       60.2
0:12              263        0.0         51       24.4      160.8       24.4       24.9       13.7     1016.3       24.5       24.4        0.0        0.0        0.0       0.00        0.0       0.00       0.03       60.2
0:14              263        0.0         51       24.4      160.8       24.4       24.9       13.7     1016.3       24.5       24.4        0.0        0.0        0.0       0.00        0.0       0.00       0.03       60.2
0:16              263        0.0         51       24.4      160.8       24.4       24.9       13.7     1016.3       24.5       24.4        0.0        0.0        0.0       0.00        0.0       0.00       0.05       60.2
0:18              263        0.0         51       24.4      160.8       24.4       24.9       13.6     1016.3       24.5       24.4        0.0        0.0        0.0       0.00        0.0       0.00       0.05       60.2
0:20              263        0.0         51       24.4      160.8       24.4       24.9       13.6     1016.3       24.5       24.4        0.0        0.0        0.0       0.00        0.0       0.00       0.05       60.2
0:22              263        0.0         51       24.4      160.8       24.4       24.9       13.6     1016.3       24.5       24.4        0.0        0.0        0.0       0.00        0.0       0.00       0.05       60.2
0:24              263        0.0         51       24.4      160.8       24.4       24.9       13.6     1016.3       24.5       24.4        0.0        0.0        0.0       0.00        0.0       0.00       0.05       60.2
0:26              263        0.0         51       24.4      160.8       24.4       24.9       13.6     1016.4       24.5       24.3        0.0        0.0        0.0       0.00        0.0       0.00       0.05       60.2
0:28              263        0.0         51       24.4      160.8       24.4       24.9       13.6     1016.4       24.5       24.3        0.0        0.0        0.0       0.00        0.0       0.00       0.05       60.2
0:30              263        0.0         51       24.4      160.8       24.4       24.9       13.6     1016.4       24.5       24.3        0.0        0.0        0.0       0.00        0.0       0.00       0.05       60.2
0:32              263        0.0         51       24.4      160.8       24.4       24.9       13.6     1016.4       24.5       24.3        0.0        0.0        0.0       0.00        0.0       0.00       0.08       60.2
0:34              263        0.0         51       24.4      160.8       24.4       24.9       13.6     1016.3       24.5       24.3        0.0        0.0        0.0       0.00        0.0       0.00       0.08       60.2
0:36              263        0.0         51       24.4      160.8       24.4       24.9       13.6     1016.4       24.5       24.3        0.0        0.0        0.0       0.00        0.0       0.00       0.08       60.2
0:38              263        0.0         51       24.3      160.8       24.3       24.8       13.6     1016.3       24.5       24.3        0.0        0.0        0.0       0.00        0.0       0.00       0.08       60.2
0:40              263        0.0         51       24.3      160.8       24.3       24.8       13.6     1016.4       24.5       24.3        0.0        0.0        0.0       0.00        0.0       0.00       0.08       60.2
0:42              263        0.0         51       24.3      160.8       24.3       24.8       13.6     1016.4       24.5       24.3        0.0        0.0        0.0       0.00        0.0       0.00       0.08       60.2
0:44              263        0.0         51       24.3      160.8       24.3       24.8       13.6     1016.4       24.5       24.3        0.0        0.0        0.0       0.00        0.0       0.00       0.08       60.2
0:46              263        0.0         51       24.3      160.8       24.3       24.8       13.5     1016.4       24.5       24.3        0.0        0.0        0.0       0.00        0.0       0.00       0.10       60.2
0:48              263        0.0         51       24.3      160.8       24.3       24.8       13.5     1016.4       24.5       24.3        0.0        0.0        0.0       0.00        0.0       0.00       0.10       60.2
0:50              263        0.0         51       24.2      160.8       24.2       24.7       13.5     1016.4       24.5       24.2        0.0        0.0        0.0       0.00        0.0       0.00       0.10       60.2
0:52              263        0.0         51       24.2      160.8       24.2       24.7       13.5     1016.4       24.5       24.2        0.0        0.0        0.0       0.00        0.0       0.00       0.10       60.2
0:54              263        0.0         51       24.2      160.8       24.2       24.7       13.4     1016.4       24.5       24.2        0.0        0.0        0.0       0.00        0.0       0.00       0.10       60.2
0:56              263        0.0         52       24.2      160.8       24.2       24.7       13.7     1016.3       24.5       24.2        0.0        0.0        0.0       0.00        0.0       0.00       0.10       60.2
0:58              263        0.0         51       24.1      160.8       24.1       24.6       13.4     1016.4       24.5       24.1        0.0        0.0        0.0       0.00        0.0       0.00       0.10       60.2
1:00              263        0.0         52       24.1      160.8       24.1       24.7       13.7     1016.4       24.5       24.1        0.0        0.0        0.0       0.00        0.0       0.00       0.10       60.2
1:02              263        0.0         51       24.1      160.8       24.1       24.6       13.3     1016.4       24.5       24.1        0.0        0.0        0.0       0.00        0.0       0.00       0.12       60.2
1:04              263        0.0         51       24.1      160.8       24.1       24.6       13.3     1016.3       24.5       24.1        0.0        0.0        0.0       0.00        0.0       0.00       0.12       60.2
1:06              263        0.0         51       24.1      160.8       24.1       24.6       13.3     1016.3       24.5       24.1        0.0        0.0        0.0       0.00        0.0       0.00       0.12       60.2
1:08              263        0.0         52       24.1      160.8       24.1       24.6       13.6     1016.3       24.5       24.1        0.0        0.0        0.0       0.00        0.0       0.00       0.12       60.2
1:10              263        0.0         51       24.1      160.8       24.1       24.6       13.3     1016.4       24.5       24.1        0.0        0.0        0.0       0.00        0.0       0.00       0.12       60.2
1:12              263        0.0         51       24.1      160.8       24.1       24.6       13.3     1016.4       24.5       24.1        0.0        0.0        0.0       0.00        0.0       0.00       0.12       60.2
1:14              263        0.0         51       24.1      160.8       24.1       24.6       13.3     1016.4       24.5       24.1        0.0        0.0        0.0       0.00        0.0       0.00       0.12       60.2
1:16              263        0.0         52       24.1      160.8       24.1       24.6       13.6     1016.3       24.5       24.1        0.0        0.0        0.0       0.00        0.0       0.00       0.14       60.2
1:18              263        0.0         52       24.0      160.8       24.0       24.6       13.5     1016.2       24.5       24.0        0.0        0.0        0.0       0.00        0.0       0.00       0.14       60.2
1:20              263        0.0         52       24.0      160.8       24.0       24.6       13.5     1016.4       24.5       24.0        0.0        0.0        0.0       0.00        0.0       0.00       0.14       60.2
1:22              263        0.0         52       24.0      160.8       24.0       24.6       13.5     1016.3       24.5       24.0        0.0        0.0        0.0       0.00        0.0       0.00       0.14       60.2
1:24              263        0.0         52       23.9      160.8       23.9       24.5       13.5     1016.4       24.5       23.9        0.0        0.0        0.0       0.00        0.0       0.00       0.14       60.2
1:26              263        0.0         52       23.9      160.8       23.9       24.4       13.4     1016.4       24.5       23.9        0.0        0.0        0.0       0.00        0.0       0.00       0.14       60.2
1:28              263        0.0         52       23.8      160.8       23.8       24.4       13.4     1016.4       24.5       23.8        0.0        0.0        0.0       0.00        0.0       0.00       0.14       60.2
1:30              263        0.0         52       23.8      160.8       23.8       24.4       13.4     1016.3       24.5       23.8        0.0        0.0        0.0       0.00        0.0       0.00       0.14       60.2
1:32              263        0.0         52       23.8      160.8       23.8       24.3       13.3     1016.3       24.5       23.8        0.0        0.0        0.0       0.00        0.0       0.00       0.16       60.2
1:33              263        0.0         52       23.7      160.8       23.7       24.3       13.3     1016.3       24.5       23.7        0.0        0.0        0.0       0.00        0.0       0.00       0.16       60.2
1:36              263        0.0         53       23.7      160.8       23.7       24.3       13.5     1016.3       24.5       23.7        0.0        0.0        0.0       0.00        0.0       0.00       0.16       60.2
1:38              263        0.0         53       23.6      160.8       23.6       24.2       13.5     1016.3       24.5       23.6        0.0        0.0        0.0       0.00        0.0       0.00       0.16       60.2
1:40              263        0.0         53       23.6      160.8       23.6       24.2       13.4     1016.3       24.5       23.6        0.0        0.0        0.0       0.00        0.0       0.00       0.16       60.2
1:42              263        0.0         53       23.5      160.8       23.5       24.1       13.4     1016.3       24.5       23.5        0.0        0.0        0.0       0.00        0.0       0.00       0.16       60.2
1:44              263        0.0         54       23.4      160.8       23.4       24.0       13.6     1016.3       24.5       23.4        0.0        0.0        0.0       0.00        0.0       0.00       0.16       60.2
1:46              263        0.0         54       23.3      160.8       23.3       24.0       13.5     1016.3       24.5       23.3        0.0        0.0        0.0       0.00        0.0       0.00       0.18       60.2
1:48              263        0.0         54       23.3      160.8       23.3       23.9       13.5     1016.3       24.5       23.3        0.0        0.0        0.0       0.00        0.0       0.00       0.18       60.2
1:50              263        0.0         54       23.2      160.8       23.2       23.9       13.4     1016.3       24.5       23.2        0.0        0.0        0.0       0.00        0.0       0.00       0.18       60.2
1:52              263        0.0         55       23.2      160.8       23.2       23.9       13.6     1016.2       24.5       23.2        0.0        0.0        0.0       0.00        0.0       0.00       0.18       60.2
1:54              263        0.0         55       23.1      160.8       23.1       23.8       13.6     1016.3       24.5       23.1        0.0        0.0        0.0       0.00        0.0       0.00       0.18       60.2
1:56              263        0.0         55       23.1      160.8       23.1       23.8       13.5     1016.2       24.5       23.1        0.0        0.0        0.0       0.00        0.0       0.00       0.18       60.2
1:58              263        0.0         55       23.0      160.8       23.0       23.7       13.5     1016.3       24.5       23.0        0.0        0.0        0.0       0.00        0.0       0.00       0.18       60.2
2:00              263        0.0         55       22.9      160.8       22.9       23.7       13.4     1016.3       24.5       22.9        0.0        0.0        0.0       0.00        0.0       0.00       0.18       60.2
2:02              263        0.0         55       22.9      160.8       22.9       23.6       13.4     1016.1       24.5       22.8        0.0        0.0        0.0       0.00        0.0       0.00       0.19       60.2
2:04              263        0.0         55       22.8      160.8       22.8       23.5       13.3     1016.1       24.5       22.8        0.0        0.0        0.0       0.00        0.0       0.00       0.19       60.2
2:06              263        0.0         55       22.8      160.8       22.8       23.5       13.3     1016.2       24.5       22.8        0.0        0.0        0.0       0.00        0.0       0.00       0.19       60.2
2:08              263        0.0         55       22.7      160.8       22.7       23.4       13.2     1016.2       24.5       22.7        0.0        0.0        0.0       0.00        0.0       0.00       0.19       60.2
2:10              263        0.0         56       22.7      160.8       22.7       23.4       13.4     1016.1       24.5       22.7        0.0        0.0        0.0       0.00        0.0       0.00       0.19       60.2
2:12              263        0.0         56       22.6      160.8       22.6       23.4       13.4     1016.1       24.5       22.6        0.0        0.0        0.0       0.00        0.0       0.00       0.19       60.2
2:14              263        0.0         56       22.6      160.8       22.6       23.3       13.3     1016.1       24.5       22.6        0.0        0.0        0.0       0.00        0.0       0.00       0.19       60.2
2:16              263        0.0         56       22.5      160.8       22.5       23.3       13.3     1016.1       24.5       22.5        0.0        0.0        0.0       0.00        0.0       0.00       0.19       60.2
2:18              263        0.0         56       22.5      160.8       22.5       23.3       13.3     1016.0       24.5       22.4        0.0        0.0        0.0       0.00        0.0       0.00       0.19       60.2
2:20              263        0.0         56       22.4      160.8       22.4       23.2       13.2     1016.0       24.5       22.4        0.0        0.0        0.0       0.00        0.0       0.00       0.19       60.2
2:22              263        0.0         56       22.4      160.8       22.4       23.2       13.2     1016.0       24.5       22.4        0.0        0.0        0.0       0.00        0.0       0.00       0.19       60.2
2:24              263        0.0         56       22.3      160.8       22.3       23.1       13.1     1016.1       24.5       22.3        0.0        0.0        0.0       0.00        0.0       0.00       0.19       60.2
2:26              263        0.0         56       22.3      160.8       22.3       23.1       13.1     1016.1       24.5       22.3        0.0        0.0        0.0       0.00        0.0       0.00       0.19       60.2
2:28              263        0.0         56       22.3      160.8       22.3       23.1       13.1     1016.1       24.5       22.3        0.0        0.0        0.0       0.00        0.0       0.00       0.19       60.2
2:30              263        0.0         57       22.3      160.8       22.3       23.1       13.4     1016.1       24.5       22.3        0.0        0.0        0.0       0.00        0.0       0.00       0.19       60.2
2:32              263        0.0         57       22.2      160.8       22.2       23.1       13.3     1016.0       24.5       22.2        0.0        0.0        0.0       0.00        0.0       0.00       0.20       60.2
2:34              263        0.0         57       22.2      160.8       22.2       23.0       13.3     1016.0       24.5       22.2        0.0        0.0        0.0       0.00        0.0       0.00       0.20       60.2
2:36              263        0.0         57       22.1      160.8       22.1       22.9       13.2     1016.1       24.5       22.1        0.0        0.0        0.0       0.00        0.0       0.00       0.20       60.2
2:38              263        0.0         57       22.1      160.8       22.1       22.9       13.2     1016.0       24.5       22.1        0.0        0.0        0.0       0.00        0.0       0.00       0.20       60.2
2:40              263        0.0         57       22.1      160.8       22.1       22.9       13.2     1016.0       24.5       22.1        0.0        0.0        0.0       0.00        0.0       0.00       0.20       60.2
2:42              263        0.0         57       22.0      160.8       22.0       22.8       13.1     1016.0       24.5       22.0        0.0        0.0        0.0       0.00        0.0       0.00       0.20       60.2
2:44              263        0.0         57       22.0      160.8       22.0       22.8       13.1     1016.0       24.5       22.0        0.0        0.0        0.0       0.00        0.0       0.00       0.20       60.2
2:46              263        0.0         57       22.0      160.8       22.0       22.8       13.1     1015.9       24.5       22.0        0.0        0.0        0.0       0.00        0.0       0.00       0.20       60.2
2:47              263        0.0         57       21.9      160.8       21.9       22.8       13.0     1016.0       24.5       21.9        0.0        0.0        0.0       0.00        0.0       0.00       0.20       60.2
2:50              263        0.0         57       21.9      160.8       21.9       22.7       13.0     1016.1       24.5       21.9        0.0        0.0        0.0       0.00        0.0       0.00       0.20       60.2
2:52              263        0.0         57       21.9      160.8       21.9       22.7       13.0     1016.0       24.5       21.9        0.0        0.0        0.0       0.00        0.0       0.00       0.20       60.2
2:54              263        0.0         58       21.8      160.8       21.8       22.7       13.2     1016.0       24.5       21.8        0.0        0.0        0.0       0.00        0.0       0.00       0.20       60.2
2:56              263        0.0         57       21.8      160.8       21.8       22.7       12.9     1015.9       24.5       21.8        0.0        0.0        0.0       0.00        0.0       0.00       0.20       60.2
2:58              263        0.0         57       21.8      160.8       21.8       22.6       12.9     1016.1       24.5       21.8        0.0        0.0        0.0       0.00        0.0       0.00       0.20       60.2
3:00              263        0.0         57       21.7      160.8       21.7       22.6       12.8     1016.1       24.5       21.7        0.0        0.0        0.0       0.00        0.0       0.00       0.20       60.2
3:02              263        0.0         56       21.7      160.8       21.7       22.4       12.5     1016.0       24.5       21.7        0.0        0.0        0.0       0.00        0.0       0.00       0.20       60.2
3:04              263        0.0         56       21.6      160.8       21.6       22.4       12.5     1016.0       24.5       21.6        0.0        0.0        0.0       0.00        0.0       0.00       0.20       60.2
3:06              263        0.0         56       21.6      160.8       21.6       22.3       12.4     1016.1       24.5       21.6        0.0        0.0        0.0       0.00        0.0       0.00       0.20       60.2
3:08              263        0.0         56       21.6      160.8       21.6       22.3       12.4     1016.1       24.5       21.6        0.0        0.0        0.0       0.00        0.0       0.00       0.20       60.2
3:10              263        0.0         57       21.5      160.8       21.5       22.3       12.6     1016.2       24.5       21.5        0.0        0.0        0.0       0.00        0.0       0.00       0.20       60.2
3:12              263        0.0         57       21.4      160.8       21.4       22.3       12.6     1016.1       24.5       21.4        0.0        0.0        0.0       0.00        0.0       0.00       0.20       60.2
3:14              263        0.0         57       21.4      160.8       21.4       22.3       12.6     1016.1       24.5       21.4        0.0        0.0        0.0       0.00        0.0       0.00       0.20       60.2
3:16              263        0.0         57       21.4      160.8       21.4       22.2       12.5     1016.1       24.5       21.4        0.0        0.0        0.0       0.00        0.0       0.00       0.20       60.2
3:18              263        0.0         57       21.4      160.8       21.4       22.2       12.5     1016.1       24.5       21.4        0.0        0.0        0.0       0.00        0.0       0.00       0.20       60.2
3:20              263        0.0         57       21.4      160.8       21.4       22.2       12.5     1016.1       24.5       21.4        0.0        0.0        0.0       0.00        0.0       0.00       0.20       60.2
3:22              263        0.0         57       21.4      160.8       21.4       22.2       12.5     1016.1       24.5       21.4        0.0        0.0        0.0       0.00        0.0       0.00       0.20       60.2
3:24              263        0.0         57       21.4      160.8       21.4       22.2       12.5     1016.1       24.5       21.3        0.0        0.0        0.0       0.00        0.0       0.00       0.20       60.2
3:26              263        0.0         58       21.3      160.8       21.3       22.2       12.7     1016.1       24.5       21.3        0.0        0.0        0.0       0.00        0.0       0.00       0.20       60.2
3:27              263        0.0         58       21.3      160.8       21.3       22.2       12.7     1016.1       24.5       21.3        0.0        0.0        0.0       0.00        0.0       0.00       0.20       60.2
3:30              263        0.0         58       21.3      160.8       21.3       22.2       12.7     1016.1       24.5       21.3        0.0        0.0        0.0       0.00        0.0       0.00       0.20       60.2
3:32              263        0.0         58       21.3      160.8       21.3       22.2       12.7     1016.1       24.5       21.3        0.0        0.0        0.0       0.00        0.0       0.00       0.20       60.2
3:33              263        0.0         58       21.3      160.8       21.3       22.2       12.7     1016.0       24.5       21.3        0.0        0.0        0.0       0.00        0.0       0.00       0.20       60.2
3:36              263        0.0         58       21.2      160.8       21.2       22.1       12.6     1016.0       24.5       21.2        0.0        0.0        0.0       0.00        0.0       0.00       0.20       60.2
3:38              263        0.0         58       21.2      160.8       21.2       22.1       12.6     1016.1       24.5       21.2        0.0        0.0        0.0       0.00        0.0       0.00       0.20       60.2
3:40              263        0.0         58       21.1      160.8       21.1       22.0       12.5     1016.1       24.5       21.1        0.0        0.0        0.0       0.00        0.0       0.00       0.20       60.2
3:42              263        0.0         58       21.1      160.8       21.1       21.9       12.5     1016.1       24.5       21.1        0.0        0.0        0.0       0.00        0.0       0.00       0.20       60.2
3:44              263        0.0         58       21.0      160.8       21.0       21.9       12.4     1016.1       24.5       21.0        0.0        0.0        0.0       0.00        0.0       0.00       0.20       60.2
3:46              263        0.0         58       20.9      160.8       20.9       21.8       12.4     1016.1       24.5       20.9        0.0        0.0        0.0       0.00        0.0       0.00       0.20       60.2
3:48              263        0.0         58       20.9      160.8       20.9       21.8       12.3     1016.0       24.5       20.9        0.0        0.0        0.0       0.00        0.0       0.00       0.20       60.2
3:50              263        0.0         59       20.9      160.8       20.9       21.8       12.6     1016.0       24.5       20.8        0.0        0.0        0.0       0.00        0.0       0.00       0.20       60.2
3:52              263        0.0         59       20.8      160.8       20.8       21.8       12.5     1016.0       24.5       20.8        0.0        0.0        0.0       0.00        0.0       0.00       0.20       60.2
3:54              263        0.0         59       20.8      160.8       20.8       21.7       12.5     1016.1       24.5       20.8        0.0        0.0        0.0       0.00        0.0       0.00       0.20       60.2
3:56              263        0.0         59       20.7      160.8       20.7       21.7       12.4     1016.0       24.5       20.7        0.0        0.0        0.0       0.00        0.0       0.00       0.20       60.2
3:57              263        0.0         59       20.7      160.8       20.7       21.7       12.4     1016.0       24.5       20.7        0.0        0.0        0.0       0.00        0.0       0.00       0.20       60.2
4:00              263        0.0         60       20.7      160.8       20.7       21.7       12.6     1016.1       24.5       20.7        0.0        0.0        0.0       0.00        0.0       0.00       0.20       60.2
4:02              263        0.0         60       20.6      160.8       20.6       21.6       12.6     1016.1       24.5       20.6        0.0        0.0        0.0       0.00        0.0       0.00       0.20       60.2
4:04              263        0.0         60       20.6      160.8       20.6       21.6       12.5     1016.1       24.5       20.6        0.0        0.0        0.0       0.00        0.0       0.00       0.20       60.2
4:06              263        0.0         60       20.6      160.8       20.6       21.6       12.5     1016.0       24.5       20.6        0.0        0.0        0.0       0.00        0.0       0.00       0.20       60.2
4:08              263        0.0         61       20.5      160.8       20.5       21.6       12.7     1016.0       24.5       20.5        0.0        0.0        0.0       0.00        0.0       0.00       0.20       60.2
4:10              263        0.0         61       20.4      160.8       20.4       21.5       12.7     1016.1       24.5       20.4        0.0        0.0        0.0       0.00        0.0       0.00       0.20       60.2
4:12              263        0.0         61       20.4      160.8       20.4       21.5       12.7     1016.1       24.5       20.4        0.0        0.0        0.0       0.00        0.0       0.00       0.20       60.2
4:14              263        0.0         61       20.4      160.8       20.4       21.5       12.7     1016.1       24.5       20.4        0.0        0.0        0.0       0.00        0.0       0.00       0.20       60.2
4:15              263        0.0         62       20.4      160.8       20.4       21.5       12.9     1016.1       24.5       20.4        0.0        0.0        0.0       0.00        0.0       0.00       0.20       60.2
4:18              263        0.0         62       20.3      160.8       20.3       21.5       12.8     1016.0       24.5       20.3        0.0        0.0        0.0       0.00        0.0       0.00       0.20       60.2
4:20              263        0.0         62       20.3      160.8       20.3       21.5       12.8     1016.1       24.5       20.3        0.0        0.0        0.0       0.00        0.0       0.00       0.20       60.2
4:22              263        0.0         62       20.3      160.8       20.3       21.5       12.8     1016.1       24.5       20.3        0.0        0.0        0.0       0.00        0.0       0.00       0.20       60.2
4:24              263        0.0         62       20.3      160.8       20.3       21.5       12.8     1016.1       24.5       20.3        0.0        0.0        0.0       0.00        0.0       0.00       0.20       60.2
4:26              263        0.0         62       20.3      160.8       20.3       21.5       12.8     1016.1       24.5       20.3        0.0        0.0        0.0       0.00        0.0       0.00       0.20       60.2
4:28              263        0.0         62       20.3      160.8       20.3       21.4       12.8     1016.1       24.5       20.3        0.0        0.0        0.0       0.00        0.0       0.00       0.20       60.2
4:29              263        0.0         62       20.3      160.8       20.3       21.4       12.8     1016.1       24.5       20.3        0.0        0.0        0.0       0.00        0.0       0.00       0.20       60.2
4:32              263        0.0         62       20.3      160.8       20.3       21.4       12.8     1016.1       24.5       20.3        0.0        0.0        0.0       0.00        0.0       0.00       0.20       60.2
4:34              263        0.0         61       20.3      160.8       20.3       21.3       12.5     1016.1       24.5       20.3        0.0        0.0        0.0       0.00        0.0       0.00       0.20       60.2
4:36              263        0.0         62       20.3      160.8       20.3       21.4       12.8     1016.1       24.5       20.3        0.0        0.0        0.0       0.00        0.0       0.00       0.20       60.2
4:38              263        0.0         61       20.3      160.8       20.3       21.3       12.5     1016.1       24.5       20.3        0.0        0.0        0.0       0.00        0.0       0.00       0.20       60.2
4:40              263        0.0         61       20.3      160.8       20.3       21.4       12.6     1016.1       24.5       20.3        0.0        0.0        0.0       0.00        0.0       0.00       0.20       60.2
4:42              263        0.0         61       20.4      160.8       20.4       21.5       12.6     1016.1       24.5       20.3        0.0        0.0        0.0       0.00        0.0       0.00       0.20       60.2
4:44              263        0.0         60       20.4      160.8       20.4       21.4       12.4     1016.1       24.5       20.3        0.0        0.0        0.0       0.00        0.0       0.00       0.20       60.2
4:46              263        0.0         60       20.5      160.8       20.5       21.5       12.5     1016.1       24.5       20.3        0.0        0.0        0.0       0.00        0.0       0.00       0.20       60.2
4:48              264        0.0         60       20.6      160.8       20.6       21.6       12.5     1016.2       24.5       20.3        0.0        0.0        0.0       0.00        0.0       0.00       0.20       60.2
4:50              265        0.0         60       20.6      160.8       20.6       21.6       12.6     1016.2       24.5       20.3        0.0        0.0        0.0       0.00        0.0       0.00       0.20       60.2
4:52              265        0.0         60       20.7      160.8       20.7       21.7       12.7     1016.2       24.5       20.3        0.0        0.0        0.0       0.00        0.0       0.00       0.20       60.2
4:53              265        0.0         60       20.7      160.8       20.7       21.7       12.7     1016.1       24.5       20.3        0.0        0.0        0.0       0.00        0.0       0.00       0.20       60.2
4:56              265        0.0         60       20.7      160.8       20.7       21.7       12.7     1016.2       24.5       20.3        0.0        0.0        0.0       0.00        0.0       0.00       0.20       60.2
4:58              265        0.0         59       20.7      160.8       20.7       21.6       12.4     1016.3       24.5       20.3        0.0        0.0        0.0       0.00        0.0       0.00       0.20       60.2
5:00              265        0.0         60       20.7      160.8       20.7       21.7       12.6     1016.3       24.5       20.3        0.0        0.0        0.0       0.00        0.0       0.00       0.20       60.2
5:02              265        0.0         59       20.7      160.8       20.7       21.6       12.4     1016.3       24.5       20.3        0.0        0.0        0.0       0.00        0.0       0.00       0.20       60.2
5:04              265        0.0         59       20.6      160.8       20.6       21.6       12.3     1016.3       24.5       20.3        0.0        0.0        0.0       0.00        0.0       0.00       0.20       60.2
5:06              265        0.0         59       20.7      160.8       20.7       21.6       12.4     1016.3       24.5       20.3        0.0        0.0        0.0       0.00        0.0       0.00       0.20       60.2
5:08              266        0.0         59       20.7      160.8       20.7       21.6       12.4     1016.4       24.5       20.3        0.0        0.0        0.0       0.00        0.0       0.00       0.20       60.2
5:10              265        0.0         59       20.8      160.8       20.8       21.7       12.5     1016.4       24.5       20.3        0.0        0.0        0.0       0.00        0.0       0.00       0.20       60.2
5:12              265        0.0         58       20.8      160.8       20.8       21.7       12.3     1016.5       24.5       20.3        0.0        0.0        0.0       0.00        0.0       0.00       0.20       60.2
5:14              267        0.0         58       20.9      160.8       20.9       21.8       12.3     1016.4       24.5       20.3        0.0        0.0        0.0       0.00        0.0       0.00       0.20       60.2
5:16              267        0.0         57       20.9      160.8       20.9       21.8       12.1     1016.4       24.5       20.3        0.0        0.0        0.0       0.00        0.0       0.00       0.20       60.2
5:18              267        0.0         57       21.0      160.8       21.0       21.8       12.2     1016.4       24.5       20.3        0.0        0.0        0.0       0.00        0.0       0.00       0.20       60.2
5:20              267        0.0         57       21.1      160.8       21.1       21.9       12.2     1016.4       24.5       20.3        0.0        0.0        0.0       0.00        0.0       0.00       0.20       60.2
5:22              267        0.0         57       21.1      160.8       21.1       21.9       12.3     1016.4       24.5       20.3        0.0        0.0        0.0       0.00        0.0       0.00       0.20       60.2
5:24              271        0.0         56       21.2      160.8       21.2       22.0       12.1     1016.4       24.5       20.3        0.0        0.0        0.0       0.00        0.0       0.00       0.20       60.2
5:26              271        0.0         56       21.3      160.8       21.3       22.1       12.2     1016.4       24.5       20.3        0.0        0.0        0.0       0.00        0.0       0.00       0.20       60.2
5:28              273        0.0         56       21.4      160.8       21.4       22.2       12.3     1016.4       24.5       20.3        0.0        0.0        0.0       0.00        0.0       0.00       0.20       60.2
5:30              294        0.0         55       21.4      160.8       21.4       22.2       12.0     1016.5       24.5       20.3        0.0        0.0        0.0       0.00        0.0       0.00       0.20       60.2
5:32              294        0.0         55       21.5      160.8       21.5       22.2       12.1     1016.4       24.5       20.3        0.0        0.0        0.0       0.00        0.0       0.00       0.20       60.2
5:34              294        0.0         55       21.5      160.8       21.5       22.2       12.1     1016.5       24.5       20.3        0.0        0.0        0.0       0.00        0.0       0.00       0.20       60.2
5:35              294        0.0         55       21.5      160.8       21.5       22.2       12.1     1016.5       24.5       20.3        0.0        0.0        0.0       0.00        0.0       0.00       0.20       60.2
5:38              294        0.0         56       21.5      160.8       21.5       22.3       12.4     1016.4       24.5       20.3        0.0        0.0        0.0       0.00        0.0       0.00       0.20       60.2
5:40              294        0.0         56       21.5      160.8       21.5       22.3       12.4     1016.4       24.5       20.3        0.0        0.0        0.0       0.00        0.0       0.00       0.20       60.2
5:42              294        0.0         56       21.4      160.8       21.4       22.2       12.3     1016.6       24.5       20.3        0.0        0.0        0.0       0.00        0.0       0.00       0.20       60.2
5:44              294        0.0         56       21.4      160.8       21.4       22.2       12.3     1016.5       24.5       20.3        0.0        0.0        0.0       0.00        0.0       0.00       0.20       60.2
5:46              294        0.0         56       21.3      160.8       21.3       22.1       12.2     1016.6       24.5       20.3        0.0        0.0        0.0       0.00        0.0       0.00       0.20       60.2
5:48              294        0.0         56       21.3      160.8       21.3       22.1       12.2     1016.6       24.5       20.3        0.0        0.0        0.0       0.00        0.0       0.00       0.20       60.2
5:50              294        0.0         56       21.3      160.8       21.3       22.1       12.2     1016.7       24.5       20.3        0.0        0.0        0.0       0.00        0.0       0.00       0.20       60.2
5:52              294        0.0         56       21.3      160.8       21.3       22.1       12.2     1016.7       24.5       20.3        0.0        0.0        0.0       0.00        0.0       0.00       0.20       60.2
5:54              294        0.0         57       21.2      160.8       21.2       22.1       12.4     1016.8       24.5       20.3        0.0        0.0        0.0       0.00        0.0       0.00       0.20       60.2
5:56              294        0.0         57       21.2      160.8       21.2       22.0       12.3     1016.7       24.5       20.3        0.0        0.0        0.0       0.00        0.0       0.00       0.20       60.2
5:58              294        0.0         57       21.1      160.8       21.1       21.9       12.3     1016.8       24.5       20.3        0.0        0.0        0.0       0.00        0.0       0.00       0.20       60.2
6:00              295        0.0         57       21.0      160.8       21.0       21.8       12.2     1016.7       24.5       20.3        0.0        0.0        0.0       0.00        0.0       0.00       0.20       60.2
6:01              295        0.0         57       20.9      160.8       20.9       21.8       12.1     1016.8       24.5       20.3        0.0        0.0        0.0       0.00        0.0       0.00       0.20       60.2
6:04              295        0.0         57       20.8      160.8       20.8       21.7       12.0     1016.8       24.5       20.3        0.0        0.0        0.0       0.00        0.0       0.00       0.20       60.2
6:06              295        0.0         58       20.8      160.8       20.8       21.7       12.3     1016.7       24.5       20.3        0.0        0.0        0.0       0.00        0.0       0.00       0.20       60.2
6:08              295        0.0         58       20.8      160.8       20.8       21.7       12.2     1016.8       24.5       20.3        0.0        0.0        0.0       0.00        0.0       0.00       0.20       60.2
6:10              295        0.0         58       20.8      160.8       20.8       21.7       12.2     1016.8       24.5       20.3        0.0        0.0        0.0       0.00        0.0       0.00       0.20       60.2
6:12              295        0.0         58       20.7      160.8       20.7       21.6       12.2     1016.8       24.5       20.3        0.0        0.0        0.0       0.00        0.0       0.00       0.20       60.2
6:13              295        0.0         58       20.7      160.8       20.7       21.6       12.2     1016.8       24.5       20.3        0.0        0.0        0.0       0.00        0.0       0.00       0.20       60.2
6:16              295        0.0         58       20.7      160.8       20.7       21.6       12.2     1016.8       24.5       20.3        0.0        0.0        0.0       0.00        0.0       0.00       0.20       60.2
6:18              295        0.0         58       20.7      160.8       20.7       21.6       12.2     1016.8       24.5       20.3        0.0        0.0        0.0       0.00        0.0       0.00       0.20       60.2
6:20              295        0.0         57       20.8      160.8       20.8       21.6       12.0     1016.8       24.5       20.3        0.0        0.0        0.0       0.00        0.0       0.00       0.20       60.2
6:22              295        0.0         57       20.8      160.8       20.8       21.7       12.0     1016.8       24.5       20.3        0.0        0.0        0.0       0.00        0.0       0.00       0.20       60.2
6:24              296        0.0         57       20.9      160.8       20.9       21.8       12.1     1016.8       24.5       20.3        0.0        0.0        0.0       0.00        0.0       0.00       0.20       60.2
6:26              298        0.0         57       21.0      160.8       21.0       21.8       12.2     1016.9       24.5       20.3        0.0        0.0        0.0       0.00        0.0       0.00       0.20       60.2
6:27              300        0.0         57       21.1      160.8       21.1       21.9       12.2     1016.8       24.5       20.3        0.0        0.0        0.0       0.00        0.0       0.00       0.20       60.2
6:30              299        0.0         57       21.1      160.8       21.1       21.9       12.3     1016.8       24.5       20.3        0.0        0.0        0.0       0.00        0.0       0.00       0.20       60.2
6:32              300        0.0         57       21.2      160.8       21.2       22.0       12.3     1016.9       24.5       20.3        0.0        0.0        0.0       0.00        0.0       0.00       0.20       60.2
6:34              299        0.0         56       21.2      160.8       21.2       21.9       12.1     1017.0       24.5       20.3        0.0        0.0        0.0       0.00        0.0       0.00       0.20       60.2
6:36              299        0.0         56       21.2      160.8       21.2       22.0       12.1     1016.9       24.5       20.3        0.0        0.0        0.0       0.00        0.0       0.00       0.20       60.2
6:38              306        0.0         56       21.3      160.8       21.3       22.1       12.2     1016.9       24.5       20.3        0.0        0.0        0.0       0.00        0.0       0.00       0.20       60.2
6:40              309        0.0         56       21.3      160.8       21.3       22.1       12.2     1016.9       24.5       20.3        0.0        0.0        0.0       0.00        0.0       0.00       0.20       60.2
6:42              309        0.0         56       21.3      160.8       21.3       22.1       12.2     1017.0       24.5       20.3        0.0        0.0        0.0       0.00        0.0       0.00       0.20       60.2
6:44              309        0.0         56       21.3      160.8       21.3       22.1       12.2     1017.2       24.5       20.3        0.0        0.0        0.0       0.00        0.0       0.00       0.20       60.2
6:46                9        0.0         56       21.3      160.8       21.3       22.1       12.2     1017.1       24.5       20.3        0.0        0.0        0.0       0.00        0.0       0.00       0.20       60.2
6:48                5        0.0         56       21.3      160.8       21.3       22.1       12.2     1017.1       24.5       20.3        0.0        0.0        0.0       0.00        0.0       0.00       0.20       60.2
6:50               14        0.0         56       21.3      160.8       21.3       22.1       12.2     1017.1       24.5       20.3        0.0        0.0        0.0       0.00        0.0       0.00       0.20       60.2
6:52               14        0.0         56       21.3      160.8       21.3       22.1       12.2     1017.2       24.5       20.3        0.0        0.0        0.0       0.00        0.0       0.00       0.20       60.2
6:53               24        0.0         56       21.3      160.8       21.3       22.1       12.2     1017.3       24.5       20.3        0.0        0.0        0.0       0.00        0.0       0.00       0.20       60.2
6:56               19        0.0         56       21.3      160.8       21.3       22.1       12.2     1017.2       24.5       20.3        0.0        0.0        0.0       0.00        0.0       0.00       0.20       60.2
6:58               26        0.0         56       21.3      160.8       21.3       22.1       12.2     1017.2       24.5       20.3        0.0        0.0        0.0       0.00        0.0       0.00       0.20       60.2
7:00               13        0.0         56       21.3      160.8       21.3       22.1       12.2     1017.2       24.5       20.3        0.0        0.0        0.0       0.00        0.0       0.00       0.20       60.2
7:02               33        0.0         56       21.3      160.8       21.3       22.1       12.2     1017.3       24.5       20.3        0.0        0.0        0.0       0.00        0.0       0.00       0.20       60.2
7:03               32        0.0         56       21.2      160.8       21.2       22.0       12.1     1017.3       24.5       20.3        0.0        0.0        0.0       0.00        0.0       0.00       0.20       60.2
7:06               34        0.0         56       21.3      160.8       21.3       22.1       12.2     1017.2       24.5       20.3        0.0        0.0        0.0       0.00        0.0       0.00       0.20       60.2
7:08               30        0.0         56       21.3      160.8       21.3       22.1       12.2     1017.4       24.5       20.3        0.0        0.0        0.0       0.00        0.0       0.00       0.20       60.2
7:10               12        0.0         56       21.3      160.8       21.3       22.1       12.2     1017.4       24.5       20.3        0.0        0.0        0.0       0.00        0.0       0.00       0.20       60.2
7:11              355        0.0         56       21.3      160.8       21.3       22.1       12.2     1017.4       24.5       20.3        0.0        0.0        0.0       0.00        0.0       0.00       0.20       60.2
7:13               18        0.0         56       21.3      160.8       21.3       22.1       12.2     1017.4       24.5       20.3        0.0        0.0        0.0       0.00        0.0       0.00       0.20       60.2
7:15               13        0.0         56       21.3      160.8       21.3       22.1       12.2     1017.4       24.5       20.3        0.0        0.0        0.0       0.00        0.0       0.00       0.20       60.2
7:17               36        0.0         56       21.3      160.8       21.3       22.1       12.2     1017.4       24.5       20.3        0.0        0.0        0.0       0.00        0.0       0.00       0.20       60.2
7:20               13        0.0         56       21.4      160.8       21.4       22.2       12.3     1017.4       24.5       20.3        0.0        0.0        0.0       0.00        0.0       0.00       0.20       60.2
7:22                5        0.0         56       21.4      160.8       21.4       22.2       12.3     1017.5       24.5       20.3        0.0        0.0        0.0       0.00        0.0       0.00       0.20       60.2
7:23               15        0.0         56       21.4      160.8       21.4       22.2       12.3     1017.5       24.5       20.3        0.0        0.0        0.0       0.00        0.0       0.00       0.20       60.2
7:26               30        0.0         56       21.4      160.8       21.4       22.2       12.3     1017.6       24.5       20.3        0.0        0.0        0.0       0.00        0.0       0.00       0.20       60.2
7:28               19        0.0         56       21.4      160.8       21.4       22.2       12.3     1017.5       24.5       20.3        0.0        0.0        0.0       0.00        0.0       0.00       0.20       60.2
7:30               19        0.0         56       21.4      160.8       21.4       22.2       12.3     1017.6       24.5       20.3        0.0        0.0        0.0       0.00        0.0       0.00       0.20       60.2
7:32               46        0.0         56       21.4      160.8       21.4       22.2       12.3     1017.6       24.5       20.3        0.0        0.0        0.0       0.00        0.0       0.00       0.20       60.2
7:34               13        0.0         57       21.4      160.8       21.4       22.2       12.5     1017.6       24.5       20.3        0.0        0.0        0.0       0.00        0.0       0.00       0.20       60.2
7:36               13        0.0         57       21.4      160.8       21.4       22.2       12.5     1017.7       24.5       20.3        0.0        0.0        0.0       0.00        0.0       0.00       0.20       60.2
7:38               30        0.0         57       21.3      160.8       21.3       22.2       12.5     1017.6       24.5       20.3        0.0        0.0        0.0       0.00        0.0       0.00       0.20       60.2
7:40               30        0.0         57       21.3      160.8       21.3       22.2       12.5     1017.7       24.5       20.3        0.0        0.0        0.0       0.00        0.0       0.00       0.20       60.2
7:42               24        0.0         57       21.3      160.8       21.3       22.2       12.5     1017.7       24.5       20.3        0.0        0.0        0.0       0.00        0.0       0.00       0.20       60.2
7:44               30        0.0         57       21.4      160.8       21.4       22.2       12.5     1017.7       24.5       20.3        0.0        0.0        0.0       0.00        0.0       0.00       0.20       60.2
7:46                5        0.0         57       21.4      160.8       21.4       22.2       12.5     1017.7       24.5       20.3        0.0        0.0        0.0       0.00        0.0       0.00       0.20       60.2
7:48               17        0.0         57       21.4      160.8       21.4       22.3       12.6     1017.7       24.5       20.3        0.0        0.0        0.0       0.00        0.0       0.00       0.20       60.2
7:50                5        0.0         57       21.4      160.8       21.4       22.3       12.6     1017.8       24.5       20.3        0.0        0.0        0.0       0.00        0.0       0.00       0.20       60.2
7:52               26        0.0         57       21.4      160.8       21.4       22.3       12.6     1017.8       24.5       20.3        0.0        0.0        0.0       0.00        0.0       0.00       0.20       60.2
7:54               17        0.0         57       21.5      160.8       21.5       22.3       12.6     1017.8       24.5       20.3        0.0        0.0        0.0       0.00        0.0       0.00       0.20       60.2
7:55               17        0.0         57       21.5      160.8       21.5       22.3       12.6     1017.8       24.5       20.3        0.0        0.0        0.0       0.00        0.0       0.00       0.20       60.2
7:58              343        0.0         57       21.6      160.8       21.6       22.4       12.7     1017.8       24.5       20.3        0.0        0.0        0.0       0.00        0.0       0.00       0.20       60.2
8:00               19        0.0         57       21.6      160.8       21.6       22.4       12.7     1017.8       24.5       20.3        0.0        0.0        0.0       0.00        0.0       0.00       0.20       60.2
8:01              360        0.0         57       21.6      160.8       21.6       22.4       12.7     1017.8       24.5       20.3        0.0        0.0        0.0       0.00        0.0       0.00       0.20       60.2
8:03               28        0.0         57       21.7      160.8       21.7       22.5       12.8     1017.8       24.5       20.3        0.0        0.0        0.0       0.00        0.0       0.00       0.20       60.2
8:06               13        0.0         57       21.7      160.8       21.7       22.6       12.8     1017.9       24.5       20.3        0.0        0.0        0.0       0.00        0.0       0.00       0.20       60.2
8:08               22        0.0         57       21.8      160.8       21.8       22.6       12.9     1017.9       24.5       20.3        0.0        0.0        0.0       0.00        0.0       0.00       0.20       60.2
8:10               20        0.0         57       21.8      160.8       21.8       22.7       12.9     1018.0       24.5       20.3        0.0        0.0        0.0       0.00        0.0       0.00       0.20       60.2
8:12               52        0.0         57       21.8      160.8       21.8       22.7       12.9     1017.9       24.5       20.3        0.0        0.0        0.0       0.00        0.0       0.00       0.20       60.2
8:14               11        0.0         57       21.9      160.8       21.9       22.7       13.0     1018.0       24.5       20.3        0.0        0.0        0.0       0.00        0.0       0.00       0.20       60.2
8:16               38        0.0         57       21.9      160.8       21.9       22.8       13.0     1017.9       24.5       20.3        0.0        0.0        0.0       0.00        0.0       0.00       0.20       60.2
8:18               11        0.0         57       22.0      160.8       22.0       22.8       13.1     1018.0       24.5       20.3        0.0        0.0        0.0       0.00        0.0       0.00       0.20       60.2
8:20               15        0.0         57       22.1      160.8       22.1       22.9       13.2     1018.0       24.5       20.3        0.0        0.0        0.0       0.00        0.0       0.00       0.20       60.2
8:21                9        0.0         57       22.1      160.8       22.1       22.9       13.2     1018.0       24.5       20.3        0.0        0.0        0.0       0.00        0.0       0.00       0.20       60.2
8:24              351        0.0         56       22.2      160.8       22.2       22.9       13.0     1018.1       24.5       20.3        0.0        0.0        0.0       0.00        0.0       0.00       0.20       60.2
8:25               18        0.0         56       22.2      160.8       22.2       23.0       13.0     1018.0       24.5       20.3        0.0        0.0        0.0       0.00        0.0       0.00       0.20       60.2
8:27                5        0.0         56       22.3      160.8       22.3       23.1       13.1     1018.1       24.5       20.3        0.0        0.0        0.0       0.00        0.0       0.00       0.20       60.2
8:30               19        0.0         56       22.3      160.8       22.3       23.1       13.1     1017.9       24.5       20.3        0.0        0.0        0.0       0.00        0.0       0.00       0.20       60.2
8:31               24        0.0         56       22.4      160.8       22.4       23.2       13.2     1018.1       24.5       20.3        0.0        0.0        0.0       0.00        0.0       0.00       0.20       60.2
8:34               19        0.0         56       22.4      160.8       22.4       23.2       13.2     1018.1       24.5       20.3        0.0        0.0        0.0       0.00        0.0       0.00       0.20       60.2
8:36               28        0.0         56       22.5      160.8       22.5       23.3       13.3     1018.2       24.5       20.3        0.0        0.0        0.0       0.00        0.0       0.00       0.20       60.2
8:38               24        0.0         56       22.6      160.8       22.6       23.3       13.3     1018.1       24.5       20.3        0.0        0.0        0.0       0.00        0.0       0.00       0.20       60.2
8:39               28        0.0         56       22.6      160.8       22.6       23.4       13.4     1018.1       24.5       20.3        0.0        0.0        0.0       0.00        0.0       0.00       0.20       60.2
8:42               33        0.0         56       22.7      160.8       22.7       23.5       13.5     1018.1       24.5       20.3        0.0        0.0        0.0       0.00        0.0       0.00       0.20       60.2
8:44               48        0.0         56       22.8      160.8       22.8       23.6       13.6     1018.2       24.5       20.3        0.0        0.0        0.0       0.00        0.0       0.00       0.20       60.2
8:45               24        0.0         55       22.8      160.8       22.8       23.5       13.3     1018.3       24.5       20.3        0.0        0.0        0.0       0.00        0.0       0.00       0.21       60.2
8:48               23        0.0         55       22.9      160.8       22.9       23.7       13.4     1018.2       24.5       20.3        0.0        0.0        0.0       0.00        0.0       0.00       0.21       60.2
8:50               40        0.0         56       23.1      160.8       23.1       23.8       13.8     1018.2       24.5       20.3        0.0        0.0        0.0       0.00        0.0       0.00       0.21       60.2
8:52               20        0.0         55       23.1      160.8       23.1       23.8       13.6     1018.2       24.5       20.3        0.0        0.0        0.0       0.00        0.0       0.00       0.21       60.2
8:54              341        0.0         56       23.2      160.8       23.2       24.0       14.0     1018.2       24.5       20.3        0.0        0.0        0.0       0.00        0.0       0.00       0.21       60.2
8:55              351        0.0         55       23.3      160.8       23.3       24.0       13.8     1018.3       24.5       20.3        0.0        0.0        0.0       0.00        0.0       0.00       0.21       60.2
8:58              355        0.0         55       23.4      160.8       23.4       24.1       13.8     1018.2       24.5       20.3        0.0        0.0        0.0       0.00        0.0       0.00       0.21       60.2
9:00               22        0.0         55       23.5      160.8       23.5       24.2       13.9     1018.3       24.5       20.3        0.0        0.0        0.0       0.00        0.0       0.00       0.21       60.2
9:02               20        0.0         55       23.6      160.8       23.6       24.3       14.1     1018.3       24.5       20.3        0.0        0.0        0.0       0.00        0.0       0.00       0.22       60.2
9:04               35        0.0         55       23.7      160.8       23.7       24.4       14.2     1018.3       24.5       20.3        0.0        0.0        0.0       0.00        0.0       0.00       0.22       60.2
9:06               19        0.0         54       23.8      160.8       23.8       24.5       14.0     1018.4       24.5       20.3        0.0        0.0        0.0       0.00        0.0       0.00       0.22       60.2
9:08               28        0.0         54       23.9      160.8       23.9       24.6       14.1     1018.3       24.5       20.3        0.0        0.0        0.0       0.00        0.0       0.00       0.22       60.2
9:10               34        0.0         54       24.1      160.8       24.1       24.7       14.2     1018.4       24.5       20.3        0.0        0.0        0.0       0.00        0.0       0.00       0.22       60.2
9:12               34        0.0         53       24.2      160.8       24.2       24.8       14.0     1018.4       24.5       20.3        0.0        0.0        0.0       0.00        0.0       0.00       0.22       60.2
9:14                5        0.0         53       24.3      160.8       24.3       24.9       14.1     1018.4       24.5       20.3        0.0        0.0        0.0       0.00        0.0       0.00       0.22       60.2
9:16               24        0.0         52       24.4      160.8       24.4       24.9       13.9     1018.4       24.5       20.3        0.0        0.0        0.0       0.00        0.0       0.00       0.25       60.2
9:17               11        0.0         52       24.4      160.8       24.4       25.0       14.0     1018.4       24.5       20.3        0.0        0.0        0.0       0.00        0.0       0.00       0.25       60.2
9:20               26        0.0         52       24.6      160.8       24.6       25.1       14.1     1018.4       24.6       20.3        0.0        0.0        0.0       0.00        0.0       0.00       0.25       60.2
9:21               37        0.0         52       24.6      160.8       24.6       25.2       14.1     1018.3       24.6       20.3        0.0        0.0        0.0       0.00        0.0       0.00       0.25       60.2
9:24               22        0.0         52       24.7      160.8       24.7       25.3       14.2     1018.3       24.7       20.3        0.0        0.0        0.0       0.00        0.0       0.00       0.25       60.2
9:26               13        0.0         52       24.8      160.8       24.8       25.4       14.3     1018.4       24.8       20.3        0.0        0.0        0.0       0.00        0.0       0.00       0.25       60.2
9:28               22        0.0         51       24.9      160.8       24.9       25.4       14.1     1018.4       24.9       20.3        0.0        0.0        0.0       0.00        0.0       0.00       0.25       60.2
9:30               38        0.0         51       25.1      160.8       25.1       25.6       14.2     1018.4       25.1       20.3        0.0        0.0        0.0       0.00        0.0       0.00       0.25       60.2
9:32               35        0.0         51       25.1      160.8       25.1       25.6       14.3     1018.5       25.1       20.3        0.0        0.0        0.0       0.00        0.0       0.00       0.28       60.2
9:34               34        0.0         50       25.2      160.8       25.2       25.7       14.1     1018.5       25.2       20.3        0.0        0.0        0.0       0.00        0.0       0.00       0.28       60.2
9:35               33        0.0         50       25.4      160.8       25.4       25.8       14.2     1018.5       25.4       20.3        0.0        0.0        0.0       0.00        0.0       0.00       0.28       60.2
9:38               34        0.0         50       25.4      160.8       25.4       25.9       14.3     1018.5       25.4       20.3        0.0        0.0        0.0       0.00        0.0       0.00       0.28       60.2
9:40               15        0.0         50       25.6      160.8       25.6       26.0       14.4     1018.4       25.6       20.3        0.0        0.0        0.0       0.00        0.0       0.00       0.28       60.2
9:42               33        0.0         50       25.7      160.8       25.7       26.1       14.5     1018.4       25.7       20.3        0.0        0.0        0.0       0.00        0.0       0.00       0.28       60.2
9:44               47        0.0         50       25.8      160.8       25.8       26.2       14.6     1018.4       25.8       20.3        0.0        0.0        0.0       0.00        0.0       0.00       0.28       60.2
9:46              360        0.0         50       25.9      160.8       25.9       26.3       14.7     1018.4       25.9       20.3        0.0        0.0        0.0       0.00        0.0       0.00       0.32       60.2
9:47               38        0.0         49       26.0      160.8       26.0       26.4       14.5     1018.4       26.0       20.3        0.0        0.0        0.0       0.00        0.0       0.00       0.32       60.2
9:50               36        0.0         49       26.1      160.8       26.1       26.5       14.6     1018.4       26.1       20.3        0.0        0.0        0.0       0.00        0.0       0.00       0.32       60.2
9:51               25        0.0         49       26.2      160.8       26.2       26.6       14.7     1018.4       26.2       20.3        0.0        0.0        0.0       0.00        0.0       0.00       0.32       60.2
9:53               26        0.0         48       26.3      160.8       26.3       26.7       14.5     1018.4       26.3       20.3        0.0        0.0        0.0       0.00        0.0       0.00       0.32       60.2
9:56              337        0.0         49       26.4      160.8       26.4       26.8       14.9     1018.4       26.4       20.3        0.0        0.0        0.0       0.00        0.0       0.00       0.32       60.2
9:58              346        0.0         49       26.6      160.8       26.6       26.9       15.0     1018.4       26.6       20.3        0.0        0.0        0.0       0.00        0.0       0.00       0.32       60.2
10:00              22        0.0         48       26.6      160.8       26.6       27.0       14.7     1018.4       26.6       20.3        0.0        0.0        0.0       0.00        0.0       0.00       0.32       60.2
10:02               9        0.0         48       26.8      160.8       26.8       27.1       14.9     1018.4       26.8       20.3        0.0        0.0        0.0       0.00        0.0       0.00       0.37       60.2
10:04              31        0.0         48       26.9      160.8       26.9       27.2       15.0     1018.4       26.9       20.3        0.0        0.0        0.0       0.00        0.0       0.00       0.37       60.2
10:06              40        0.0         47       27.0      160.8       27.0       27.2       14.7     1018.4       27.0       20.3        0.0        0.0        0.0       0.00        0.0       0.00       0.37       60.2
10:07              32        0.0         47       27.1      160.8       27.1       27.3       14.8     1018.4       27.1       20.3        0.0        0.0        0.0       0.00        0.0       0.00       0.37       60.2
10:10              39        0.0         47       27.2      160.8       27.2       27.4       14.9     1018.5       27.2       20.3        0.0        0.0        0.0       0.00        0.0       0.00       0.37       60.2
10:11              40        0.0         47       27.3      160.8       27.3       27.5       15.0     1018.4       27.3       20.3        0.0        0.0        0.0       0.00        0.0       0.00       0.37       60.2
10:14              20        0.0         47       27.5      160.8       27.5       27.7       15.2     1018.4       27.5       20.3        0.0        0.0        0.0       0.00        0.0       0.00       0.37       60.2
10:15             321        0.0         47       27.6      160.8       27.6       27.8       15.3     1018.3       27.6       20.3        0.0        0.0        0.0       0.00        0.0       0.00       0.42       60.2
10:18             337        0.0         47       27.7      160.8       27.7       27.9       15.4     1018.4       27.7       20.3        0.0        0.0        0.0       0.00        0.0       0.00       0.42       60.2
10:20             350        0.0         46       27.8      160.8       27.8       27.9       15.2     1018.3       27.8       20.3        0.0        0.0        0.0       0.00        0.0       0.00       0.42       60.2
10:22              46        0.0         46       27.9      160.8       27.9       28.1       15.3     1018.4       27.9       20.3        0.0        0.0        0.0       0.00        0.0       0.00       0.42       60.2
10:24              17        0.0         45       28.1      160.8       28.1       28.1       15.1     1018.3       28.1       20.3        0.0        0.0        0.0       0.00        0.0       0.00       0.42       60.2
10:26              38        0.0         45       28.3      160.8       28.3       28.3       15.2     1018.4       28.3       20.3        0.0        0.0        0.0       0.00        0.0       0.00       0.42       60.2
10:28              28        0.0         44       28.4      160.8       28.4       28.3       15.0     1018.3       28.4       20.3        0.0        0.0        0.0       0.00        0.0       0.00       0.42       60.2
10:30              24        0.0         43       28.5      160.8       28.5       28.4       14.7     1018.3       28.5       20.3        0.0        0.0        0.0       0.00        0.0       0.00       0.42       60.2
10:32              19        0.0         43       28.6      160.8       28.6       28.5       14.8     1018.4       28.6       20.3        0.0        0.0        0.0       0.00        0.0       0.00       0.49       60.2
10:34              35        0.0         43       28.8      160.8       28.8       28.7       15.0     1018.3       28.8       20.3        0.0        0.0        0.0       0.00        0.0       0.00       0.49       60.2
10:35              12        0.0         43       28.9      160.8       28.9       28.8       15.1     1018.2       28.9       20.3        0.0        0.0        0.0       0.00        0.0       0.00       0.49       60.2
10:37              39        0.0         42       29.0      160.8       29.0       28.8       14.8     1018.2       29.0       20.3        0.0        0.0        0.0       0.00        0.0       0.00       0.49       60.2
10:40              33        0.0         43       29.2      160.8       29.2       29.1       15.3     1018.3       29.2       20.3        0.0        0.0        0.0       0.00        0.0       0.00       0.49       60.2
10:42              46        0.0         42       29.3      160.8       29.3       29.1       15.1     1018.3       29.3       20.3        0.0        0.0        0.0       0.00        0.0       0.00       0.49       60.2
10:44               5        0.0         42       29.4      160.8       29.4       29.2       15.2     1018.2       29.4       20.3        0.0        0.0        0.0       0.00        0.0       0.00       0.49       60.2
10:46              26        0.0         42       29.6      160.8       29.6       29.4       15.3     1018.3       29.6       20.3        0.0        0.0        0.0       0.00        0.0       0.00       0.57       60.2
10:48              22        0.0         41       29.7      160.8       29.7       29.4       15.0     1018.3       29.7       20.3        0.0        0.0        0.0       0.00        0.0       0.00       0.57       60.2
10:50              23        0.0         41       29.8      160.8       29.8       29.5       15.1     1018.2       29.8       20.3        0.0        0.0        0.0       0.00        0.0       0.00       0.57       60.2
10:52              34        0.0         41       29.9      160.8       29.9       29.7       15.3     1018.2       29.9       20.3        0.0        0.0        0.0       0.00        0.0       0.00       0.57       60.2
10:54              49        0.0         41       30.1      160.8       30.1       29.9       15.4     1018.2       30.1       20.3        0.0        0.0        0.0       0.00        0.0       0.00       0.57       60.2
10:56              56        0.0         40       30.2      160.8       30.2       29.9       15.1     1018.2       30.2       20.3        0.0        0.0        0.0       0.00        0.0       0.00       0.57       60.2
10:58              46        0.0         40       30.3      160.8       30.3       30.1       15.2     1018.0       30.3       20.3        0.0        0.0        0.0       0.00        0.0       0.00       0.57       60.2
11:00              29        0.0         39       30.5      160.8       30.5       30.2       15.0     1018.1       30.5       20.3        0.0        0.0        0.0       0.00        0.0       0.00       0.57       60.2
11:02              39        0.0         39       30.6      160.8       30.6       30.3       15.1     1018.0       30.6       20.3        0.0        0.0        0.0       0.00        0.0       0.00       0.66       60.2
11:03              57        0.0         38       30.7      160.8       30.7       30.3       14.8     1018.0       30.7       20.3        0.0        0.0        0.0       0.00        0.0       0.00       0.66       60.2
11:06              20        0.0         38       30.8      160.8       30.8       30.4       14.9     1017.9       30.8       20.3        0.0        0.0        0.0       0.00        0.0       0.00       0.66       60.2
11:07              17        0.0         38       31.0      160.8       31.0       30.6       15.0     1017.9       31.0       20.3        0.0        0.0        0.0       0.00        0.0       0.00       0.66       60.2
11:10              30        0.0         37       31.1      160.8       31.1       30.6       14.7     1018.0       31.1       20.3        0.0        0.0        0.0       0.00        0.0       0.00       0.66       60.2
11:12              10        0.0         37       31.2      160.8       31.2       30.8       14.8     1017.9       31.2       20.3        0.0        0.0        0.0       0.00        0.0       0.00       0.66       60.2
11:14              49        0.0         37       31.3      160.8       31.3       30.8       14.9     1017.9       31.3       20.3        0.0        0.0        0.0       0.00        0.0       0.00       0.66       60.2
11:15              76        0.0         37       31.3      160.8       31.3       30.8       14.9     1017.8       31.3       20.3        0.0        0.0        0.0       0.00        0.0       0.00       0.76       60.2
11:18              53        0.0         36       31.4      160.8       31.4       30.8       14.5     1017.9       31.4       20.3        0.0        0.0        0.0       0.00        0.0       0.00       0.76       60.2
11:20              67        0.0         36       31.5      160.8       31.5       31.0       14.6     1017.8       31.5       20.3        0.0        0.0        0.0       0.00        0.0       0.00       0.76       60.2
11:21              64        0.0         36       31.6      160.8       31.6       31.1       14.7     1017.8       31.6       20.3        0.0        0.0        0.0       0.00        0.0       0.00       0.76       60.2
11:23              49        0.0         35       31.8      160.8       31.8       31.2       14.4     1017.8       31.8       20.3        0.0        0.0        0.0       0.00        0.0       0.00       0.76       60.2
11:26              65        0.0         35       31.8      160.8       31.8       31.3       14.5     1017.8       31.8       20.3        0.0        0.0        0.0       0.00        0.0       0.00       0.76       60.2
11:28              50        0.0         35       31.9      160.8       31.9       31.3       14.5     1017.8       31.9       20.3        0.0        0.0        0.0       0.00        0.0       0.00       0.76       60.2
11:30              28        0.0         35       32.0      160.8       32.0       31.5       14.6     1017.7       32.0       20.3        0.0        0.0        0.0       0.00        0.0       0.00       0.76       60.2
11:32              68        0.0         35       32.1      160.8       32.1       31.6       14.7     1017.7       32.1       20.3        0.0        0.0        0.0       0.00        0.0       0.00       0.86       60.2
11:33              63        0.0         35       32.1      160.8       32.1       31.6       14.7     1017.7       32.1       20.3        0.0        0.0        0.0       0.00        0.0       0.00       0.86       60.2
11:36              32        0.0         35       32.1      160.8       32.1       31.6       14.7     1017.7       32.1       20.3        0.0        0.0        0.0       0.00        0.0       0.00       0.86       60.2
11:38              63        0.0         35       32.1      160.8       32.1       31.5       14.7     1017.7       32.1       20.3        0.0        0.0        0.0       0.00        0.0       0.00       0.86       60.2
11:40              56        0.0         35       32.1      160.8       32.1       31.6       14.7     1017.6       32.1       20.3        0.0        0.0        0.0       0.00        0.0       0.00       0.86       60.2
11:42              22        0.0         35       32.2      160.8       32.2       31.7       14.8     1017.6       32.2       20.3        0.0        0.0        0.0       0.00        0.0       0.00       0.86       60.2
11:44              61        0.0         34       32.2      160.8       32.2       31.5       14.3     1017.6       32.2       20.3        0.0        0.0        0.0       0.00        0.0       0.00       0.86       60.2
11:45              46        0.0         35       32.2      160.8       32.2       31.7       14.8     1017.5       32.2       20.3        0.0        0.0        0.0       0.00        0.0       0.00       0.97       60.2
11:48              31        0.0         34       32.2      160.8       32.2       31.6       14.4     1017.6       32.2       20.3        0.0        0.0        0.0       0.00        0.0       0.00       0.97       60.2
11:49              63        0.0         34       32.2      160.8       32.2       31.6       14.4     1017.6       32.2       20.3        0.0        0.0        0.0       0.00        0.0       0.00       0.97       60.2
11:52              74        0.0         34       32.3      160.8       32.3       31.7       14.5     1017.6       32.3       20.3        0.0        0.0        0.0       0.00        0.0       0.00       0.97       60.2
11:53              68        0.0         33       32.4      160.8       32.4       31.7       14.1     1017.7       32.4       20.3        0.0        0.0        0.0       0.00        0.0       0.00       0.97       60.2
11:56              32        0.0         34       32.5      160.8       32.5       32.0       14.6     1017.6       32.5       20.3        0.0        0.0        0.0       0.00        0.0       0.00       0.97       60.2
11:58              40        0.0         33       32.5      160.8       32.5       31.8       14.2     1017.6       32.5       20.3        0.0        0.0        0.0       0.00        0.0       0.00       0.97       60.2
12:00              72        0.0         33       32.6      160.8       32.6       31.9       14.2     1017.5       32.6       20.3        0.0        0.0        0.0       0.00        0.0       0.00       0.97       60.2
12:02              55        0.0         34       32.6      160.8       32.6       32.1       14.7     1017.4       32.6       20.3        0.0        0.0        0.0       0.00        0.0       0.00       1.08       60.2
12:04              41        0.0         33       32.7      160.8       32.7       32.1       14.4     1017.5       32.7       20.3        0.0        0.0        0.0       0.00        0.0       0.00       1.08       60.2
12:05              67        0.0         33       32.8      160.8       32.8       32.2       14.5     1017.5       32.8       20.3        0.0        0.0        0.0       0.00        0.0       0.00       1.08       60.2
12:08              19        0.0         33       32.9      160.8       32.9       32.3       14.5     1017.4       32.9       20.3        0.0        0.0        0.0       0.00        0.0       0.00       1.08       60.2
12:10              52        0.0         33       32.9      160.8       32.9       32.3       14.5     1017.4       32.9       20.3        0.0        0.0        0.0       0.00        0.0       0.00       1.08       60.2
12:11              40        0.0         33       32.9      160.8       32.9       32.3       14.5     1017.3       32.9       20.3        0.0        0.0        0.0       0.00        0.0       0.00       1.08       60.2
12:14              36        0.0         34       32.9      160.8       32.9       32.5       15.0     1017.3       32.9       20.3        0.0        0.0        0.0       0.00        0.0       0.00       1.08       60.2
12:15              31        0.0         33       32.9      160.8       32.9       32.4       14.6     1017.3       32.9       20.3        0.0        0.0        0.0       0.00        0.0       0.00       1.19       60.2
12:17              60        0.0         33       32.9      160.8       32.9       32.3       14.5     1017.3       32.9       20.3        0.0        0.0        0.0       0.00        0.0       0.00       1.19       60.2
12:19               5        0.0         34       32.9      160.8       32.9       32.6       15.0     1017.3       32.9       20.3        0.0        0.0        0.0       0.00        0.0       0.00       1.19       60.2
12:22              17        0.0         33       33.0      160.8       33.0       32.5       14.6     1017.2       33.0       20.3        0.0        0.0        0.0       0.00        0.0       0.00       1.19       60.2
12:23              79        0.0         33       33.1      160.8       33.1       32.5       14.6     1017.3       33.1       20.3        0.0        0.0        0.0       0.00        0.0       0.00       1.19       60.2
12:26              28        0.0         33       33.1      160.8       33.1       32.6       14.7     1017.3       33.1       20.3        0.0        0.0        0.0       0.00        0.0       0.00       1.19       60.2
12:28              38        0.0         33       33.2      160.8       33.2       32.8       14.8     1017.3       33.2       20.3        0.0        0.0        0.0       0.00        0.0       0.00       1.19       60.2
12:29              34        0.0         33       33.3      160.8       33.3       32.8       14.8     1017.2       33.3       20.3        0.0        0.0        0.0       0.00        0.0       0.00       1.19       60.2
12:32              57        0.0         32       33.3      160.8       33.3       32.7       14.4     1017.3       33.3       20.3        0.0        0.0        0.0       0.00        0.0       0.00       1.31       60.2
12:34              55        0.0         32       33.4      160.8       33.4       32.9       14.5     1017.3       33.4       20.3        0.0        0.0        0.0       0.00        0.0       0.00       1.31       60.2
12:36              65        0.0         32       33.5      160.8       33.5       33.0       14.6     1017.2       33.5       20.3        0.0        0.0        0.0       0.00        0.0       0.00       1.31       60.2
12:38              36        0.0         31       33.6      160.8       33.6       32.9       14.1     1017.1       33.6       20.3        0.0        0.0        0.0       0.00        0.0       0.00       1.31       60.2
12:40              16        0.0         31       33.6      160.8       33.6       32.9       14.2     1017.0       33.6       20.3        0.0        0.0        0.0       0.00        0.0       0.00       1.31       60.2
12:42              31        0.0         31       33.6      160.8       33.6       32.9       14.2     1017.1       33.6       20.3        0.0        0.0        0.0       0.00        0.0       0.00       1.31       60.2
12:44              18        0.0         31       33.7      160.8       33.7       33.0       14.2     1017.0       33.7       20.3        0.0        0.0        0.0       0.00        0.0       0.00       1.31       60.2
12:46              49        0.0         31       33.7      160.8       33.7       33.0       14.2     1017.0       33.7       20.3        0.0        0.0        0.0       0.00        0.0       0.00       1.43       60.2
12:47              53        0.0         31       33.7      160.8       33.7       33.0       14.2     1016.9       33.7       20.3        0.0        0.0        0.0       0.00        0.0       0.00       1.43       60.2
12:50              42        0.0         31       33.8      160.8       33.8       33.2       14.3     1016.9       33.8       20.3        0.0        0.0        0.0       0.00        0.0       0.00       1.43       60.2
12:52              57        0.0         31       33.8      160.8       33.8       33.2       14.4     1016.9       33.8       20.3        0.0        0.0        0.0       0.00        0.0       0.00       1.43       60.2
12:54              31        0.0         32       33.9      160.8       33.9       33.6       14.9     1016.9       33.9       20.3        0.0        0.0        0.0       0.00        0.0       0.00       1.43       60.2
12:55              86        0.0         31       34.0      160.8       34.0       33.5       14.5     1016.9       34.0       20.3        0.0        0.0        0.0       0.00        0.0       0.00       1.43       60.2
12:58              37        0.0         31       34.1      160.8       34.1       33.6       14.6     1016.8       34.1       20.3        0.0        0.0        0.0       0.00        0.0       0.00       1.43       60.2
13:00              53        0.0         31       34.3      160.8       34.3       33.8       14.7     1016.9       34.3       20.3        0.0        0.0        0.0       0.00        0.0       0.00       1.43       60.2
13:01             346        0.0         30       34.3      160.8       34.3       33.7       14.3     1016.8       34.3       20.3        0.0        0.0        0.0       0.00        0.0       0.00       1.56       60.2
13:04              42        0.0         30       34.4      160.8       34.4       33.9       14.4     1016.8       34.4       20.3        0.0        0.0        0.0       0.00        0.0       0.00       1.56       60.2
13:06               5        0.0         30       34.5      160.8       34.5       34.0       14.4     1016.7       34.5       20.3        0.0        0.0        0.0       0.00        0.0       0.00       1.56       60.2
13:07             344        0.0         30       34.5      160.8       34.5       34.0       14.4     1016.8       34.5       20.3        0.0        0.0        0.0       0.00        0.0       0.00       1.56       60.2
13:09              39        0.0         30       34.4      160.8       34.4       33.9       14.4     1016.8       34.5       20.3        0.0        0.0        0.0       0.00        0.0       0.00       1.56       60.2
13:12              32        0.0         29       34.5      160.8       34.5       33.8       13.9     1016.8       34.5       20.3        0.0        0.0        0.0       0.00        0.0       0.00       1.56       60.2
13:13              42        0.0         29       34.5      160.8       34.5       33.8       13.9     1016.7       34.5       20.3        0.0        0.0        0.0       0.00        0.0       0.00       1.56       60.2
13:16              55        0.0         29       34.6      160.8       34.6       33.9       13.9     1016.6       34.6       20.3        0.0        0.0        0.0       0.00        0.0       0.00       1.69       60.2
13:18              44        0.0         29       34.6      160.8       34.6       33.9       14.0     1016.5       34.6       20.3        0.0        0.0        0.0       0.00        0.0       0.00       1.69       60.2
13:20             355        0.0         30       34.7      160.8       34.7       34.3       14.6     1016.4       34.7       20.3        0.0        0.0        0.0       0.00        0.0       0.00       1.69       60.2
13:22              38        0.0         29       34.8      160.8       34.8       34.2       14.1     1016.4       34.8       20.3        0.0        0.0        0.0       0.00        0.0       0.00       1.69       60.2
13:24              37        0.0         29       34.8      160.8       34.8       34.2       14.2     1016.4       34.8       20.3        0.0        0.0        0.0       0.00        0.0       0.00       1.69       60.2
13:25              38        0.0         29       34.8      160.8       34.8       34.2       14.2     1016.3       34.8       20.3        0.0        0.0        0.0       0.00        0.0       0.00       1.69       60.2
13:28              13        0.0         29       34.8      160.8       34.8       34.2       14.2     1016.3       34.8       20.3        0.0        0.0        0.0       0.00        0.0       0.00       1.69       60.2
13:30              53        0.0         29       34.8      160.8       34.8       34.2       14.1     1016.3       34.8       20.3        0.0        0.0        0.0       0.00        0.0       0.00       1.69       60.2
13:32              91        0.0         29       34.8      160.8       34.8       34.2       14.1     1016.4       34.8       20.3        0.0        0.0        0.0       0.00        0.0       0.00       1.82       60.2
13:34              90        0.0         28       34.9      160.8       34.9       34.1       13.7     1016.3       34.9       20.3        0.0        0.0        0.0       0.00        0.0       0.00       1.82       60.2
13:36              46        0.0         29       35.0      160.8       35.0       34.5       14.3     1016.3       35.0       20.3        0.0        0.0        0.0       0.00        0.0       0.00       1.82       60.2
13:38              29        0.0         28       35.1      160.8       35.1       34.4       13.9     1016.2       35.1       20.3        0.0        0.0        0.0       0.00        0.0       0.00       1.82       60.2
13:39             360        0.0         28       35.2      160.8       35.2       34.5       13.9     1016.1       35.2       20.3        0.0        0.0        0.0       0.00        0.0       0.00       1.82       60.2
13:42              55        0.0         28       35.2      160.8       35.2       34.6       14.0     1016.1       35.2       20.3        0.0        0.0        0.0       0.00        0.0       0.00       1.82       60.2
13:44              18        0.0         29       35.3      160.8       35.3       34.9       14.6     1016.1       35.3       20.3        0.0        0.0        0.0       0.00        0.0       0.00       1.82       60.2
13:46               5        0.0         28       35.3      160.8       35.3       34.7       14.0     1016.1       35.3       20.3        0.0        0.0        0.0       0.00        0.0       0.00       1.96       60.2
13:48             332        0.0         29       35.2      160.8       35.2       34.8       14.5     1016.0       35.3       20.3        0.0        0.0        0.0       0.00        0.0       0.00       1.96       60.2
13:50             333        0.0         29       35.1      160.8       35.1       34.6       14.4     1016.0       35.3       20.3        0.0        0.0        0.0       0.00        0.0       0.00       1.96       60.2
13:51              14        0.0         28       35.1      160.8       35.1       34.4       13.9     1016.0       35.3       20.3        0.0        0.0        0.0       0.00        0.0       0.00       1.96       60.2
13:54              42        0.0         29       35.1      160.8       35.1       34.6       14.4     1016.0       35.3       20.3        0.0        0.0        0.0       0.00        0.0       0.00       1.96       60.2
13:55              16        0.0         28       35.2      160.8       35.2       34.6       14.0     1016.0       35.3       20.3        0.0        0.0        0.0       0.00        0.0       0.00       1.96       60.2
13:57              61        0.0         28       35.3      160.8       35.3       34.7       14.0     1015.9       35.3       20.3        0.0        0.0        0.0       0.00        0.0       0.00       1.96       60.2
14:00              53        0.0         27       35.4      160.8       35.4       34.6       13.6     1016.0       35.4       20.3        0.0        0.0        0.0       0.00        0.0       0.00       1.96       60.2
14:02              46        0.0         27       35.4      160.8       35.4       34.7       13.6     1016.0       35.4       20.3        0.0        0.0        0.0       0.00        0.0       0.00       2.10       60.2
14:03              57        0.0         29       35.6      160.8       35.6       35.3       14.8     1015.9       35.6       20.3        0.0        0.0        0.0       0.00        0.0       0.00       2.10       60.2
14:06             298        0.0         29       35.6      160.8       35.6       35.3       14.9     1015.9       35.6       20.3        0.0        0.0        0.0       0.00        0.0       0.00       2.10       60.2
14:08             338        0.0         28       35.6      160.8       35.6       35.1       14.3     1015.9       35.6       20.3        0.0        0.0        0.0       0.00        0.0       0.00       2.10       60.2
14:10             338        0.0         28       35.6      160.8       35.6       35.0       14.3     1015.9       35.6       20.3        0.0        0.0        0.0       0.00        0.0       0.00       2.10       60.2
14:12             338        0.0         28       35.6      160.8       35.6       35.1       14.3     1015.9       35.6       20.3        0.0        0.0        0.0       0.00        0.0       0.00       2.10       60.2
14:14             342        0.0         28       35.7      160.8       35.7       35.3       14.4     1015.9       35.7       20.3        0.0        0.0        0.0       0.00        0.0       0.00       2.10       60.2
14:16              54        0.0         28       35.8      160.8       35.8       35.4       14.5     1015.9       35.8       20.3        0.0        0.0        0.0       0.00        0.0       0.00       2.24       60.2
14:18              65        0.0         27       36.0      160.8       36.0       35.5       14.1     1015.9       36.0       20.3        0.0        0.0        0.0       0.00        0.0       0.00       2.24       60.2
14:20              65        0.0         27       36.1      160.8       36.1       35.5       14.1     1015.9       36.1       20.3        0.0        0.0        0.0       0.00        0.0       0.00       2.24       60.2
14:22              78        0.0         27       36.2      160.8       36.2       35.7       14.2     1015.8       36.2       20.3        0.0        0.0        0.0       0.00        0.0       0.00       2.24       60.2
14:23              78        0.0         27       36.3      160.8       36.3       35.9       14.3     1015.8       36.3       20.3        0.0        0.0        0.0       0.00        0.0       0.00       2.24       60.2
14:25              78        0.0         28       36.4      160.8       36.4       36.3       15.0     1015.7       36.4       20.3        0.0        0.0        0.0       0.00        0.0       0.00       2.24       60.2
14:27              38        0.0         27       36.4      160.8       36.4       36.1       14.5     1015.7       36.4       20.3        0.0        0.0        0.0       0.00        0.0       0.00       2.24       60.2
14:29              57        0.0         26       36.4      160.8       36.4       35.9       13.9     1015.7       36.4       20.3        0.0        0.0        0.0       0.00        0.0       0.00       2.24       60.2
14:32              47        0.0         27       36.4      160.8       36.4       36.1       14.5     1015.7       36.4       20.3        0.0        0.0        0.0       0.00        0.0       0.00       2.39       60.2
14:34              80        0.0         27       36.5      160.8       36.5       36.2       14.5     1015.8       36.5       20.3        0.0        0.0        0.0       0.00        0.0       0.00       2.39       60.2
14:36              80        0.0         26       36.6      160.8       36.6       36.1       14.0     1015.7       36.6       20.3        0.0        0.0        0.0       0.00        0.0       0.00       2.39       60.2
14:38             355        0.0         26       36.7      160.8       36.7       36.2       14.1     1015.7       36.7       20.3        0.0        0.0        0.0       0.00        0.0       0.00       2.39       60.2
14:40              46        0.0         26       36.7      160.8       36.7       36.2       14.1     1015.7       36.7       20.3        0.0        0.0        0.0       0.00        0.0       0.00       2.39       60.2
14:41              26        0.0         26       36.6      160.8       36.6       36.1       14.0     1015.7       36.7       20.3        0.0        0.0        0.0       0.00        0.0       0.00       2.39       60.2
14:44              46        0.0         26       36.6      160.8       36.6       36.0       14.0     1015.7       36.7       20.3        0.0        0.0        0.0       0.00        0.0       0.00       2.39       60.2
14:46              10        0.0         27       36.5      160.8       36.5       36.2       14.5     1015.7       36.7       20.3        0.0        0.0        0.0       0.00        0.0       0.00       2.54       60.2
14:48              10        0.0         27       36.4      160.8       36.4       36.1       14.5     1015.7       36.7       20.3        0.0        0.0        0.0       0.00        0.0       0.00       2.54       60.2
14:50              39        0.0         28       36.5      160.8       36.5       36.4       15.1     1015.5       36.7       20.3        0.0        0.0        0.0       0.00        0.0       0.00       2.54       60.2
14:51              47        0.0         27       36.5      160.8       36.5       36.2       14.5     1015.6       36.7       20.3        0.0        0.0        0.0       0.00        0.0       0.00       2.54       60.2
14:53              55        0.0         26       36.6      160.8       36.6       36.0       14.0     1015.5       36.7       20.3        0.0        0.0        0.0       0.00        0.0       0.00       2.54       60.2
14:55             346        0.0         27       36.6      160.8       36.6       36.3       14.6     1015.5       36.7       20.3        0.0        0.0        0.0       0.00        0.0       0.00       2.54       60.2
14:58              68        0.0         27       36.6      160.8       36.6       36.3       14.6     1015.4       36.7       20.3        0.0        0.0        0.0       0.00        0.0       0.00       2.54       60.2
15:00               9        0.0         27       36.6      160.8       36.6       36.3       14.5     1015.4       36.7       20.3        0.0        0.0        0.0       0.00        0.0       0.00       2.54       60.2
15:02              59        0.0         27       36.5      160.8       36.5       36.2       14.5     1015.5       36.7       20.3        0.0        0.0        0.0       0.00        0.0       0.00       2.69       60.2
15:04              17        0.0         27       36.4      160.8       36.4       36.1       14.5     1015.5       36.7       20.3        0.0        0.0        0.0       0.00        0.0       0.00       2.69       60.2
15:05              26        0.0         27       36.5      160.8       36.5       36.2       14.5     1015.5       36.7       20.3        0.0        0.0        0.0       0.00        0.0       0.00       2.69       60.2
15:08              30        0.0         27       36.5      160.8       36.5       36.2       14.5     1015.5       36.7       20.3        0.0        0.0        0.0       0.00        0.0       0.00       2.69       60.2
15:10              46        0.0         26       36.6      160.8       36.6       36.0       14.0     1015.5       36.7       20.3        0.0        0.0        0.0       0.00        0.0       0.00       2.69       60.2
15:12              51        0.0         26       36.7      160.8       36.7       36.2       14.1     1015.5       36.7       20.3        0.0        0.0        0.0       0.00        0.0       0.00       2.69       60.2
15:14              51        0.0         27       36.8      160.8       36.8       36.6       14.7     1015.5       36.8       20.3        0.0        0.0        0.0       0.00        0.0       0.00       2.69       60.2
15:16              91        0.0         26       36.9      160.8       36.9       36.5       14.2     1015.4       36.9       20.3        0.0        0.0        0.0       0.00        0.0       0.00       2.85       60.2
15:18              76        0.0         26       37.0      160.8       37.0       36.7       14.3     1015.4       37.0       20.3        0.0        0.0        0.0       0.00        0.0       0.00       2.85       60.2
15:20              76        0.0         25       37.2      160.8       37.2       36.7       13.9     1015.4       37.2       20.3        0.0        0.0        0.0       0.00        0.0       0.00       2.85       60.2
15:22              76        0.0         26       37.2      160.8       37.2       37.0       14.5     1015.4       37.2       20.3        0.0        0.0        0.0       0.00        0.0       0.00       2.85       60.2
15:24              76        0.0         25       37.3      160.8       37.3       36.9       14.0     1015.3       37.3       20.3        0.0        0.0        0.0       0.00        0.0       0.00       2.85       60.2
15:26              76        0.0         26       37.5      160.8       37.5       37.4       14.8     1015.3       37.5       20.3        0.0        0.0        0.0       0.00        0.0       0.00       2.85       60.2
15:28              65        0.0         25       37.6      160.8       37.6       37.3       14.2     1015.4       37.6       20.3        0.0        0.0        0.0       0.00        0.0       0.00       2.85       60.2
15:30              28        0.0         25       37.6      160.8       37.6       37.3       14.2     1015.3       37.6       20.3        0.0        0.0        0.0       0.00        0.0       0.00       2.85       60.2
15:31              51        0.0         25       37.6      160.8       37.6       37.3       14.2     1015.4       37.6       20.3        0.0        0.0        0.0       0.00        0.0       0.00       3.01       60.2
15:33              63        0.0         25       37.6      160.8       37.6       37.3       14.2     1015.4       37.6       20.3        0.0        0.0        0.0       0.00        0.0       0.00       3.01       60.2
15:35              44        0.0         25       37.7      160.8       37.7       37.4       14.3     1015.3       37.7       20.3        0.0        0.0        0.0       0.00        0.0       0.00       3.01       60.2
15:37              29        0.0         25       37.7      160.8       37.7       37.4       14.3     1015.4       37.7       20.3        0.0        0.0        0.0       0.00        0.0       0.00       3.01       60.2
15:40              65        0.0         25       37.6      160.8       37.6       37.3       14.2     1015.5       37.7       20.3        0.0        0.0        0.0       0.00        0.0       0.00       3.01       60.2
15:42              71        0.0         25       37.6      160.8       37.6       37.2       14.2     1015.3       37.7       20.3        0.0        0.0        0.0       0.00        0.0       0.00       3.01       60.2
15:43              70        0.0         24       37.6      160.8       37.6       37.0       13.6     1015.5       37.7       20.3        0.0        0.0        0.0       0.00        0.0       0.00       3.01       60.2
15:46              67        0.0         24       37.6      160.8       37.6       37.0       13.6     1015.5       37.7       20.3        0.0        0.0        0.0       0.00        0.0       0.00       3.17       60.2
15:47              54        0.0         23       37.6      160.8       37.6       36.7       12.9     1015.6       37.7       20.3        0.0        0.0        0.0       0.00        0.0       0.00       3.17       60.2
15:50              92        0.0         24       37.6      160.8       37.6       37.0       13.6     1015.5       37.7       20.3        0.0        0.0        0.0       0.00        0.0       0.00       3.17       60.2
15:52              94        0.0         23       37.6      160.8       37.6       36.8       13.0     1015.3       37.7       20.3        0.0        0.0        0.0       0.00        0.0       0.00       3.17       60.2
15:54              65        0.0         23       37.7      160.8       37.7       36.9       13.0     1015.4       37.7       20.3        0.0        0.0        0.0       0.00        0.0       0.00       3.17       60.2
15:56              38        0.0         23       37.7      160.8       37.7       37.0       13.1     1015.4       37.7       20.3        0.0        0.0        0.0       0.00        0.0       0.00       3.17       60.2
15:58              49        0.0         24       37.7      160.8       37.7       37.2       13.7     1015.3       37.7       20.3        0.0        0.0        0.0       0.00        0.0       0.00       3.17       60.2
16:00              66        0.0         23       37.7      160.8       37.7       37.0       13.1     1015.3       37.7       20.3        0.0        0.0        0.0       0.00        0.0       0.00       3.17       60.2
16:01              76        0.0         24       37.7      160.8       37.7       37.2       13.7     1015.3       37.8       20.3        0.0        0.0        0.0       0.00        0.0       0.00       3.34       60.2
16:04              67        0.0         24       37.8      160.8       37.8       37.3       13.8     1015.3       37.8       20.3        0.0        0.0        0.0       0.00        0.0       0.00       3.34       60.2
16:06              74        0.0         24       37.8      160.8       37.8       37.4       13.8     1015.3       37.8       20.3        0.0        0.0        0.0       0.00        0.0       0.00       3.34       60.2
16:07              71        0.0         24       37.9      160.8       37.9       37.5       13.9     1015.3       37.9       20.3        0.0        0.0        0.0       0.00        0.0       0.00       3.34       60.2
16:10              67        0.0         23       37.9      160.8       37.9       37.2       13.2     1015.3       37.9       20.3        0.0        0.0        0.0       0.00        0.0       0.00       3.34       60.2
16:12              72        0.0         23       37.9      160.8       37.9       37.3       13.2     1015.3       37.9       20.3        0.0        0.0        0.0       0.00        0.0       0.00       3.34       60.2
16:13              66        0.0         23       37.9      160.8       37.9       37.3       13.2     1015.3       37.9       20.3        0.0        0.0        0.0       0.00        0.0       0.00       3.34       60.2
16:16              67        0.0         23       37.9      160.8       37.9       37.2       13.2     1015.3       37.9       20.3        0.0        0.0        0.0       0.00        0.0       0.00       3.50       60.2
16:18              69        0.0         23       37.9      160.8       37.9       37.2       13.2     1015.3       37.9       20.3        0.0        0.0        0.0       0.00        0.0       0.00       3.50       60.2
16:20              59        0.0         23       37.9      160.8       37.9       37.3       13.2     1015.3       37.9       20.3        0.0        0.0        0.0       0.00        0.0       0.00       3.50       60.2
16:21              77        0.0         23       37.9      160.8       37.9       37.2       13.2     1015.3       37.9       20.3        0.0        0.0        0.0       0.00        0.0       0.00       3.50       60.2
16:24              51        0.0         23       37.9      160.8       37.9       37.2       13.2     1015.3       37.9       20.3        0.0        0.0        0.0       0.00        0.0       0.00       3.50       60.2
16:26              78        0.0         23       37.8      160.8       37.8       37.1       13.2     1015.3       37.9       20.3        0.0        0.0        0.0       0.00        0.0       0.00       3.50       60.2
16:27              53        0.0         23       37.8      160.8       37.8       37.1       13.2     1015.4       37.9       20.3        0.0        0.0        0.0       0.00        0.0       0.00       3.50       60.2
16:29              85        0.0         23       37.8      160.8       37.8       37.1       13.1     1015.4       37.9       20.3        0.0        0.0        0.0       0.00        0.0       0.00       3.50       60.2
16:32              34        0.0         23       37.7      160.8       37.7       37.0       13.1     1015.3       37.9       20.3        0.0        0.0        0.0       0.00        0.0       0.00       3.67       60.2
16:34              72        0.0         23       37.7      160.8       37.7       37.0       13.1     1015.3       37.9       20.3        0.0        0.0        0.0       0.00        0.0       0.00       3.67       60.2
16:36              73        0.0         23       37.7      160.8       37.7       36.9       13.0     1015.4       37.9       20.3        0.0        0.0        0.0       0.00        0.0       0.00       3.67       60.2
16:38              52        0.0         22       37.7      160.8       37.7       36.7       12.3     1015.4       37.9       20.3        0.0        0.0        0.0       0.00        0.0       0.00       3.67       60.2
16:39              20        0.0         22       37.6      160.8       37.6       36.6       12.3     1015.4       37.9       20.3        0.0        0.0        0.0       0.00        0.0       0.00       3.67       60.2
16:42              21        0.0         22       37.6      160.8       37.6       36.5       12.2     1015.4       37.9       20.3        0.0        0.0        0.0       0.00        0.0       0.00       3.67       60.2
16:44              21        0.0         23       37.6      160.8       37.6       36.7       12.9     1015.4       37.9       20.3        0.0        0.0        0.0       0.00        0.0       0.00       3.67       60.2
16:45              21        0.0         23       37.6      160.8       37.6       36.8       13.0     1015.3       37.9       20.3        0.0        0.0        0.0       0.00        0.0       0.00       3.83       60.2
16:48             108        0.0         23       37.7      160.8       37.7       36.9       13.0     1015.5       37.9       20.3        0.0        0.0        0.0       0.00        0.0       0.00       3.83       60.2
16:50              88        0.0         22       37.7      160.8       37.7       36.7       12.3     1015.4       37.9       20.3        0.0        0.0        0.0       0.00        0.0       0.00       3.83       60.2
16:52              41        0.0         21       37.7      160.8       37.7       36.4       11.6     1015.5       37.9       20.3        0.0        0.0        0.0       0.00        0.0       0.00       3.83       60.2
16:54              70        0.0         21       37.6      160.8       37.6       36.4       11.6     1015.5       37.9       20.3        0.0        0.0        0.0       0.00        0.0       0.00       3.83       60.2
16:55              74        0.0         21       37.6      160.8       37.6       36.4       11.6     1015.5       37.9       20.3        0.0        0.0        0.0       0.00        0.0       0.00       3.83       60.2
16:58              78        0.0         21       37.6      160.8       37.6       36.4       11.6     1015.6       37.9       20.3        0.0        0.0        0.0       0.00        0.0       0.00       3.83       60.2
17:00              75        0.0         21       37.6      160.8       37.6       36.3       11.5     1015.7       37.9       20.3        0.0        0.0        0.0       0.00        0.0       0.00       3.83       60.2
17:02              92        0.0         21       37.6      160.8       37.6       36.3       11.5     1015.6       37.9       20.3        0.0        0.0        0.0       0.00        0.0       0.00       3.99       60.2
17:03              88        0.0         21       37.6      160.8       37.6       36.3       11.5     1015.6       37.9       20.3        0.0        0.0        0.0       0.00        0.0       0.00       3.99       60.2
17:06              69        0.0         20       37.6      160.8       37.6       36.1       10.8     1015.7       37.9       20.3        0.0        0.0        0.0       0.00        0.0       0.00       3.99       60.2
17:08              86        0.0         21       37.5      160.8       37.5       36.2       11.5     1015.6       37.9       20.3        0.0        0.0        0.0       0.00        0.0       0.00       3.99       60.2
17:10              90        0.0         21       37.4      160.8       37.4       36.2       11.4     1015.7       37.9       20.3        0.0        0.0        0.0       0.00        0.0       0.00       3.99       60.2
17:12              90        0.0         21       37.4      160.8       37.4       36.1       11.4     1015.6       37.9       20.3        0.0        0.0        0.0       0.00        0.0       0.00       3.99       60.2
17:14              90        0.0         21       37.4      160.8       37.4       36.1       11.4     1015.6       37.9       20.3        0.0        0.0        0.0       0.00        0.0       0.00       3.99       60.2
17:16             140        0.0         22       37.4      160.8       37.4       36.3       12.1     1015.6       37.9       20.3        0.0        0.0        0.0       0.00        0.0       0.00       4.15       60.2
17:17             129        0.0         22       37.4      160.8       37.4       36.3       12.1     1015.7       37.9       20.3        0.0        0.0        0.0       0.00        0.0       0.00       4.15       60.2
17:20             124        0.0         22       37.3      160.8       37.3       36.2       12.1     1015.7       37.9       20.3        0.0        0.0        0.0       0.00        0.0       0.00       4.15       60.2
17:22             108        0.0         22       37.3      160.8       37.3       36.1       12.0     1015.7       37.9       20.3        0.0        0.0        0.0       0.00        0.0       0.00       4.15       60.2
17:24              82        0.0         21       37.2      160.8       37.2       35.9       11.3     1015.6       37.9       20.3        0.0        0.0        0.0       0.00        0.0       0.00       4.15       60.2
17:26             105        0.0         21       37.1      160.8       37.1       35.7       11.2     1015.7       37.9       20.3        0.0        0.0        0.0       0.00        0.0       0.00       4.15       60.2
17:28              70        0.0         21       37.1      160.8       37.1       35.7       11.1     1015.7       37.9       20.3        0.0        0.0        0.0       0.00        0.0       0.00       4.15       60.2
17:30              72        0.0         21       37.0      160.8       37.0       35.6       11.1     1015.7       37.9       20.3        0.0        0.0        0.0       0.00        0.0       0.00       4.15       60.2
17:31              72        0.0         22       36.9      160.8       36.9       35.7       11.7     1015.6       37.9       20.3        0.0        0.0        0.0       0.00        0.0       0.00       4.31       60.2
17:34             112        0.0         22       36.9      160.8       36.9       35.6       11.7     1015.6       37.9       20.3        0.0        0.0        0.0       0.00        0.0       0.00       4.31       60.2
17:36             111        0.0         22       36.8      160.8       36.8       35.6       11.6     1015.6       37.9       20.3        0.0        0.0        0.0       0.00        0.0       0.00       4.31       60.2
17:38             111        0.0         22       36.8      160.8       36.8       35.5       11.6     1015.7       37.9       20.3        0.0        0.0        0.0       0.00        0.0       0.00       4.31       60.2
17:40             111        0.0         23       36.7      160.8       36.7       35.6       12.2     1015.7       37.9       20.3        0.0        0.0        0.0       0.00        0.0       0.00       4.31       60.2
17:42             111        0.0         23       36.7      160.8       36.7       35.5       12.2     1015.8       37.9       20.3        0.0        0.0        0.0       0.00        0.0       0.00       4.31       60.2
17:44             111        0.0         22       36.6      160.8       36.6       35.3       11.5     1015.8       37.9       20.3        0.0        0.0        0.0       0.00        0.0       0.00       4.31       60.2
17:46             111        0.0         22       36.6      160.8       36.6       35.2       11.4     1015.9       37.9       20.3        0.0        0.0        0.0       0.00        0.0       0.00       4.46       60.2
17:47             108        0.0         23       36.4      160.8       36.4       35.2       12.0     1015.8       37.9       20.3        0.0        0.0        0.0       0.00        0.0       0.00       4.46       60.2
17:49             108        0.0         23       36.4      160.8       36.4       35.2       12.0     1015.9       37.9       20.3        0.0        0.0        0.0       0.00        0.0       0.00       4.46       60.2
17:52             108        0.0         23       36.3      160.8       36.3       35.1       11.9     1015.9       37.9       20.3        0.0        0.0        0.0       0.00        0.0       0.00       4.46       60.2
17:54             108        0.0         23       36.2      160.8       36.2       35.0       11.8     1015.8       37.9       20.3        0.0        0.0        0.0       0.00        0.0       0.00       4.46       60.2
17:56             108        0.0         23       36.1      160.8       36.1       34.8       11.7     1015.9       37.9       20.3        0.0        0.0        0.0       0.00        0.0       0.00       4.46       60.2
17:58             108        0.0         23       36.0      160.8       36.0       34.7       11.6     1015.9       37.9       20.3        0.0        0.0        0.0       0.00        0.0       0.00       4.46       60.2
18:00             108        0.0         23       35.9      160.8       35.9       34.5       11.5     1015.9       37.9       20.3        0.0        0.0        0.0       0.00        0.0       0.00       4.46       60.2
18:01             108        0.0         24       35.8      160.8       35.8       34.6       12.1     1015.9       37.9       20.3        0.0        0.0        0.0       0.00        0.0       0.00       4.60       60.2
18:04             108        0.0         24       35.7      160.8       35.7       34.5       12.0     1015.9       37.9       20.3        0.0        0.0        0.0       0.00        0.0       0.00       4.60       60.2
18:06             108        0.0         24       35.6      160.8       35.6       34.4       11.9     1015.9       37.9       20.3        0.0        0.0        0.0       0.00        0.0       0.00       4.60       60.2
18:08             108        0.0         24       35.6      160.8       35.6       34.3       11.9     1015.9       37.9       20.3        0.0        0.0        0.0       0.00        0.0       0.00       4.60       60.2
18:10             108        0.0         24       35.4      160.8       35.4       34.1       11.8     1015.9       37.9       20.3        0.0        0.0        0.0       0.00        0.0       0.00       4.60       60.2
18:12             108        0.0         24       35.3      160.8       35.3       34.0       11.7     1016.0       37.9       20.3        0.0        0.0        0.0       0.00        0.0       0.00       4.60       60.2
18:14             108        0.0         24       35.2      160.8       35.2       33.9       11.6     1015.9       37.9       20.3        0.0        0.0        0.0       0.00        0.0       0.00       4.60       60.2
18:16             108        0.0         24       35.1      160.8       35.1       33.7       11.5     1015.9       37.9       20.3        0.0        0.0        0.0       0.00        0.0       0.00       4.74       60.2
18:18             109        0.0         24       35.0      160.8       35.0       33.6       11.4     1015.9       37.9       20.3        0.0        0.0        0.0       0.00        0.0       0.00       4.74       60.2
18:20             109        0.0         25       34.9      160.8       34.9       33.6       12.0     1015.9       37.9       20.3        0.0        0.0        0.0       0.00        0.0       0.00       4.74       60.2
18:22             108        0.0         25       34.7      160.8       34.7       33.4       11.8     1015.9       37.9       20.3        0.0        0.0        0.0       0.00        0.0       0.00       4.74       60.2
18:24             108        0.0         25       34.6      160.8       34.6       33.3       11.7     1015.9       37.9       20.3        0.0        0.0        0.0       0.00        0.0       0.00       4.74       60.2
18:26             108        0.0         26       34.4      160.8       34.4       33.2       12.2     1015.9       37.9       20.3        0.0        0.0        0.0       0.00        0.0       0.00       4.74       60.2
18:28             108        0.0         25       34.4      160.8       34.4       33.0       11.5     1016.0       37.9       20.3        0.0        0.0        0.0       0.00        0.0       0.00       4.74       60.2
18:30             108        0.0         25       34.2      160.8       34.2       32.8       11.4     1016.0       37.9       20.3        0.0        0.0        0.0       0.00        0.0       0.00       4.74       60.2
18:32             108        0.0         25       34.1      160.8       34.1       32.7       11.3     1016.0       37.9       20.3        0.0        0.0        0.0       0.00        0.0       0.00       4.87       60.2
18:34             108        0.0         25       34.0      160.8       34.0       32.5       11.2     1015.9       37.9       20.3        0.0        0.0        0.0       0.00        0.0       0.00       4.87       60.2
18:36             108        0.0         26       33.9      160.8       33.9       32.5       11.7     1016.0       37.9       20.3        0.0        0.0        0.0       0.00        0.0       0.00       4.87       60.2
18:38             108        0.0         26       33.8      160.8       33.8       32.5       11.7     1016.1       37.9       20.3        0.0        0.0        0.0       0.00        0.0       0.00       4.87       60.2
18:40             175        0.0         27       33.7      160.8       33.7       32.4       12.1     1016.2       37.9       20.3        0.0        0.0        0.0       0.00        0.0       0.00       4.87       60.2
18:42             209        0.0         28       33.4      160.8       33.4       32.2       12.4     1016.3       37.9       20.3        0.0        0.0        0.0       0.00        0.0       0.00       4.87       60.2
18:44             234        0.0         30       33.1      160.8       33.1       32.1       13.2     1016.3       37.9       20.3        0.0        0.0        0.0       0.00        0.0       0.00       4.87       60.2
18:46             234        0.0         31       32.8      160.8       32.8       31.9       13.4     1016.2       37.9       20.3        0.0        0.0        0.0       0.00        0.0       0.00       4.98       60.2
18:48             234        0.0         31       32.6      160.8       32.6       31.6       13.3     1016.4       37.9       20.3        0.0        0.0        0.0       0.00        0.0       0.00       4.98       60.2
18:50             234        0.0         32       32.3      160.8       32.3       31.4       13.5     1016.4       37.9       20.3        0.0        0.0        0.0       0.00        0.0       0.00       4.98       60.2
18:51             230        0.0         33       32.0      160.8       32.0       31.2       13.7     1016.5       37.9       20.3        0.0        0.0        0.0       0.00        0.0       0.00       4.98       60.2
18:54             227        0.0         34       31.8      160.8       31.8       31.1       14.0     1016.4       37.9       20.3        0.0        0.0        0.0       0.00        0.0       0.00       4.98       60.2
18:56             225        0.0         34       31.5      160.8       31.5       30.7       13.8     1016.5       37.9       20.3        0.0        0.0        0.0       0.00        0.0       0.00       4.98       60.2
18:58             224        0.0         35       31.3      160.8       31.3       30.6       14.0     1016.5       37.9       20.3        0.0        0.0        0.0       0.00        0.0       0.00       4.98       60.2
19:00             224        0.0         36       31.1      160.8       31.1       30.4       14.2     1016.5       37.9       20.3        0.0        0.0        0.0       0.00        0.0       0.00       4.98       60.2
19:02             225        0.0         36       30.9      160.8       30.9       30.2       14.1     1016.5       37.9       20.3        0.0        0.0        0.0       0.00        0.0       0.00       5.08       60.2
19:04             225        0.0         36       30.7      160.8       30.7       30.1       14.0     1016.6       37.9       20.3        0.0        0.0        0.0       0.00        0.0       0.00       5.08       60.2
19:06             224        0.0         37       30.6      160.8       30.6       30.0       14.3     1016.6       37.9       20.3        0.0        0.0        0.0       0.00        0.0       0.00       5.08       60.2
19:08             224        0.0         37       30.4      160.8       30.4       29.9       14.1     1016.6       37.9       20.3        0.0        0.0        0.0       0.00        0.0       0.00       5.08       60.2
19:10             224        0.0         37       30.3      160.8       30.3       29.7       14.0     1016.6       37.9       20.3        0.0        0.0        0.0       0.00        0.0       0.00       5.08       60.2
19:12             222        0.0         38       30.2      160.8       30.2       29.7       14.3     1016.6       37.9       20.3        0.0        0.0        0.0       0.00        0.0       0.00       5.08       60.2
19:14             222        0.0         38       30.1      160.8       30.1       29.6       14.2     1016.6       37.9       20.3        0.0        0.0        0.0       0.00        0.0       0.00       5.08       60.2
19:16             222        0.0         38       30.0      160.8       30.0       29.5       14.1     1016.6       37.9       20.3        0.0        0.0        0.0       0.00        0.0       0.00       5.16       60.2
19:18             222        0.0         38       29.9      160.8       29.9       29.4       14.1     1016.6       37.9       20.3        0.0        0.0        0.0       0.00        0.0       0.00       5.16       60.2
19:19             222        0.0         38       29.8      160.8       29.8       29.3       14.0     1016.6       37.9       20.3        0.0        0.0        0.0       0.00        0.0       0.00       5.16       60.2
19:21             222        0.0         39       29.8      160.8       29.8       29.3       14.3     1016.6       37.9       20.3        0.0        0.0        0.0       0.00        0.0       0.00       5.16       60.2
19:24             220        0.0         39       29.7      160.8       29.7       29.2       14.3     1016.7       37.9       20.3        0.0        0.0        0.0       0.00        0.0       0.00       5.16       60.2
19:26             220        0.0         39       29.6      160.8       29.6       29.1       14.2     1016.7       37.9       20.3        0.0        0.0        0.0       0.00        0.0       0.00       5.16       60.2
19:28             220        0.0         39       29.5      160.8       29.5       29.0       14.1     1016.8       37.9       20.3        0.0        0.0        0.0       0.00        0.0       0.00       5.16       60.2
19:30             220        0.0         40       29.4      160.8       29.4       29.0       14.4     1016.7       37.9       20.3        0.0        0.0        0.0       0.00        0.0       0.00       5.16       60.2
19:32             220        0.0         40       29.2      160.8       29.2       28.8       14.2     1016.8       37.9       20.3        0.0        0.0        0.0       0.00        0.0       0.00       5.24       60.2
19:33             220        0.0         40       29.1      160.8       29.1       28.7       14.1     1016.8       37.9       20.3        0.0        0.0        0.0       0.00        0.0       0.00       5.24       60.2
19:35             220        0.0         41       29.0      160.8       29.0       28.7       14.4     1016.8       37.9       20.3        0.0        0.0        0.0       0.00        0.0       0.00       5.24       60.2
19:38             220        0.0         41       28.9      160.8       28.9       28.6       14.3     1016.8       37.9       20.3        0.0        0.0        0.0       0.00        0.0       0.00       5.24       60.2
19:39             220        0.0         41       28.8      160.8       28.8       28.5       14.3     1016.9       37.9       20.3        0.0        0.0        0.0       0.00        0.0       0.00       5.24       60.2
19:42             220        0.0         41       28.7      160.8       28.7       28.4       14.2     1016.9       37.9       20.3        0.0        0.0        0.0       0.00        0.0       0.00       5.24       60.2
19:44             220        0.0         41       28.7      160.8       28.7       28.4       14.1     1016.9       37.9       20.3        0.0        0.0        0.0       0.00        0.0       0.00       5.24       60.2
19:46             220        0.0         41       28.6      160.8       28.6       28.3       14.1     1016.9       37.9       20.3        0.0        0.0        0.0       0.00        0.0       0.00       5.31       60.2
19:48             220        0.0         42       28.6      160.8       28.6       28.3       14.4     1017.0       37.9       20.3        0.0        0.0        0.0       0.00        0.0       0.00       5.31       60.2
19:50             220        0.0         42       28.5      160.8       28.5       28.3       14.4     1016.9       37.9       20.3        0.0        0.0        0.0       0.00        0.0       0.00       5.31       60.2
19:52             220        0.0         42       28.4      160.8       28.4       28.2       14.3     1017.0       37.9       20.3        0.0        0.0        0.0       0.00        0.0       0.00       5.31       60.2
19:54             220        0.0         42       28.3      160.8       28.3       28.1       14.2     1017.1       37.9       20.3        0.0        0.0        0.0       0.00        0.0       0.00       5.31       60.2
19:55             220        0.0         42       28.3      160.8       28.3       28.1       14.2     1017.0       37.9       20.3        0.0        0.0        0.0       0.00        0.0       0.00       5.31       60.2
19:58             220        0.0         42       28.2      160.8       28.2       28.0       14.1     1017.0       37.9       20.3        0.0        0.0        0.0       0.00        0.0       0.00       5.31       60.2
20:00             220        0.0         42       28.2      160.8       28.2       28.0       14.1     1017.1       37.9       20.3        0.0        0.0        0.0       0.00        0.0       0.00       5.31       60.2
20:01             220        0.0         42       28.1      160.8       28.1       27.9       14.0     1017.1       37.9       20.3        0.0        0.0        0.0       0.00        0.0       0.00       5.37       60.2
20:03             220        0.0         42       28.1      160.8       28.1       27.9       14.0     1017.2       37.9       20.3        0.0        0.0        0.0       0.00        0.0       0.00       5.37       60.2
20:06             234        0.0         43       28.0      160.8       28.0       27.9       14.3     1017.1       37.9       20.3        0.0        0.0        0.0       0.00        0.0       0.00       5.37       60.2
20:08             237        0.0         43       28.0      160.8       28.0       27.9       14.3     1017.1       37.9       20.3        0.0        0.0        0.0       0.00        0.0       0.00       5.37       60.2
20:10             237        0.0         43       27.9      160.8       27.9       27.8       14.2     1017.1       37.9       20.3        0.0        0.0        0.0       0.00        0.0       0.00       5.37       60.2
20:12             237        0.0         43       27.9      160.8       27.9       27.8       14.2     1017.1       37.9       20.3        0.0        0.0        0.0       0.00        0.0       0.00       5.37       60.2
20:14             237        0.0         43       27.8      160.8       27.8       27.7       14.1     1017.3       37.9       20.3        0.0        0.0        0.0       0.00        0.0       0.00       5.37       60.2
20:16             238        0.0         43       27.8      160.8       27.8       27.7       14.1     1017.3       37.9       20.3        0.0        0.0        0.0       0.00        0.0       0.00       5.43       60.2
20:18             239        0.0         43       27.8      160.8       27.8       27.7       14.1     1017.3       37.9       20.3        0.0        0.0        0.0       0.00        0.0       0.00       5.43       60.2
20:20             239        0.0         43       27.7      160.8       27.7       27.6       14.0     1017.4       37.9       20.3        0.0        0.0        0.0       0.00        0.0       0.00       5.43       60.2
20:22             239        0.0         43       27.7      160.8       27.7       27.6       14.0     1017.4       37.9       20.3        0.0        0.0        0.0       0.00        0.0       0.00       5.43       60.2
20:24             239        0.0         43       27.6      160.8       27.6       27.5       13.9     1017.4       37.9       20.3        0.0        0.0        0.0       0.00        0.0       0.00       5.43       60.2
20:26             239        0.0         44       27.6      160.8       27.6       27.5       14.2     1017.4       37.9       20.3        0.0        0.0        0.0       0.00        0.0       0.00       5.43       60.2
20:28             239        0.0         44       27.5      160.8       27.5       27.5       14.2     1017.5       37.9       20.3        0.0        0.0        0.0       0.00        0.0       0.00       5.43       60.2
20:30             239        0.0         44       27.5      160.8       27.5       27.5       14.2     1017.4       37.9       20.3        0.0        0.0        0.0       0.00        0.0       0.00       5.43       60.2
20:32             239        0.0         44       27.5      160.8       27.5       27.5       14.2     1017.3       37.9       20.3        0.0        0.0        0.0       0.00        0.0       0.00       5.49       60.2
20:33             241        0.0         44       27.4      160.8       27.4       27.4       14.1     1017.5       37.9       20.3        0.0        0.0        0.0       0.00        0.0       0.00       5.49       60.2
20:36             248        0.0         44       27.4      160.8       27.4       27.4       14.1     1017.4       37.9       20.3        0.0        0.0        0.0       0.00        0.0       0.00       5.49       60.2
20:37             248        0.0         44       27.4      160.8       27.4       27.4       14.1     1017.5       37.9       20.3        0.0        0.0        0.0       0.00        0.0       0.00       5.49       60.2
20:40             248        0.0         44       27.4      160.8       27.4       27.4       14.1     1017.5       37.9       20.3        0.0        0.0        0.0       0.00        0.0       0.00       5.49       60.2
20:41             248        0.0         44       27.4      160.8       27.4       27.4       14.1     1017.5       37.9       20.3        0.0        0.0        0.0       0.00        0.0       0.00       5.49       60.2
20:44             248        0.0         44       27.4      160.8       27.4       27.4       14.1     1017.5       37.9       20.3        0.0        0.0        0.0       0.00        0.0       0.00       5.49       60.2
20:46             248        0.0         44       27.4      160.8       27.4       27.4       14.1     1017.4       37.9       20.3        0.0        0.0        0.0       0.00        0.0       0.00       5.55       60.2
20:48             248        0.0         44       27.4      160.8       27.4       27.4       14.1     1017.5       37.9       20.3        0.0        0.0        0.0       0.00        0.0       0.00       5.55       60.2
20:50             248        0.0         44       27.5      160.8       27.5       27.5       14.2     1017.5       37.9       20.3        0.0        0.0        0.0       0.00        0.0       0.00       5.55       60.2
20:52             248        0.0         44       27.5      160.8       27.5       27.5       14.2     1017.5       37.9       20.3        0.0        0.0        0.0       0.00        0.0       0.00       5.55       60.2
20:54             248        0.0         44       27.6      160.8       27.6       27.5       14.2     1017.5       37.9       20.3        0.0        0.0        0.0       0.00        0.0       0.00       5.55       60.2
20:56             248        0.0         44       27.6      160.8       27.6       27.5       14.2     1017.5       37.9       20.3        0.0        0.0        0.0       0.00        0.0       0.00       5.55       60.2
20:58             248        0.0         44       27.6      160.8       27.6       27.5       14.2     1017.5       37.9       20.3        0.0        0.0        0.0       0.00        0.0       0.00       5.55       60.2
21:00             248        0.0         44       27.6      160.8       27.6       27.5       14.2     1017.5       37.9       20.3        0.0        0.0        0.0       0.00        0.0       0.00       5.55       60.2
21:02             248        0.0         44       27.6      160.8       27.6       27.5       14.2     1017.5       37.9       20.3        0.0        0.0        0.0       0.00        0.0       0.00       5.60       60.2
21:04             248        0.0         44       27.6      160.8       27.6       27.5       14.2     1017.5       37.9       20.3        0.0        0.0        0.0       0.00        0.0       0.00       5.60       60.2
21:06             248        0.0         44       27.6      160.8       27.6       27.5       14.2     1017.5       37.9       20.3        0.0        0.0        0.0       0.00        0.0       0.00       5.60       60.2
21:08             248        0.0         44       27.6      160.8       27.6       27.5       14.2     1017.5       37.9       20.3        0.0        0.0        0.0       0.00        0.0       0.00       5.60       60.2
21:10             248        0.0         44       27.6      160.8       27.6       27.5       14.2     1017.6       37.9       20.3        0.0        0.0        0.0       0.00        0.0       0.00       5.60       60.2
21:12             248        0.0         44       27.6      160.8       27.6       27.5       14.2     1017.5       37.9       20.3        0.0        0.0        0.0       0.00        0.0       0.00       5.60       60.2
21:14             248        0.0         44       27.5      160.8       27.5       27.5       14.2     1017.5       37.9       20.3        0.0        0.0        0.0       0.00        0.0       0.00       5.60       60.2
21:16             248        0.0         44       27.5      160.8       27.5       27.5       14.2     1017.6       37.9       20.3        0.0        0.0        0.0       0.00        0.0       0.00       5.66       60.2
21:18             248        0.0         44       27.5      160.8       27.5       27.5       14.2     1017.5       37.9       20.3        0.0        0.0        0.0       0.00        0.0       0.00       5.66       60.2
21:20             248        0.0         44       27.4      160.8       27.4       27.4       14.1     1017.6       37.9       20.3        0.0        0.0        0.0       0.00        0.0       0.00       5.66       60.2
21:22             248        0.0         44       27.4      160.8       27.4       27.4       14.1     1017.7       37.9       20.3        0.0        0.0        0.0       0.00        0.0       0.00       5.66       60.2
21:24             248        0.0         44       27.4      160.8       27.4       27.4       14.1     1017.6       37.9       20.3        0.0        0.0        0.0       0.00        0.0       0.00       5.66       60.2
21:26             248        0.0         44       27.4      160.8       27.4       27.4       14.1     1017.6       37.9       20.3        0.0        0.0        0.0       0.00        0.0       0.00       5.66       60.2
21:28             248        0.0         45       27.3      160.8       27.3       27.4       14.4     1017.8       37.9       20.3        0.0        0.0        0.0       0.00        0.0       0.00       5.66       60.2
21:30             248        0.0         45       27.3      160.8       27.3       27.4       14.4     1017.7       37.9       20.3        0.0        0.0        0.0       0.00        0.0       0.00       5.66       60.2
21:32             248        0.0         45       27.2      160.8       27.2       27.3       14.3     1017.7       37.9       20.3        0.0        0.0        0.0       0.00        0.0       0.00       5.72       60.2
21:34             248        0.0         45       27.2      160.8       27.2       27.3       14.2     1017.8       37.9       20.3        0.0        0.0        0.0       0.00        0.0       0.00       5.72       60.2
21:36             248        0.0         45       27.1      160.8       27.1       27.2       14.1     1017.9       37.9       20.3        0.0        0.0        0.0       0.00        0.0       0.00       5.72       60.2
21:38             248        0.0         45       27.0      160.8       27.0       27.1       14.1     1017.8       37.9       20.3        0.0        0.0        0.0       0.00        0.0       0.00       5.72       60.2
21:40             248        0.0         45       26.9      160.8       26.9       27.1       14.0     1017.9       37.9       20.3        0.0        0.0        0.0       0.00        0.0       0.00       5.72       60.2
21:42             248        0.0         46       26.9      160.8       26.9       27.1       14.3     1017.9       37.9       20.3        0.0        0.0        0.0       0.00        0.0       0.00       5.72       60.2
21:44             248        0.0         46       26.8      160.8       26.8       27.0       14.2     1017.9       37.9       20.3        0.0        0.0        0.0       0.00        0.0       0.00       5.72       60.2
21:46             248        0.0         46       26.7      160.8       26.7       27.0       14.2     1017.9       37.9       20.3        0.0        0.0        0.0       0.00        0.0       0.00       5.77       60.2
21:48             248        0.0         47       26.6      160.8       26.6       26.9       14.4     1017.9       37.9       20.3        0.0        0.0        0.0       0.00        0.0       0.00       5.77       60.2
21:50             248        0.0         47       26.6      160.8       26.6       26.8       14.3     1017.9       37.9       20.3        0.0        0.0        0.0       0.00        0.0       0.00       5.77       60.2
21:52             248        0.0         47       26.5      160.8       26.5       26.8       14.3     1017.9       37.9       20.3        0.0        0.0        0.0       0.00        0.0       0.00       5.77       60.2
21:54             248        0.0         48       26.4      160.8       26.4       26.7       14.5     1017.8       37.9       20.3        0.0        0.0        0.0       0.00        0.0       0.00       5.77       60.2
21:56             248        0.0         48       26.3      160.8       26.3       26.7       14.5     1017.9       37.9       20.3        0.0        0.0        0.0       0.00        0.0       0.00       5.77       60.2
21:58             248        0.0         48       26.3      160.8       26.3       26.6       14.4     1017.9       37.9       20.3        0.0        0.0        0.0       0.00        0.0       0.00       5.77       60.2
22:00             248        0.0         48       26.2      160.8       26.2       26.6       14.4     1017.9       37.9       20.3        0.0        0.0        0.0       0.00        0.0       0.00       5.77       60.2
22:02             248        0.0         48       26.1      160.8       26.1       26.5       14.3     1017.9       37.9       20.3        0.0        0.0        0.0       0.00        0.0       0.00       5.81       60.2
22:04             248        0.0         48       26.1      160.8       26.1       26.5       14.3     1018.0       37.9       20.3        0.0        0.0        0.0       0.00        0.0       0.00       5.81       60.2
22:06             248        0.0         49       26.1      160.8       26.1       26.4       14.5     1017.9       37.9       20.3        0.0        0.0        0.0       0.00        0.0       0.00       5.81       60.2
22:07             248        0.0         49       26.1      160.8       26.1       26.4       14.5     1018.0       37.9       20.3        0.0        0.0        0.0       0.00        0.0       0.00       5.81       60.2
22:10             248        0.0         49       26.1      160.8       26.1       26.4       14.5     1018.0       37.9       20.3        0.0        0.0        0.0       0.00        0.0       0.00       5.81       60.2
22:12             248        0.0         49       26.1      160.8       26.1       26.4       14.5     1017.9       37.9       20.3        0.0        0.0        0.0       0.00        0.0       0.00       5.81       60.2
22:14             248        0.0         49       26.1      160.8       26.1       26.4       14.5     1018.0       37.9       20.3        0.0        0.0        0.0       0.00        0.0       0.00       5.81       60.2
22:16             248        0.0         49       26.1      160.8       26.1       26.4       14.5     1018.0       37.9       20.3        0.0        0.0        0.0       0.00        0.0       0.00       5.85       60.2
22:18             248        0.0         49       26.1      160.8       26.1       26.5       14.6     1017.9       37.9       20.3        0.0        0.0        0.0       0.00        0.0       0.00       5.85       60.2
22:20             248        0.0         49       26.1      160.8       26.1       26.5       14.6     1018.0       37.9       20.3        0.0        0.0        0.0       0.00        0.0       0.00       5.85       60.2
22:22             248        0.0         49       26.1      160.8       26.1       26.5       14.6     1017.9       37.9       20.3        0.0        0.0        0.0       0.00        0.0       0.00       5.85       60.2
22:24             248        0.0         49       26.1      160.8       26.1       26.5       14.6     1017.9       37.9       20.3        0.0        0.0        0.0       0.00        0.0       0.00       5.85       60.2
22:26             248        0.0         48       26.1      160.8       26.1       26.5       14.3     1017.9       37.9       20.3        0.0        0.0        0.0       0.00        0.0       0.00       5.85       60.2
22:28             248        0.0         48       26.1      160.8       26.1       26.5       14.3     1017.9       37.9       20.3        0.0        0.0        0.0       0.00        0.0       0.00       5.85       60.2
22:30             248        0.0         49       26.1      160.8       26.1       26.4       14.5     1017.9       37.9       20.3        0.0        0.0        0.0       0.00        0.0       0.00       5.85       60.2
22:32             248        0.0         49       26.1      160.8       26.1       26.4       14.5     1017.8       37.9       20.3        0.0        0.0        0.0       0.00        0.0       0.00       5.89       60.2
22:34             248        0.0         49       26.0      160.8       26.0       26.4       14.5     1017.9       37.9       20.3        0.0        0.0        0.0       0.00        0.0       0.00       5.89       60.2
22:36             248        0.0         49       26.1      160.8       26.1       26.4       14.5     1017.9       37.9       20.3        0.0        0.0        0.0       0.00        0.0       0.00       5.89       60.2
22:38             248        0.0         48       26.1      160.8       26.1       26.4       14.2     1017.9       37.9       20.3        0.0        0.0        0.0       0.00        0.0       0.00       5.89       60.2
22:40             248        0.0         48       26.1      160.8       26.1       26.5       14.3     1017.8       37.9       20.3        0.0        0.0        0.0       0.00        0.0       0.00       5.89       60.2
22:42             248        0.0         48       26.1      160.8       26.1       26.5       14.3     1017.9       37.9       20.3        0.0        0.0        0.0       0.00        0.0       0.00       5.89       60.2
22:44             248        0.0         48       26.2      160.8       26.2       26.5       14.3     1017.9       37.9       20.3        0.0        0.0        0.0       0.00        0.0       0.00       5.89       60.2
22:46             248        0.0         48       26.2      160.8       26.2       26.5       14.3     1017.9       37.9       20.3        0.0        0.0        0.0       0.00        0.0       0.00       5.94       60.2
22:48             248        0.0         48       26.2      160.8       26.2       26.5       14.3     1017.9       37.9       20.3        0.0        0.0        0.0       0.00        0.0       0.00       5.94       60.2
22:50             248        0.0         48       26.2      160.8       26.2       26.5       14.3     1017.9       37.9       20.3        0.0        0.0        0.0       0.00        0.0       0.00       5.94       60.2
22:52             248        0.0         48       26.2      160.8       26.2       26.5       14.3     1017.9       37.9       20.3        0.0        0.0        0.0       0.00        0.0       0.00       5.94       60.2
22:54             248        0.0         48       26.2      160.8       26.2       26.5       14.3     1017.9       37.9       20.3        0.0        0.0        0.0       0.00        0.0       0.00       5.94       60.2
22:56             248        0.0         48       26.1      160.8       26.1       26.5       14.3     1018.0       37.9       20.3        0.0        0.0        0.0       0.00        0.0       0.00       5.94       60.2
22:58             248        0.0         48       26.1      160.8       26.1       26.5       14.3     1018.0       37.9       20.3        0.0        0.0        0.0       0.00        0.0       0.00       5.94       60.2
23:00             248        0.0         47       26.0      160.8       26.0       26.3       13.8     1018.0       37.9       20.3        0.0        0.0        0.0       0.00        0.0       0.00       5.94       60.2
23:02             248        0.0         48       26.0      160.8       26.0       26.3       14.2     1017.9       37.9       20.3        0.0        0.0        0.0       0.00        0.0       0.00       5.98       60.2
23:04             248        0.0         48       26.0      160.8       26.0       26.3       14.2     1018.0       37.9       20.3        0.0        0.0        0.0       0.00        0.0       0.00       5.98       60.2
23:06             248        0.0         48       25.9      160.8       25.9       26.3       14.1     1018.0       37.9       20.3        0.0        0.0        0.0       0.00        0.0       0.00       5.98       60.2
23:08             248        0.0         47       25.9      160.8       25.9       26.2       13.8     1018.0       37.9       20.3        0.0        0.0        0.0       0.00        0.0       0.00       5.98       60.2
23:10             248        0.0         48       25.9      160.8       25.9       26.2       14.1     1018.0       37.9       20.3        0.0        0.0        0.0       0.00        0.0       0.00       5.98       60.2
23:12             248        0.0         48       25.9      160.8       25.9       26.2       14.1     1018.0       37.9       20.3        0.0        0.0        0.0       0.00        0.0       0.00       5.98       60.2
23:14             248        0.0         48       25.9      160.8       25.9       26.2       14.1     1018.1       37.9       20.3        0.0        0.0        0.0       0.00        0.0       0.00       5.98       60.2
23:16             248        0.0         47       25.9      160.8       25.9       26.2       13.7     1018.1       37.9       20.3        0.0        0.0        0.0       0.00        0.0       0.00       6.02       60.2
23:18             248        0.0         47       25.9      160.8       25.9       26.2       13.7     1018.1       37.9       20.3        0.0        0.0        0.0       0.00        0.0       0.00       6.02       60.2
23:20             248        0.0         47       25.9      160.8       25.9       26.2       13.7     1018.1       37.9       20.3        0.0        0.0        0.0       0.00        0.0       0.00       6.02       60.2
23:22             248        0.0         47       25.9      160.8       25.9       26.2       13.7     1018.1       37.9       20.3        0.0        0.0        0.0       0.00        0.0       0.00       6.02       60.2
23:24             248        0.0         48       25.8      160.8       25.8       26.2       14.0     1018.1       37.9       20.3        0.0        0.0        0.0       0.00        0.0       0.00       6.02       60.2
23:26             248        0.0         48       25.8      160.8       25.8       26.2       14.0     1018.0       37.9       20.3        0.0        0.0        0.0       0.00        0.0       0.00       6.02       60.2
23:28             248        0.0         48       25.8      160.8       25.8       26.2       14.0     1018.2       37.9       20.3        0.0        0.0        0.0       0.00        0.0       0.00       6.02       60.2
23:30             248        0.0         48       25.8      160.8       25.8       26.1       13.9     1018.2       37.9       20.3        0.0        0.0        0.0       0.00        0.0       0.00       6.02       60.2
23:32             248        0.0         48       25.7      160.8       25.7       26.1       13.9     1018.2       37.9       20.3        0.0        0.0        0.0       0.00        0.0       0.00       6.06       60.2
23:34             248        0.0         49       25.7      160.8       25.7       26.1       14.2     1018.2       37.9       20.3        0.0        0.0        0.0       0.00        0.0       0.00       6.06       60.2
23:36             248        0.0         49       25.6      160.8       25.6       26.0       14.1     1018.2       37.9       20.3        0.0        0.0        0.0       0.00        0.0       0.00       6.06       60.2
23:38             248        0.0         49       25.6      160.8       25.6       25.9       14.1     1018.2       37.9       20.3        0.0        0.0        0.0       0.00        0.0       0.00       6.06       60.2
23:40             248        0.0         51       25.5      160.8       25.5       26.0       14.6     1018.2       37.9       20.3        0.0        0.0        0.0       0.00        0.0       0.00       6.06       60.2
23:42             248        0.0         51       25.4      160.8       25.4       25.9       14.6     1018.1       37.9       20.3        0.0        0.0        0.0       0.00        0.0       0.00       6.06       60.2
23:44             248        0.0         51       25.4      160.8       25.4       25.9       14.5     1018.2       37.9       20.3        0.0        0.0        0.0       0.00        0.0       0.00       6.06       60.2
23:46             248        0.0         51       25.3      160.8       25.3       25.8       14.4     1018.2       37.9       20.3        0.0        0.0        0.0       0.00        0.0       0.00       6.09       60.2
23:48             248        0.0         52       25.3      160.8       25.3       25.8       14.7     1018.2       37.9       20.3        0.0        0.0        0.0       0.00        0.0       0.00       6.09       60.2
23:50             248        0.0         52       25.2      160.8       25.2       25.7       14.6     1018.2       37.9       20.3        0.0        0.0        0.0       0.00        0.0       0.00       6.09       60.2
23:52             248        0.0         51       25.1      160.8       25.1       25.6       14.3     1018.2       37.9       20.3        0.0        0.0        0.0       0.00        0.0       0.00       6.09       60.2
23:53             248        0.0         51       25.1      160.8       25.1       25.6       14.2     1018.3       37.9       20.3        0.0        0.0        0.0       0.00        0.0       0.00       6.09       60.2
23:56             248        0.0         51       25.0      160.8       25.0       25.5       14.2     1018.3       37.9       20.3        0.0        0.0        0.0       0.00        0.0       0.00       6.09       60.2
23:58             248        0.0         52       24.9      160.8       24.9       25.5       14.4     1018.2       37.9       20.3        0.0        0.0        0.0       0.00        0.0       0.00       6.09       60.2